[[{"header":{"parameterUnit":"m.s-1","parameterCategory":1,"la1":31.0,"la2":29.5877,"lo1":-88.7671,"lo2":-86.6584,"dy":0.0162,"dx":0.0185,"nx":115,"ny":88,"refTime":"2023-08-19T06:00:00:Z","depth":0,"parameterNumber":2,"parameterNumberName":"U-component_of_WINDS"},"data":[0.0,0.0,0.0,0.0,0.0,0.0,0.0,0.0,0.0,0.0,0.0,0.0,0.0,0.0,0.0,0.0,0.0,0.0,0.0,0.0,0.0,0.0,0.0,0.0,0.0,0.0,0.0,0.0,0.0,0.0,0.0,0.0,0.0,0.0,0.0,0.0,0.0,0.0,0.0,0.0,0.0,0.0,0.0,0.0,0.0,0.0,0.0,0.0,0.0,0.0,0.0,0.0,0.0,0.0,0.0,0.0,0.0,0.0,0.0,0.0,0.0,0.0,0.0,0.0,0.0,0.0,0.0,0.0,0.0,0.0,0.0,0.0,0.0,0.0,0.0,0.0,0.0,0.0,0.0,0.0,0.0,0.0,0.0,0.0,0.0,0.0,0.0,0.0,0.0,0.0,0.0,0.0,0.0,0.0,0.0,0.0,0.0,0.0,0.0,0.0,0.0,0.0,0.0,0.0,0.0,0.0,0.0,0.0,0.0,0.0,0.0,0.0,0.0,0.0,0.0,0.0,0.0,0.0,0.0,0.0,0.0,0.0,0.0,0.0,0.0,0.0,0.0,0.0,0.0,0.0,0.0,0.0,0.0,0.0,0.0,0.0,0.0,0.0,0.0,0.0,0.0,0.0,0.0,0.0,0.0,0.0,0.0,0.0,0.0,0.0,0.0,0.0,0.0,0.0,0.0,0.0,0.0,0.0,0.0,0.0,0.0,0.0,0.0,0.0,0.0,0.0,0.0,0.0,0.0,0.0,0.0,0.0,0.0,0.0,0.0,0.0,0.0,0.0,0.0,0.0,0.0,0.0,0.0,0.0,0.0,0.0,0.0,0.0,0.0,0.0,0.0,0.0,0.0,0.0,0.0,0.0,0.0,0.0,0.0,0.0,0.0,0.0,0.0,0.0,0.0,0.0,0.0,0.0,0.0,0.0,0.0,0.0,0.0,0.0,0.0,0.0,0.0,0.0,0.0,0.0,0.0,0.0,0.0,0.0,0.0,0.0,0.0,0.0,0.0,0.0,0.0,0.0,0.0,0.0,0.0,0.0,0.0,0.0,0.0,0.0,0.0,0.0,0.0,0.0,0.0,0.0,0.0,0.0,0.0,0.0,0.0,0.0,0.0,0.0,0.0,0.0,0.0,0.0,0.0,0.0,0.0,0.0,0.0,0.0,0.0,0.0,0.0,0.0,0.0,0.0,0.0,0.0,0.0,0.0,0.0,0.0,0.0,0.0,0.0,0.0,0.0,0.0,0.0,0.0,0.0,0.0,0.0,0.0,0.0,0.0,0.0,0.0,0.0,0.0,0.0,0.0,0.0,0.0,0.0,0.0,0.0,0.0,0.0,0.0,0.0,0.0,0.0,0.0,0.0,0.0,0.0,0.0,0.0,0.0,0.0,0.0,0.0,0.0,0.0,0.0,0.0,0.0,0.0,0.0,0.0,0.0,0.0,0.0,0.0,0.0,0.0,0.0,0.0,0.0,0.0,0.0,0.0,0.0,0.0,0.0,0.0,0.0,0.0,0.0,0.0,0.0,0.0,0.0,0.0,0.0,0.0,0.0,0.0,0.0,0.0,0.0,0.0,0.0,0.0,0.0,0.0,0.0,0.0,0.0,0.0,0.0,0.0,0.0,0.0,0.0,0.0,0.0,0.0,0.0,0.0,0.0,0.0,0.0,0.0,0.0,0.0,0.0,0.0,0.0,0.0,0.0,0.0,0.0,0.0,0.0,0.0,0.0,0.0,0.0,0.0,0.0,0.0,0.0,0.0,0.0,0.0,0.0,0.0,0.0,0.0,0.0,0.0,0.0,0.0,0.0,0.0,0.0,0.0,0.0,0.0,0.0,0.0,0.0,0.0,0.0,0.0,0.0,0.0,0.0,0.0,0.0,0.0,0.0,0.0,0.0,0.0,0.0,0.0,0.0,0.0,0.0,0.0,0.0,0.0,0.0,0.0,0.0,0.0,0.0,0.0,0.0,0.0,0.0,0.0,0.0,0.0,0.0,0.0,0.0,0.0,0.0,0.0,0.0,0.0,0.0,0.0,0.0,0.0,0.0,0.0,0.0,0.0,0.0,0.0,0.0,0.0,0.0,0.0,0.0,0.0,0.0,0.0,0.0,0.0,0.0,0.0,0.0,0.0,0.0,0.0,0.0,0.0,0.0,0.0,0.0,0.0,0.0,0.0,0.0,0.0,0.0,0.0,0.0,0.0,0.0,0.0,0.0,0.0,0.0,0.0,0.0,0.0,0.0,0.0,0.0,0.0,0.0,0.0,0.0,0.0,0.0,0.0,0.0,0.0,0.0,0.0,0.0,0.0,0.0,0.0,0.0,0.0,0.0,0.0,0.0,0.0,0.0,0.0,0.0,0.0,0.0,0.0,0.0,0.0,0.0,0.0,0.0,0.0,0.0,0.0,0.0,0.0,0.0,0.0,0.0,0.0,0.0,0.0,0.0,0.0,0.0,0.0,0.0,0.0,0.0,0.0,0.0,0.0,0.0,0.0,0.0,0.0,0.0,0.0,0.0,0.0,0.0,0.0,0.0,0.0,0.0,0.0,0.0,0.0,0.0,0.0,0.0,0.0,0.0,0.0,0.0,0.0,0.0,0.0,0.0,0.0,0.0,0.0,0.0,0.0,0.0,0.0,0.0,0.0,0.0,0.0,0.0,0.0,0.0,0.0,0.0,0.0,0.0,0.0,0.0,0.0,0.0,0.0,0.0,0.0,0.0,0.0,0.0,0.0,0.0,0.0,0.0,0.0,0.0,0.0,0.0,0.0,0.0,0.0,0.0,0.0,0.0,0.0,0.0,0.0,0.0,0.0,0.0,0.0,0.0,0.0,0.0,0.0,0.0,0.0,0.0,0.0,0.0,0.0,0.0,0.0,0.0,0.0,0.0,0.0,0.0,0.0,0.0,0.0,0.0,0.0,0.0,0.0,0.0,0.0,0.0,0.0,0.0,0.0,0.0,0.0,0.0,0.0,0.0,0.0,0.0,0.0,0.0,0.0,0.0,0.0,0.0,0.0,0.0,0.0,0.0,0.0,0.0,0.0,0.0,0.0,0.0,0.0,0.0,0.0,0.0,0.0,0.0,0.0,0.0,0.0,0.0,0.0,0.0,0.0,0.0,0.0,0.0,0.0,0.0,0.0,0.0,0.0,0.0,0.0,0.0,0.0,0.0,0.0,0.0,0.0,0.0,0.0,0.0,0.0,0.0,0.0,0.0,0.0,0.0,0.0,0.0,0.0,0.0,0.0,0.0,0.0,0.0,0.0,0.0,0.0,0.0,0.0,0.0,0.0,0.0,0.0,0.0,0.0,0.0,0.0,0.0,0.0,0.0,0.0,0.0,0.0,0.0,0.0,0.0,0.0,0.0,0.0,0.0,0.0,0.0,0.0,0.0,0.0,0.0,0.0,0.0,0.0,0.0,0.0,0.0,0.0,0.0,0.0,0.0,0.0,0.0,0.0,0.0,0.0,0.0,0.0,0.0,0.0,0.0,0.0,0.0,0.0,0.0,0.0,0.0,0.0,0.0,0.0,0.0,0.0,0.0,0.0,0.0,0.0,0.0,0.0,0.0,0.0,0.0,0.0,0.0,0.0,0.0,0.0,0.0,0.0,0.0,0.0,0.0,0.0,0.0,0.0,0.0,0.0,0.0,0.0,0.0,0.0,0.0,0.0,0.0,0.0,0.0,0.0,0.0,0.0,0.0,0.0,0.0,0.0,0.0,0.0,0.0,0.0,0.0,0.0,0.0,0.0,0.0,0.0,0.0,0.0,0.0,0.0,0.0,0.0,0.0,0.0,0.0,0.0,0.0,0.0,0.0,0.0,0.0,0.0,0.0,0.0,0.0,0.0,0.0,0.0,0.0,0.0,0.0,0.0,0.0,0.0,0.0,0.0,0.0,0.0,0.0,0.0,0.0,0.0,0.0,0.0,0.0,0.0,0.0,0.0,0.0,0.0,0.0,0.0,0.0,0.0,0.0,0.0,0.0,0.0,0.0,0.0,0.0,0.0,0.0,0.0,0.0,0.0,0.0,0.0,0.0,0.0,0.0,0.0,0.0,0.0,0.0,0.0,0.0,0.0,0.0,0.0,0.0,0.0,0.0,0.0,0.0,0.0,0.0,0.0,0.0,0.0,0.0,0.0,0.0,0.0,0.0,0.0,0.0,0.0,0.0,0.0,0.0,0.0,0.0,0.0,0.0,0.0,0.0,0.0,0.0,0.0,0.0,0.0,0.0,0.0,0.0,0.0,0.0,0.0,0.0,0.0,0.0,-3.1685,0.0,0.0,0.0,0.0,0.0,0.0,0.0,0.0,0.0,0.0,0.0,0.0,0.0,0.0,0.0,0.0,0.0,0.0,0.0,0.0,0.0,0.0,0.0,0.0,0.0,0.0,0.0,0.0,0.0,0.0,0.0,0.0,0.0,0.0,0.0,0.0,0.0,0.0,0.0,0.0,0.0,0.0,0.0,0.0,0.0,0.0,0.0,0.0,0.0,0.0,0.0,0.0,0.0,0.0,0.0,0.0,0.0,0.0,0.0,0.0,0.0,0.0,0.0,0.0,0.0,0.0,0.0,0.0,0.0,0.0,0.0,0.0,0.0,0.0,0.0,0.0,0.0,0.0,0.0,0.0,0.0,0.0,0.0,0.0,0.0,0.0,0.0,0.0,0.0,0.0,0.0,0.0,0.0,0.0,0.0,0.0,0.0,0.0,0.0,0.0,0.0,0.0,0.0,0.0,0.0,0.0,0.0,0.0,0.0,0.0,-3.5196,-3.4944,-3.3671,-3.291,-3.2657,0.0,0.0,0.0,0.0,0.0,0.0,0.0,0.0,0.0,0.0,0.0,0.0,0.0,0.0,0.0,0.0,0.0,0.0,0.0,0.0,0.0,0.0,0.0,0.0,0.0,0.0,0.0,0.0,0.0,0.0,0.0,0.0,0.0,0.0,0.0,0.0,0.0,0.0,0.0,0.0,0.0,0.0,0.0,0.0,0.0,0.0,0.0,0.0,0.0,0.0,0.0,0.0,0.0,0.0,0.0,0.0,0.0,0.0,0.0,0.0,0.0,0.0,0.0,0.0,0.0,0.0,0.0,0.0,0.0,0.0,0.0,0.0,0.0,0.0,0.0,0.0,0.0,0.0,0.0,0.0,0.0,0.0,0.0,0.0,0.0,0.0,0.0,0.0,0.0,0.0,0.0,0.0,0.0,0.0,0.0,0.0,0.0,0.0,0.0,0.0,0.0,0.0,0.0,0.0,0.0,0.0,0.0,0.0,0.0,0.0,0.0,0.0,-3.4766,-3.3709,-3.3049,0.0,0.0,0.0,0.0,0.0,0.0,0.0,0.0,0.0,0.0,0.0,0.0,0.0,0.0,0.0,0.0,0.0,0.0,0.0,0.0,0.0,0.0,0.0,0.0,0.0,0.0,0.0,0.0,0.0,0.0,0.0,0.0,0.0,0.0,0.0,0.0,0.0,0.0,0.0,0.0,0.0,0.0,0.0,0.0,0.0,0.0,0.0,0.0,0.0,0.0,0.0,0.0,0.0,0.0,0.0,0.0,0.0,0.0,0.0,0.0,0.0,0.0,0.0,0.0,0.0,0.0,0.0,0.0,0.0,0.0,0.0,0.0,0.0,0.0,0.0,0.0,0.0,0.0,0.0,0.0,0.0,0.0,0.0,0.0,0.0,0.0,0.0,0.0,0.0,0.0,0.0,0.0,0.0,0.0,0.0,0.0,0.0,0.0,0.0,0.0,0.0,0.0,0.0,0.0,0.0,0.0,0.0,0.0,0.0,0.0,-3.6106,-3.781,-3.7109,0.0,-3.2457,0.0,0.0,0.0,0.0,0.0,0.0,0.0,0.0,0.0,0.0,0.0,0.0,0.0,0.0,0.0,0.0,0.0,0.0,0.0,0.0,0.0,0.0,0.0,0.0,0.0,0.0,0.0,0.0,0.0,0.0,0.0,0.0,0.0,0.0,0.0,0.0,0.0,0.0,0.0,0.0,0.0,0.0,0.0,0.0,0.0,0.0,0.0,0.0,0.0,0.0,0.0,0.0,0.0,0.0,0.0,0.0,0.0,0.0,0.0,0.0,0.0,0.0,0.0,0.0,0.0,0.0,0.0,0.0,0.0,0.0,0.0,0.0,0.0,0.0,0.0,0.0,0.0,0.0,0.0,0.0,0.0,0.0,0.0,0.0,0.0,0.0,0.0,0.0,0.0,0.0,0.0,0.0,0.0,0.0,0.0,0.0,0.0,0.0,0.0,0.0,0.0,0.0,0.0,0.0,0.0,0.0,0.0,0.0,0.0,0.0,-3.6816,-3.8241,-3.6581,-3.4549,0.0,0.0,0.0,0.0,0.0,0.0,0.0,0.0,0.0,0.0,0.0,0.0,0.0,0.0,0.0,0.0,0.0,0.0,0.0,0.0,0.0,0.0,0.0,0.0,0.0,0.0,0.0,0.0,0.0,0.0,0.0,0.0,0.0,0.0,0.0,0.0,0.0,0.0,0.0,0.0,0.0,0.0,0.0,0.0,0.0,0.0,0.0,0.0,0.0,0.0,0.0,0.0,0.0,0.0,0.0,0.0,0.0,0.0,0.0,0.0,0.0,0.0,0.0,0.0,0.0,0.0,0.0,0.0,0.0,0.0,0.0,0.0,0.0,0.0,0.0,0.0,0.0,0.0,0.0,0.0,0.0,0.0,0.0,0.0,0.0,0.0,0.0,0.0,0.0,0.0,0.0,0.0,0.0,0.0,0.0,0.0,0.0,0.0,0.0,0.0,0.0,0.0,0.0,0.0,0.0,0.0,0.0,0.0,0.0,0.0,-3.6725,-3.7409,-3.8601,-3.705,-3.4834,-3.2172,0.0,0.0,0.0,0.0,0.0,0.0,0.0,0.0,0.0,0.0,0.0,0.0,0.0,0.0,0.0,0.0,0.0,0.0,0.0,0.0,0.0,0.0,0.0,0.0,0.0,0.0,0.0,0.0,0.0,0.0,0.0,0.0,0.0,0.0,0.0,0.0,0.0,0.0,0.0,0.0,0.0,0.0,0.0,0.0,0.0,0.0,0.0,0.0,0.0,0.0,0.0,0.0,0.0,0.0,0.0,0.0,0.0,0.0,0.0,0.0,0.0,0.0,0.0,0.0,0.0,0.0,0.0,0.0,0.0,0.0,0.0,0.0,0.0,0.0,0.0,0.0,0.0,0.0,0.0,0.0,0.0,0.0,0.0,0.0,0.0,0.0,0.0,0.0,0.0,0.0,0.0,0.0,0.0,0.0,0.0,0.0,0.0,0.0,0.0,0.0,0.0,0.0,0.0,0.0,0.0,0.0,0.0,0.0,-3.8901,-3.7657,-3.7815,-3.9687,-3.9618,-3.7177,0.0,0.0,0.0,0.0,0.0,0.0,0.0,0.0,0.0,0.0,0.0,0.0,0.0,0.0,0.0,0.0,0.0,0.0,0.0,0.0,0.0,0.0,0.0,0.0,0.0,0.0,0.0,0.0,0.0,0.0,0.0,0.0,0.0,0.0,0.0,0.0,0.0,0.0,0.0,0.0,0.0,0.0,0.0,0.0,0.0,0.0,0.0,0.0,0.0,0.0,0.0,0.0,0.0,0.0,0.0,0.0,0.0,0.0,0.0,0.0,0.0,0.0,0.0,0.0,0.0,0.0,0.0,0.0,0.0,0.0,0.0,0.0,0.0,0.0,0.0,0.0,0.0,0.0,0.0,0.0,0.0,0.0,0.0,0.0,0.0,0.0,0.0,0.0,0.0,0.0,0.0,0.0,0.0,0.0,0.0,0.0,0.0,0.0,0.0,0.0,0.0,0.0,0.0,0.0,0.0,0.0,0.0,0.0,0.0,-3.5323,-3.5991,-3.8234,-4.1952,-3.7469,-3.4433,0.0,0.0,0.0,0.0,0.0,0.0,0.0,0.0,0.0,0.0,0.0,0.0,0.0,0.0,0.0,0.0,0.0,0.0,0.0,0.0,0.0,0.0,0.0,0.0,0.0,0.0,0.0,0.0,0.0,0.0,0.0,0.0,0.0,0.0,0.0,0.0,0.0,0.0,0.0,0.0,0.0,0.0,0.0,0.0,0.0,0.0,0.0,0.0,0.0,0.0,0.0,0.0,0.0,0.0,0.0,0.0,0.0,0.0,0.0,0.0,0.0,0.0,0.0,0.0,0.0,0.0,0.0,0.0,0.0,0.0,0.0,0.0,0.0,0.0,0.0,0.0,0.0,0.0,0.0,0.0,0.0,0.0,0.0,0.0,0.0,0.0,0.0,0.0,0.0,0.0,0.0,0.0,0.0,0.0,0.0,0.0,0.0,0.0,0.0,0.0,0.0,0.0,0.0,0.0,0.0,0.0,0.0,0.0,0.0,-3.4866,0.0,-3.9335,-4.1621,-3.6583,-3.3131,0.0,0.0,0.0,0.0,0.0,0.0,0.0,0.0,0.0,0.0,0.0,0.0,0.0,0.0,0.0,0.0,0.0,0.0,0.0,0.0,0.0,0.0,0.0,0.0,0.0,0.0,0.0,0.0,0.0,0.0,0.0,0.0,0.0,0.0,0.0,0.0,0.0,0.0,0.0,0.0,0.0,0.0,0.0,0.0,0.0,0.0,0.0,0.0,0.0,0.0,0.0,0.0,0.0,0.0,0.0,0.0,0.0,0.0,0.0,0.0,0.0,0.0,0.0,0.0,0.0,0.0,0.0,0.0,0.0,0.0,0.0,0.0,0.0,0.0,0.0,0.0,0.0,0.0,0.0,0.0,0.0,0.0,0.0,0.0,0.0,0.0,0.0,0.0,0.0,0.0,0.0,0.0,0.0,0.0,0.0,0.0,0.0,0.0,0.0,0.0,0.0,0.0,0.0,0.0,0.0,0.0,0.0,0.0,-3.3229,-3.8231,-4.074,-4.089,-3.8596,-3.7364,-3.3695,0.0,0.0,0.0,0.0,0.0,0.0,0.0,0.0,0.0,0.0,0.0,0.0,0.0,0.0,0.0,0.0,0.0,0.0,0.0,0.0,0.0,0.0,0.0,0.0,0.0,0.0,0.0,0.0,0.0,0.0,0.0,0.0,0.0,0.0,0.0,0.0,0.0,0.0,0.0,0.0,0.0,0.0,0.0,0.0,0.0,0.0,0.0,0.0,0.0,0.0,0.0,0.0,0.0,0.0,0.0,0.0,0.0,0.0,0.0,0.0,0.0,0.0,0.0,0.0,0.0,0.0,0.0,0.0,0.0,0.0,0.0,0.0,0.0,0.0,0.0,0.0,0.0,0.0,0.0,0.0,0.0,0.0,0.0,0.0,0.0,0.0,0.0,0.0,0.0,0.0,0.0,0.0,0.0,0.0,0.0,0.0,0.0,0.0,0.0,0.0,0.0,0.0,0.0,0.0,0.0,0.0,0.0,0.0,0.0,-3.6696,-3.8567,-4.0287,-4.1584,-3.6347,-3.2988,0.0,0.0,0.0,0.0,0.0,0.0,0.0,0.0,0.0,0.0,0.0,0.0,0.0,0.0,0.0,0.0,0.0,0.0,0.0,0.0,0.0,0.0,0.0,0.0,0.0,0.0,0.0,0.0,0.0,0.0,0.0,0.0,0.0,0.0,0.0,0.0,0.0,0.0,0.0,0.0,0.0,0.0,0.0,0.0,0.0,0.0,0.0,0.0,0.0,0.0,0.0,0.0,0.0,0.0,0.0,0.0,0.0,0.0,0.0,0.0,0.0,0.0,0.0,0.0,0.0,0.0,0.0,0.0,0.0,0.0,0.0,0.0,0.0,0.0,0.0,0.0,0.0,0.0,0.0,0.0,0.0,0.0,0.0,0.0,0.0,0.0,0.0,0.0,0.0,0.0,0.0,0.0,0.0,0.0,0.0,0.0,0.0,0.0,0.0,0.0,0.0,0.0,0.0,0.0,0.0,0.0,0.0,0.0,0.0,-3.7344,-3.9481,-4.1209,-4.2412,-3.6445,-3.2963,-3.2371,0.0,0.0,0.0,0.0,0.0,0.0,0.0,0.0,0.0,0.0,0.0,0.0,0.0,0.0,0.0,0.0,0.0,0.0,0.0,0.0,0.0,0.0,0.0,0.0,0.0,0.0,0.0,0.0,0.0,0.0,0.0,0.0,0.0,0.0,0.0,0.0,0.0,0.0,0.0,0.0,0.0,0.0,0.0,0.0,0.0,0.0,0.0,0.0,0.0,0.0,0.0,0.0,0.0,0.0,0.0,0.0,0.0,0.0,0.0,0.0,0.0,0.0,0.0,0.0,0.0,0.0,0.0,0.0,0.0,0.0,0.0,0.0,0.0,0.0,0.0,0.0,0.0,0.0,0.0,0.0,0.0,0.0,0.0,0.0,0.0,0.0,0.0,0.0,0.0,0.0,0.0,0.0,0.0,0.0,0.0,0.0,0.0,0.0,0.0,0.0,0.0,0.0,0.0,0.0,0.0,0.0,0.0,0.0,-3.9646,-4.2873,-4.3451,-4.1198,-3.7632,-3.3792,0.0,0.0,0.0,0.0,0.0,0.0,0.0,0.0,0.0,0.0,0.0,0.0,0.0,0.0,0.0,0.0,0.0,0.0,0.0,0.0,0.0,0.0,0.0,0.0,0.0,0.0,0.0,0.0,0.0,0.0,0.0,0.0,0.0,0.0,0.0,0.0,0.0,0.0,0.0,0.0,0.0,0.0,0.0,0.0,0.0,0.0,0.0,0.0,0.0,0.0,0.0,0.0,0.0,0.0,0.0,0.0,0.0,0.0,0.0,0.0,0.0,0.0,0.0,0.0,0.0,0.0,0.0,0.0,0.0,0.0,0.0,0.0,0.0,0.0,0.0,0.0,0.0,0.0,0.0,0.0,0.0,0.0,0.0,0.0,0.0,0.0,0.0,0.0,0.0,0.0,0.0,0.0,0.0,0.0,0.0,0.0,0.0,0.0,0.0,0.0,0.0,0.0,0.0,0.0,0.0,0.0,0.0,0.0,0.0,-4.0533,-4.3119,-4.4443,-4.4291,-3.9791,-3.6219,0.0,0.0,0.0,0.0,0.0,0.0,0.0,0.0,0.0,0.0,0.0,0.0,0.0,0.0,0.0,0.0,0.0,0.0,0.0,0.0,0.0,0.0,0.0,0.0,0.0,0.0,0.0,0.0,0.0,0.0,0.0,0.0,0.0,0.0,0.0,0.0,0.0,0.0,0.0,0.0,0.0,0.0,0.0,0.0,0.0,0.0,0.0,0.0,0.0,0.0,0.0,0.0,0.0,0.0,0.0,0.0,0.0,0.0,0.0,0.0,0.0,0.0,0.0,0.0,0.0,0.0,0.0,0.0,0.0,0.0,0.0,0.0,0.0,0.0,0.0,0.0,0.0,0.0,0.0,0.0,0.0,0.0,0.0,0.0,0.0,0.0,0.0,0.0,0.0,0.0,0.0,0.0,0.0,0.0,0.0,0.0,0.0,0.0,0.0,0.0,0.0,0.0,0.0,0.0,0.0,0.0,0.0,0.0,-3.8825,-4.1321,-4.3705,-4.5158,-4.5612,-4.1322,-3.7867,0.0,0.0,0.0,0.0,0.0,0.0,0.0,0.0,0.0,0.0,0.0,0.0,0.0,0.0,0.0,0.0,0.0,0.0,0.0,0.0,0.0,0.0,0.0,0.0,0.0,0.0,0.0,0.0,0.0,0.0,0.0,0.0,0.0,0.0,0.0,0.0,0.0,0.0,0.0,0.0,0.0,0.0,0.0,0.0,0.0,0.0,0.0,0.0,0.0,0.0,0.0,0.0,0.0,0.0,0.0,0.0,0.0,0.0,0.0,0.0,0.0,0.0,0.0,0.0,0.0,0.0,0.0,0.0,0.0,0.0,0.0,0.0,0.0,0.0,0.0,0.0,0.0,0.0,0.0,0.0,0.0,0.0,0.0,0.0,0.0,0.0,0.0,0.0,0.0,0.0,0.0,0.0,0.0,0.0,0.0,0.0,0.0,0.0,0.0,0.0,0.0,0.0,0.0,0.0,0.0,0.0,0.0,0.0,-3.9625,-4.2097,-4.4469,-4.5624,-4.5408,-4.2403,-3.91,0.0,0.0,0.0,0.0,0.0,0.0,0.0,0.0,0.0,0.0,0.0,0.0,0.0,0.0,0.0,0.0,0.0,0.0,0.0,0.0,0.0,0.0,0.0,0.0,0.0,0.0,0.0,0.0,0.0,0.0,0.0,0.0,0.0,0.0,0.0,0.0,0.0,0.0,0.0,0.0,0.0,0.0,0.0,0.0,0.0,0.0,0.0,0.0,0.0,0.0,0.0,0.0,0.0,0.0,0.0,0.0,0.0,0.0,0.0,0.0,0.0,0.0,0.0,0.0,0.0,0.0,0.0,0.0,0.0,0.0,0.0,0.0,0.0,0.0,0.0,0.0,0.0,0.0,0.0,0.0,0.0,0.0,0.0,0.0,0.0,0.0,0.0,0.0,0.0,0.0,0.0,0.0,0.0,0.0,0.0,0.0,0.0,0.0,0.0,0.0,0.0,0.0,0.0,0.0,0.0,0.0,0.0,0.0,-4.0521,-4.2984,-4.4769,-4.5629,-4.5485,-4.349,-4.0498,0.0,0.0,0.0,0.0,0.0,0.0,0.0,0.0,0.0,0.0,0.0,0.0,0.0,0.0,0.0,0.0,0.0,0.0,0.0,0.0,0.0,0.0,0.0,0.0,0.0,0.0,0.0,0.0,0.0,0.0,0.0,0.0,0.0,0.0,0.0,0.0,0.0,0.0,0.0,0.0,0.0,0.0,0.0,0.0,0.0,0.0,0.0,0.0,-2.5326,0.0,0.0,0.0,0.0,0.0,0.0,0.0,0.0,0.0,0.0,0.0,0.0,0.0,0.0,0.0,0.0,0.0,0.0,0.0,0.0,0.0,0.0,0.0,0.0,0.0,0.0,0.0,0.0,0.0,0.0,0.0,0.0,0.0,0.0,0.0,0.0,0.0,0.0,0.0,0.0,0.0,0.0,0.0,0.0,0.0,0.0,0.0,0.0,0.0,0.0,0.0,0.0,0.0,0.0,0.0,0.0,0.0,0.0,0.0,-4.0942,-4.3737,-4.5052,-4.5612,-4.5428,-4.4575,-4.1856,0.0,0.0,0.0,0.0,0.0,0.0,0.0,0.0,0.0,0.0,0.0,0.0,0.0,0.0,0.0,0.0,0.0,0.0,0.0,0.0,0.0,0.0,0.0,0.0,0.0,0.0,0.0,0.0,0.0,0.0,0.0,0.0,0.0,0.0,0.0,0.0,0.0,0.0,0.0,0.0,0.0,0.0,0.0,0.0,0.0,0.0,0.0,0.0,0.0,0.0,0.0,0.0,0.0,0.0,0.0,0.0,0.0,0.0,0.0,0.0,0.0,0.0,0.0,0.0,0.0,0.0,0.0,0.0,0.0,0.0,0.0,0.0,0.0,0.0,0.0,0.0,0.0,0.0,0.0,0.0,0.0,0.0,0.0,0.0,0.0,0.0,0.0,0.0,0.0,0.0,0.0,0.0,0.0,0.0,0.0,0.0,0.0,0.0,0.0,0.0,0.0,0.0,0.0,0.0,0.0,0.0,0.0,-3.8013,-4.1104,-4.4639,-4.5354,-4.5596,-4.541,-4.5419,-4.291,-3.7709,0.0,0.0,0.0,0.0,0.0,0.0,0.0,0.0,0.0,0.0,0.0,0.0,0.0,0.0,0.0,0.0,0.0,0.0,0.0,0.0,0.0,0.0,0.0,0.0,0.0,0.0,0.0,0.0,0.0,0.0,0.0,0.0,0.0,0.0,0.0,0.0,0.0,0.0,-2.5838,-2.7291,0.0,0.0,0.0,0.0,0.0,0.0,0.0,0.0,-2.6325,0.0,0.0,0.0,0.0,0.0,0.0,0.0,0.0,0.0,0.0,0.0,0.0,0.0,0.0,0.0,0.0,0.0,0.0,0.0,0.0,0.0,0.0,0.0,0.0,0.0,0.0,0.0,0.0,0.0,0.0,0.0,0.0,0.0,0.0,0.0,0.0,0.0,0.0,0.0,0.0,0.0,0.0,0.0,0.0,0.0,0.0,0.0,0.0,0.0,0.0,0.0,0.0,0.0,0.0,0.0,0.0,-3.9715,-3.8911,-4.1059,-4.6383,-4.59,-4.5495,-4.541,-4.5419,-4.2889,-3.7756,0.0,0.0,0.0,0.0,0.0,0.0,0.0,0.0,0.0,0.0,0.0,0.0,0.0,0.0,0.0,0.0,0.0,0.0,0.0,0.0,0.0,0.0,0.0,0.0,0.0,0.0,0.0,0.0,0.0,0.0,0.0,0.0,0.0,0.0,0.0,0.0,0.0,0.0,0.0,-2.9127,-3.0193,0.0,0.0,0.0,0.0,0.0,0.0,0.0,0.0,-2.676,0.0,0.0,0.0,0.0,0.0,0.0,0.0,0.0,0.0,0.0,0.0,0.0,0.0,0.0,0.0,0.0,0.0,0.0,0.0,0.0,0.0,0.0,0.0,0.0,0.0,0.0,0.0,0.0,0.0,0.0,0.0,0.0,0.0,0.0,0.0,0.0,0.0,0.0,0.0,0.0,0.0,0.0,0.0,0.0,0.0,0.0,0.0,0.0,0.0,0.0,0.0,0.0,0.0,0.0,0.0,-3.7335,-3.9199,-4.1815,-4.53,-4.5352,-4.5191,-4.4958,-4.3814,-4.1354,0.0,0.0,0.0,0.0,0.0,0.0,0.0,0.0,0.0,0.0,0.0,0.0,0.0,0.0,0.0,0.0,0.0,0.0,0.0,0.0,0.0,0.0,0.0,0.0,0.0,0.0,0.0,0.0,0.0,0.0,0.0,0.0,0.0,0.0,0.0,0.0,0.0,0.0,0.0,0.0,-2.9758,-3.0819,-3.0423,0.0,0.0,0.0,0.0,0.0,0.0,-2.7296,-2.7029,0.0,0.0,0.0,0.0,0.0,0.0,0.0,0.0,0.0,0.0,0.0,0.0,0.0,0.0,0.0,0.0,0.0,0.0,0.0,0.0,0.0,0.0,0.0,0.0,0.0,0.0,0.0,0.0,0.0,0.0,0.0,0.0,0.0,0.0,0.0,0.0,0.0,0.0,0.0,0.0,0.0,0.0,0.0,0.0,0.0,0.0,0.0,0.0,0.0,0.0,0.0,0.0,0.0,0.0,0.0,-3.4696,-3.9039,-4.2264,-4.4173,-4.4949,-4.5109,-4.4606,-4.2765,-4.0359,0.0,0.0,0.0,0.0,0.0,0.0,0.0,0.0,0.0,0.0,0.0,0.0,0.0,0.0,0.0,0.0,0.0,0.0,0.0,0.0,0.0,0.0,0.0,0.0,0.0,0.0,0.0,0.0,0.0,0.0,0.0,0.0,0.0,0.0,0.0,0.0,0.0,0.0,0.0,0.0,0.0,-3.14,-3.1218,-3.1007,0.0,0.0,0.0,0.0,-2.7401,-2.7482,0.0,0.0,0.0,0.0,0.0,0.0,0.0,0.0,0.0,0.0,0.0,0.0,0.0,0.0,0.0,0.0,0.0,0.0,0.0,0.0,0.0,0.0,0.0,0.0,0.0,0.0,0.0,0.0,0.0,0.0,0.0,0.0,0.0,0.0,0.0,0.0,0.0,0.0,0.0,0.0,0.0,0.0,0.0,0.0,0.0,0.0,0.0,0.0,0.0,0.0,0.0,0.0,0.0,0.0,0.0,0.0,-3.5392,-3.8157,-4.1391,-4.4958,-4.5734,-4.5625,-4.4707,-4.425,-4.1927,0.0,0.0,0.0,0.0,0.0,0.0,0.0,0.0,0.0,0.0,0.0,0.0,0.0,0.0,0.0,0.0,0.0,0.0,0.0,0.0,0.0,0.0,0.0,0.0,0.0,0.0,0.0,0.0,0.0,0.0,0.0,0.0,0.0,0.0,0.0,0.0,0.0,0.0,0.0,0.0,0.0,-3.2682,-3.0779,-3.068,-3.0644,0.0,0.0,-2.8472,-2.9096,-2.9069,0.0,0.0,0.0,0.0,0.0,0.0,0.0,0.0,0.0,0.0,0.0,0.0,0.0,0.0,0.0,0.0,0.0,0.0,0.0,0.0,0.0,0.0,0.0,0.0,0.0,0.0,0.0,0.0,0.0,0.0,0.0,0.0,0.0,0.0,0.0,0.0,0.0,0.0,0.0,0.0,0.0,0.0,0.0,0.0,0.0,0.0,0.0,0.0,0.0,0.0,0.0,0.0,0.0,0.0,0.0,-3.1782,-3.4149,-3.7874,-4.1026,-4.3441,-4.4121,-4.4127,-4.3467,-4.2104,-3.9595,0.0,0.0,0.0,0.0,0.0,0.0,0.0,0.0,0.0,0.0,0.0,0.0,0.0,0.0,0.0,0.0,0.0,0.0,0.0,0.0,0.0,0.0,0.0,0.0,0.0,0.0,0.0,0.0,0.0,0.0,0.0,0.0,0.0,0.0,0.0,0.0,0.0,0.0,0.0,0.0,0.0,0.0,-3.2408,-3.2176,0.0,0.0,0.0,-2.9179,-2.9468,0.0,0.0,0.0,0.0,0.0,0.0,0.0,0.0,0.0,0.0,0.0,0.0,0.0,0.0,0.0,0.0,0.0,0.0,0.0,0.0,0.0,0.0,0.0,0.0,0.0,0.0,0.0,0.0,0.0,0.0,0.0,0.0,0.0,0.0,0.0,0.0,0.0,0.0,0.0,0.0,0.0,0.0,0.0,0.0,0.0,0.0,0.0,0.0,0.0,0.0,0.0,0.0,0.0,0.0,0.0,0.0,0.0,-3.2954,-3.7477,-4.0561,-4.204,-4.2709,-4.2857,-4.2493,-4.0426,0.0,0.0,0.0,0.0,0.0,0.0,0.0,0.0,0.0,0.0,0.0,0.0,0.0,0.0,0.0,0.0,0.0,0.0,0.0,0.0,0.0,0.0,0.0,0.0,0.0,0.0,0.0,-2.117,0.0,0.0,0.0,0.0,0.0,0.0,0.0,0.0,0.0,0.0,0.0,0.0,0.0,0.0,-3.3355,-3.3424,-3.3302,-3.302,0.0,0.0,-2.9742,-2.9658,-2.9023,-2.8178,0.0,0.0,0.0,0.0,0.0,0.0,0.0,0.0,0.0,0.0,0.0,0.0,0.0,0.0,0.0,0.0,0.0,0.0,0.0,0.0,0.0,0.0,0.0,0.0,0.0,0.0,0.0,0.0,0.0,0.0,0.0,0.0,0.0,0.0,0.0,0.0,0.0,0.0,0.0,0.0,0.0,0.0,0.0,0.0,0.0,0.0,0.0,0.0,0.0,0.0,0.0,0.0,0.0,0.0,0.0,-3.2621,-3.6718,-3.9805,-4.1669,-4.2449,-4.275,-4.2562,-4.0817,-3.8442,0.0,0.0,0.0,0.0,0.0,0.0,0.0,0.0,0.0,0.0,0.0,0.0,0.0,0.0,0.0,0.0,0.0,0.0,0.0,0.0,0.0,0.0,0.0,0.0,0.0,0.0,0.0,0.0,0.0,0.0,0.0,0.0,0.0,0.0,0.0,0.0,0.0,0.0,0.0,0.0,0.0,-3.3371,-3.2525,-3.322,-3.358,0.0,0.0,-2.9973,-2.9973,-2.9902,-2.925,-2.7387,0.0,0.0,0.0,0.0,0.0,0.0,0.0,0.0,0.0,0.0,0.0,0.0,0.0,0.0,0.0,0.0,0.0,0.0,0.0,0.0,0.0,0.0,0.0,0.0,0.0,0.0,0.0,0.0,0.0,0.0,0.0,0.0,0.0,0.0,0.0,0.0,0.0,0.0,0.0,0.0,0.0,0.0,0.0,0.0,0.0,0.0,0.0,0.0,0.0,0.0,0.0,0.0,0.0,-3.0145,-3.3208,-3.5596,-3.8119,-4.071,-4.1033,-4.1073,-4.0993,-4.032,-3.8122,0.0,0.0,0.0,0.0,0.0,0.0,0.0,0.0,0.0,0.0,0.0,0.0,0.0,0.0,0.0,0.0,0.0,0.0,0.0,0.0,0.0,0.0,0.0,0.0,0.0,0.0,0.0,0.0,-2.3786,-2.3787,-2.3132,0.0,0.0,0.0,0.0,0.0,0.0,0.0,0.0,0.0,0.0,-3.2965,-3.36,-3.3443,0.0,0.0,-3.2247,-3.1203,-3.1244,-2.9831,-2.8403,-2.7545,-2.4464,0.0,0.0,0.0,0.0,0.0,0.0,0.0,0.0,0.0,0.0,0.0,0.0,0.0,0.0,0.0,0.0,0.0,0.0,0.0,0.0,0.0,0.0,0.0,0.0,0.0,0.0,0.0,0.0,0.0,0.0,0.0,0.0,0.0,0.0,0.0,0.0,0.0,0.0,0.0,0.0,0.0,0.0,0.0,0.0,0.0,0.0,0.0,0.0,0.0,0.0,0.0,0.0,-2.9977,-3.345,-3.4854,-3.7048,-4.0107,-3.9849,-3.9765,-3.9942,-3.9498,-3.7563,0.0,0.0,0.0,0.0,0.0,0.0,0.0,0.0,0.0,0.0,0.0,0.0,0.0,0.0,0.0,0.0,0.0,0.0,0.0,0.0,0.0,0.0,0.0,0.0,0.0,0.0,0.0,0.0,-2.4641,-2.4265,-2.3205,0.0,0.0,0.0,0.0,0.0,0.0,0.0,0.0,0.0,0.0,-3.3038,-3.3907,-3.3687,-3.3528,-3.3748,-3.258,-3.1663,-3.1648,-2.9828,-2.8162,-2.7425,0.0,0.0,0.0,0.0,0.0,0.0,0.0,0.0,0.0,0.0,0.0,0.0,0.0,0.0,0.0,0.0,0.0,0.0,0.0,0.0,0.0,0.0,0.0,0.0,0.0,0.0,0.0,0.0,0.0,0.0,-3.0398,0.0,0.0,0.0,0.0,0.0,0.0,0.0,0.0,0.0,0.0,0.0,0.0,0.0,0.0,0.0,0.0,0.0,0.0,0.0,0.0,0.0,0.0,-3.0918,-3.3007,-3.4624,-3.6855,-3.9764,-3.9129,-3.9093,-3.9824,-3.8392,-3.6864,-3.533,0.0,0.0,0.0,0.0,0.0,0.0,0.0,0.0,0.0,0.0,0.0,0.0,0.0,0.0,0.0,0.0,0.0,0.0,0.0,0.0,0.0,0.0,0.0,0.0,0.0,0.0,-2.5329,-2.3988,-2.3097,0.0,0.0,0.0,0.0,0.0,0.0,0.0,0.0,0.0,0.0,-3.232,-3.3788,-3.2926,-3.3979,-3.4434,-3.3297,-3.1847,-3.0853,-3.0894,-3.0099,-2.8916,0.0,0.0,0.0,0.0,0.0,0.0,0.0,0.0,0.0,0.0,0.0,0.0,0.0,0.0,0.0,0.0,0.0,0.0,0.0,0.0,0.0,0.0,0.0,0.0,0.0,0.0,0.0,-3.4205,-3.2891,0.0,0.0,0.0,0.0,0.0,0.0,0.0,0.0,0.0,0.0,0.0,-3.3513,-3.5356,0.0,0.0,0.0,0.0,0.0,0.0,0.0,0.0,0.0,0.0,0.0,0.0,-3.0499,-3.3669,-3.4652,-3.6407,-3.9001,-3.8854,-3.8836,-3.9093,-3.8579,-3.7131,-3.4661,0.0,0.0,0.0,0.0,0.0,0.0,0.0,0.0,0.0,0.0,0.0,0.0,0.0,0.0,0.0,0.0,0.0,0.0,0.0,0.0,0.0,0.0,0.0,0.0,0.0,-2.524,0.0,0.0,0.0,0.0,0.0,0.0,0.0,0.0,0.0,0.0,0.0,-3.1071,-3.1996,-3.2907,-3.345,-3.3441,-3.3408,-3.3289,0.0,0.0,0.0,0.0,0.0,0.0,0.0,0.0,0.0,0.0,0.0,0.0,0.0,0.0,-1.9324,-1.7209,-1.655,-1.6253,-1.6141,0.0,0.0,0.0,0.0,0.0,0.0,0.0,0.0,0.0,0.0,0.0,0.0,0.0,0.0,-3.6779,0.0,-3.5412,0.0,0.0,0.0,0.0,0.0,0.0,0.0,0.0,-3.7166,-3.8037,-3.6829,-3.8497,-3.8288,0.0,-3.6678,-3.4287,0.0,0.0,0.0,0.0,0.0,0.0,0.0,0.0,-3.137,-3.4019,-3.5275,-3.6798,-3.8597,-3.8707,-3.8735,-3.8837,-3.8366,-3.7082,-3.491,-3.2449,-3.0774,0.0,0.0,0.0,0.0,0.0,0.0,0.0,0.0,0.0,0.0,0.0,0.0,0.0,0.0,0.0,0.0,0.0,0.0,0.0,0.0,0.0,0.0,0.0,-2.5643,0.0,0.0,0.0,0.0,0.0,0.0,0.0,0.0,0.0,-2.962,-3.0879,-3.2053,-3.3072,-3.3181,-3.3187,-3.3375,0.0,0.0,0.0,0.0,0.0,0.0,0.0,-2.8014,-2.7597,-2.5997,-2.4518,-2.3763,-2.3355,-2.2587,-2.098,0.0,0.0,-1.7696,-1.6913,-1.6531,-1.646,-1.6411,-1.612,-1.5377,-1.5223,-1.4939,0.0,0.0,0.0,0.0,0.0,0.0,0.0,0.0,-3.9399,-3.8881,0.0,-3.8005,0.0,0.0,0.0,0.0,0.0,-3.554,0.0,0.0,-4.0283,-4.1543,-4.0804,-4.0969,-4.033,-3.9033,-3.9566,-3.8279,-3.5323,-3.3639,0.0,0.0,0.0,0.0,0.0,0.0,-3.3538,-3.4092,-3.6291,-3.7878,-3.867,-3.8707,-3.8788,-3.898,-3.7673,-3.6671,-3.6052,-3.4387,-3.2533,-3.0445,-2.9389,0.0,0.0,0.0,0.0,0.0,0.0,0.0,0.0,0.0,0.0,0.0,0.0,0.0,0.0,0.0,0.0,0.0,0.0,0.0,0.0,-2.6146,0.0,0.0,0.0,0.0,0.0,0.0,0.0,0.0,0.0,0.0,-3.1476,-3.1638,-3.2012,-3.2996,0.0,0.0,0.0,0.0,-3.2648,-3.2843,-3.216,-3.1646,-3.1599,-3.032,-2.8904,-2.7596,0.0,0.0,-2.4687,-2.3988,-2.2954,-2.0625,-1.9873,-1.9348,-1.8857,-1.8132,-1.7605,-1.7476,-1.736,-1.7031,-1.6095,-1.5811,-1.554,-4.3453,0.0,0.0,0.0,0.0,-4.0811,-4.1453,-4.2844,-4.2844,-4.1999,-4.0606,-4.0595,0.0,0.0,0.0,0.0,0.0,0.0,-3.8047,-3.9037,-4.0632,-4.1321,-4.1233,-4.1248,-4.0777,-3.9907,-3.9526,-3.8532,-3.7041,-3.6509,-3.456,-3.1362,0.0,0.0,0.0,0.0,-3.4537,-3.5866,-3.6947,-3.7896,-3.8689,-3.8707,-3.8459,-3.7974,-3.6599,-3.5853,-3.5805,-3.37,-3.2646,-3.2844,-3.0338,0.0,0.0,0.0,0.0,0.0,0.0,0.0,0.0,0.0,0.0,0.0,0.0,0.0,0.0,0.0,0.0,0.0,0.0,0.0,-2.6127,-2.6936,-2.7242,0.0,0.0,0.0,0.0,0.0,0.0,0.0,0.0,0.0,-3.1939,-3.2324,-3.2635,0.0,0.0,-3.2867,-3.2009,-3.2214,-3.2496,-3.2535,0.0,0.0,0.0,-2.9899,-2.8396,-2.7534,-2.658,-2.5703,-2.5096,-2.4249,-2.3244,-2.204,-2.0518,-1.9376,-1.9204,-1.8392,-1.7706,-1.7529,-1.744,-1.7162,-1.6488,-1.6315,-1.612,-4.4807,-4.3245,-4.2365,-4.2475,-4.3197,-4.2864,-4.3517,-4.4765,-4.4793,-4.4178,-4.3208,-4.3244,-4.108,-3.7382,-3.6842,0.0,0.0,0.0,-3.9362,-4.0866,-4.1429,-4.1772,-4.1846,-4.1266,-4.0557,-3.9806,-3.8984,-3.8108,-3.7234,-3.7884,-3.6871,-3.4296,0.0,0.0,-3.3448,-3.4603,-3.5702,-3.6675,-3.7561,-3.8272,-3.8833,-3.9059,-3.8625,-3.7439,-3.662,-3.599,-3.5501,-3.4025,-3.3308,-3.3455,-3.1534,-2.9586,0.0,0.0,0.0,0.0,0.0,0.0,0.0,0.0,0.0,0.0,0.0,-2.43,-2.3969,0.0,0.0,0.0,-2.5968,-2.6541,-2.7791,-2.862,0.0,0.0,0.0,0.0,0.0,0.0,0.0,-3.0346,-3.0795,-3.1336,-3.2192,-3.2541,-3.2722,-3.2688,-3.2574,-3.2242,-3.1604,0.0,-3.2025,-3.1997,-3.1782,-3.1382,-3.0705,-2.915,-2.7703,-2.6696,-2.5672,-2.505,-2.5235,-2.428,-2.3158,-2.2108,-2.0741,-1.9509,-1.8905,-1.8406,-1.7975,-1.759,-1.7468,-1.7233,-1.6616,-1.6513,-1.6371,-4.5665,-4.5539,-4.4713,-4.483,-4.55,-4.4725,-4.4803,-4.5485,-4.5504,-4.5504,-4.5504,-4.5577,-4.3825,-4.0662,-3.8014,0.0,-3.9162,-3.9848,-4.101,-4.2458,-4.2631,-4.2657,-4.2456,-4.1117,-3.9997,-3.9062,-3.8199,-3.7422,-3.6825,-3.8247,-3.8238,-3.6844,-3.6806,-3.624,-3.5258,-3.6384,-3.6968,-3.6863,-3.8102,-3.8851,-3.9101,-3.9635,-3.9047,-3.732,-3.721,-3.6483,-3.5132,-3.4736,-3.3986,-3.2764,-3.2634,-3.1171,-2.8077,0.0,0.0,0.0,0.0,0.0,0.0,0.0,0.0,0.0,0.0,0.0,0.0,0.0,0.0,0.0,-2.8085,0.0,-3.0033,-3.0823,0.0,0.0,0.0,-3.107,-3.0058,-3.1401,-3.1868,-3.0525,0.0,0.0,-3.2226,-3.2343,-3.2241,-3.1806,-3.1565,-3.1446,-3.1347,-3.1332,-3.1347,-3.1305,-3.0812,-3.0156,-2.9489,-2.815,-2.678,-2.5619,-2.4764,-2.4558,-2.4958,-2.4081,-2.2707,-2.144,-2.0527,-1.9622,-1.8225,-1.8426,-1.8478,-1.7651,-1.7569,-1.7389,-1.6859,-1.6721,-1.6613,-4.565,-4.5569,-4.5273,-4.5256,-4.5419,-4.5237,-4.5275,-4.5504,-4.5504,-4.5541,-4.5577,-4.5586,-4.4786,-4.3297,-4.1371,-4.1415,-4.2973,-4.3148,-4.3446,-4.381,-4.381,-4.3101,-4.1801,-4.0814,-3.9895,-3.899,-3.814,-3.7969,-3.84,-3.8801,-3.9145,-3.9403,-3.9384,-3.8611,-3.7116,-3.767,-3.8033,-3.8146,-3.871,-3.9031,-3.9115,-3.9635,-3.9002,-3.7115,-3.5897,-3.4778,-3.377,-3.2524,-3.2052,-3.2438,-3.2027,-3.1102,-2.965,-2.6648,0.0,0.0,0.0,0.0,0.0,0.0,0.0,0.0,0.0,-2.6917,-2.5503,0.0,-2.7032,0.0,-2.9684,-3.0901,-3.1742,-3.1956,0.0,0.0,-3.3419,-3.3213,-3.3759,-3.2952,-3.2178,-3.1839,-3.1599,-3.1444,-3.1444,-3.1178,-3.0841,-3.0395,-3.1317,-3.1696,-3.0814,-3.0617,-3.0617,-3.0612,-3.0432,-2.9971,-2.871,-2.7003,-2.5718,-2.5364,-2.4743,-2.4379,-2.4497,-2.346,-2.2244,-2.1364,-2.0194,-1.93,-1.8846,-1.8486,-1.8018,-1.7624,-1.7862,-1.811,-1.7791,-1.7704,-1.7682,-4.5687,-4.563,-4.5448,-4.5361,-4.541,-4.5476,-4.5495,-4.5504,-4.5541,-4.5568,-4.5594,-4.521,-4.4739,-4.422,-4.297,-4.3085,-4.4259,-4.4266,-4.4047,-4.3682,-4.3608,-4.267,-4.1006,-4.0154,-3.9513,-3.9028,-3.8122,-3.796,-3.8419,-3.8801,-3.926,-3.9709,-4.011,-3.9613,-3.8353,-3.8384,-3.8493,-3.8601,-3.8778,-3.8877,-3.8908,-3.967,-3.8788,-3.6176,-3.5674,-3.4462,-3.2449,-3.1937,-3.1788,-3.1982,-3.1669,-3.1102,-3.0211,-2.7608,-2.587,0.0,0.0,0.0,0.0,0.0,0.0,0.0,0.0,0.0,0.0,0.0,-2.8742,-3.0279,-3.1456,-3.2468,-3.3295,-3.3974,-3.4731,-3.5593,-3.4995,-3.4699,-3.516,-3.3461,-3.2293,-3.2276,-3.1379,-3.07,-3.07,-3.0488,-3.0152,-2.9639,-3.0366,-3.0736,-3.0107,-2.971,-2.9494,-2.9494,-2.9027,-2.8273,-2.718,-2.5804,-2.4958,-2.5173,-2.4743,-2.4281,-2.4251,-2.3194,-2.2033,-2.1154,-1.9957,-1.903,-1.8855,-1.857,-1.8221,-1.8095,-1.8198,-1.8198,-1.7791,-1.7917,-1.81,-4.5717,-4.5689,-4.541,-4.535,-4.541,-4.5531,-4.5559,-4.5513,-4.5577,-4.5556,-4.5383,-4.4528,-4.4143,-4.4085,-4.3412,-4.347,-4.4135,-4.4085,-4.3646,-4.2917,-4.2823,-4.1972,-4.0441,-3.9733,-3.935,-3.9216,-3.8426,-3.8037,-3.8056,-3.8801,-3.9126,-3.903,-3.9766,-3.969,-3.8868,-3.8498,-3.8357,-3.8399,-3.8357,-3.8346,-3.8367,-3.9308,-3.8242,-3.5116,-3.5623,-3.448,-3.1408,-3.2053,-3.2191,-3.1531,-3.1584,-3.1255,-3.0376,-2.8663,-2.7551,0.0,-2.6294,0.0,0.0,0.0,0.0,0.0,0.0,0.0,0.0,-2.9789,-3.0907,-3.2173,-3.2969,-3.3683,-3.4389,-3.5711,-3.6412,-3.6111,-3.565,-3.5206,-3.4805,-3.316,-3.2022,-3.2022,-3.0801,-2.9973,-2.9973,-2.9956,-2.9748,-2.9261,-2.9246,-2.9285,-2.9124,-2.8633,-2.8245,-2.8143,-2.7072,-2.6257,-2.5595,-2.482,-2.4497,-2.4979,-2.4456,-2.4071,-2.3963,-2.2871,-2.1719,-2.082,-1.9808,-1.9021,-1.8635,-1.8664,-1.858,-1.8392,-1.8273,-1.8073,-1.761,-1.7795,-1.8074,-4.5777,-4.5743,-4.5504,-4.539,-4.541,-4.5495,-4.5531,-4.5577,-4.5586,-4.521,-4.4489,-4.3682,-4.3335,-4.3316,-4.3162,-4.3181,-4.3335,-4.3256,-4.3134,-4.2961,-4.2861,-4.2278,-4.137,-4.115,-4.0692,-4.009,-3.989,-3.9804,-3.9814,-3.9976,-3.9699,-3.9011,-3.9183,-3.882,-3.796,0.0,0.0,0.0,-3.7024,-3.6955,-3.7063,-3.7155,-3.6479,-3.4927,-3.3778,0.0,-3.1295,-3.1396,-3.1431,-3.1298,-3.2027,0.0,0.0,0.0,0.0,0.0,0.0,0.0,0.0,0.0,0.0,0.0,-3.0546,-3.0137,-2.901,-3.0709,-3.1969,-3.2226,-3.2955,-3.3465,-3.361,-3.3882,-3.4304,-3.4808,-3.3768,-3.295,-3.2809,-3.1481,-3.0531,-3.0497,-2.9736,-2.9196,-2.9194,-2.9213,-2.9013,-2.8544,-2.8497,-2.8341,-2.8003,-2.7563,-2.7139,-2.6725,-2.6055,-2.5487,-2.5312,-2.4718,-2.4271,-2.4348,-2.344,-2.2778,-2.2624,-2.1642,-2.0751,-2.0365,-1.9674,-1.9101,-1.8988,-1.8489,-1.8052,-1.7751,-1.7703,-1.7733,-1.795,-1.8061,-1.81,-4.619,0.0,-4.5456,-4.537,0.0,-4.5438,-4.5504,-4.5594,-4.5594,-4.5344,-4.4874,-4.4047,-4.3682,-4.3682,-4.3242,-4.3041,-4.3052,-4.2944,-4.2697,-4.2313,-4.2202,-4.1724,-4.095,-4.0931,-4.0683,-4.032,-4.032,-4.032,-4.032,-4.032,-4.0072,-3.9652,-3.9221,-3.8572,-3.7674,-3.6489,-3.5936,-3.613,-3.6366,-3.6473,-3.6412,-3.6765,-3.6037,-3.4177,0.0,0.0,0.0,0.0,0.0,0.0,0.0,0.0,0.0,0.0,0.0,-3.0049,-2.9722,-2.9692,-3.0022,-3.0478,-3.0925,-3.1283,-3.1602,-3.1276,-3.0023,-3.1374,-3.2258,-3.2198,-3.2578,-3.314,-3.39,-3.3647,-3.3719,-3.4395,-3.2893,-3.1772,-3.1617,-3.0453,-2.9585,-2.9482,-2.8873,-2.8416,-2.8416,-2.8062,-2.7788,-2.754,-2.752,-2.7358,-2.6946,-2.6808,-2.6559,-2.5983,-2.5462,-2.5108,-2.5025,-2.4343,-2.381,-2.3671,-2.2963,-2.2243,-2.184,-2.1242,-2.072,-2.0377,-1.9797,-1.9328,-1.9101,-1.8606,-1.8109,-1.7774,-1.7591,-1.7575,-1.7832,-1.7986,-1.81,-4.6602,-4.579,-4.5446,-4.5351,-4.5419,-4.5419,-4.5495,-4.5575,0.0,0.0,0.0,-4.4085,-4.3624,-4.3585,-4.2887,-4.2554,-4.2565,-4.2439,-4.2038,-4.1397,-4.1323,-4.0941,-4.032,-4.031,-4.032,-4.032,-4.032,-4.032,-4.032,-4.032,-4.0129,-3.9814,-3.9126,-3.8247,-3.7234,-3.5878,-3.5193,-3.5187,-3.5891,-3.6119,-3.5775,-3.6404,-3.5568,-3.3129,-3.3129,-3.25,-3.1081,-3.1283,-3.1801,-3.2642,-3.2852,-3.2928,-3.2928,-3.2795,-3.2626,-3.2495,-3.2874,-3.2814,-3.2124,-3.2582,-3.2566,-3.179,-3.2211,-3.2292,-3.1738,-3.2136,-3.2415,-3.2397,-3.2397,-3.2904,-3.4063,-3.3447,-3.3302,-3.4048,-3.2018,-3.0612,-3.0668,-2.9472,-2.857,-2.8519,-2.7994,-2.7604,-2.7587,-2.7131,-2.6708,-2.6691,-2.6624,-2.6404,-2.6111,-2.6185,-2.6083,-2.5516,-2.5128,-2.491,-2.4665,-2.3989,-2.3337,-2.3317,-2.2675,-2.1935,-2.1458,-2.1196,-2.0903,-2.0379,-1.9973,-1.9563,-1.9176,-1.8779,-1.8372,-1.7929,-1.7652,-1.7475,-1.7474,-1.7718,-1.7904,-4.6632,-4.5865,-4.5516,-4.5438,-4.5475,-4.5466,-4.5541,-4.547,-4.4085,-4.3451,-4.3335,-4.1747,-4.1016,-4.1035,-4.0893,-4.0849,-4.0847,-4.0831,-4.0729,0.0,-4.0488,-4.0394,-4.0317,-4.031,-4.032,-4.032,-4.032,-4.032,-4.032,-4.032,-3.9565,-3.8247,-3.7941,-3.712,-3.5668,-3.5324,-3.5115,-3.4955,-3.5249,-3.5097,-3.4489,-3.4249,-3.3525,-3.2243,-3.1732,-3.1092,-3.0398,-3.1087,-3.1859,-3.2661,-3.3414,-3.3815,-3.3796,-3.31,-3.2684,-3.2661,-3.2583,-3.2694,-3.3058,-3.3648,-3.3789,-3.3414,-3.334,-3.3535,-3.4042,-3.3574,-3.323,-3.3212,-3.3121,-3.3013,-3.2596,-3.1836,-3.1705,-3.2224,-2.9953,-2.8486,-2.9136,-2.7991,-2.7114,-2.7131,-2.6945,-2.686,-2.6894,-2.6793,-2.6674,-2.659,-2.6099,-2.5711,-2.5648,-2.5631,-2.547,-2.5111,-2.4942,-2.4759,-2.4335,-2.3778,-2.3255,-2.3286,-2.2228,-2.1396,-2.1257,-2.0826,-2.0489,-2.0318,-1.9993,-1.9599,-1.9161,-1.8765,-1.8319,-1.7781,-1.757,-1.7455,-1.731,-1.7358,-1.7369,-4.7323,-4.6486,-4.5725,-4.5438,-4.5504,-4.5531,-4.5577,-4.5432,-4.378,-4.3338,-4.3566,-4.195,-4.12,-4.1162,-4.0715,-4.0507,-4.0502,-4.0477,-4.0415,-4.0334,-4.0316,-4.0308,-4.0319,-4.031,-4.032,-4.032,-4.032,-4.032,-4.032,-4.032,-3.9881,-3.9069,-3.819,-3.7101,-3.5946,-3.543,-3.5149,-3.5072,-3.5168,-3.4926,-3.4394,-3.4317,-3.3828,-3.2911,-3.2183,-3.1735,-3.1572,-3.1484,-3.184,-3.268,-3.3081,-3.3299,-3.3272,-3.2909,-3.268,-3.2691,-3.2406,-3.2344,-3.263,-3.304,-3.3198,-3.3004,-3.2507,-3.2518,-3.323,-3.2958,-3.256,-3.2162,-3.2089,-3.1962,-3.1564,-3.0835,-3.0509,-3.0853,-2.9082,-2.8031,-2.807,-2.7149,-2.648,-2.6606,-2.6336,-2.6251,-2.664,-2.6708,-2.6505,-2.615,-2.5473,-2.5017,-2.5,-2.483,-2.4798,-2.4964,-2.5115,-2.4665,-2.376,-2.3119,-2.2663,-2.2305,-2.1411,-2.0844,-2.0734,-2.0441,-2.0333,-2.0287,-2.0115,-1.978,-1.925,-1.8969,-1.8514,-1.7915,-1.7666,-1.7543,-1.7419,-1.7303,-1.722,-4.7806,-4.6742,-4.5828,-4.5485,-4.5541,-4.5577,-4.5586,-4.5404,-4.3936,-4.3571,-4.3742,-4.2242,-4.15,-4.1423,-4.0803,-4.0499,-4.0502,-4.046,-4.0379,-4.0325,-4.0307,-4.0327,-4.032,-4.031,-4.032,-4.032,-4.032,-4.032,-4.032,-4.032,-4.0196,-3.9843,-3.8285,-3.712,-3.6481,-3.5621,-3.5166,-3.5132,-3.5185,-3.499,-3.4622,-3.4812,-3.4491,-3.3629,-3.2995,-3.2581,-3.2397,-3.1763,-3.1706,-3.2355,-3.2432,-3.2489,-3.268,-3.2527,-3.2508,-3.2619,-3.2217,-3.1986,-3.2074,-3.1991,-3.2012,-3.2097,-3.1164,-3.0879,-3.1565,-3.1487,-3.1329,-3.1039,-3.1075,-3.1039,-3.0962,-3.031,-2.9857,-2.997,-2.8721,-2.7832,-2.7637,-2.6611,-2.5899,-2.6113,-2.5845,-2.5778,-2.6132,-2.6353,-2.6048,-2.5186,-2.4745,-2.4506,-2.4274,-2.4074,-2.4232,-2.438,-2.4725,-2.4305,-2.2988,-2.2375,-2.1923,-2.135,-2.0764,-2.0426,-2.035,-2.0335,-2.0287,-2.0287,-2.0287,-1.994,-1.9306,-1.9097,-1.8721,-1.7975,-1.7699,-1.7584,-1.7427,-1.7145,-1.7081,-4.7522,-4.608,-4.5708,-4.5586,-4.5605,-4.5586,-4.5568,-4.5417,-4.4549,-4.3752,-4.3026,-4.1374,-4.0668,-4.0604,-4.0527,-4.0503,-4.051,-4.0502,-4.0449,-4.0379,-4.0325,-4.0326,-4.0308,-4.031,-4.032,-4.032,-4.032,-4.032,-4.032,-4.032,-3.9919,-3.9002,-3.7436,-3.6634,-3.6424,-3.566,-3.5107,-3.4945,-3.5107,-3.5098,-3.4898,-3.4898,-3.4491,-3.3638,-3.3524,-3.2845,-3.1737,-3.1439,-3.1465,-3.1599,-3.1618,-3.1943,-3.2489,-3.2,-3.1943,-3.2565,-3.1897,-3.1621,-3.1868,-3.0937,-3.0612,-3.1115,-2.978,-2.9282,-3.003,-2.9419,-2.9559,-3.0477,-3.0894,-3.093,-3.0948,-3.0255,-3.0038,-3.0387,-2.8586,-2.7272,-2.7433,-2.6138,-2.4925,-2.4706,-2.5186,-2.5389,-2.5015,-2.5287,-2.5101,-2.4002,-2.4085,-2.4068,-2.3632,-2.364,-2.3488,-2.2998,-2.295,-2.2927,-2.2325,-2.1821,-2.1442,-2.1242,-2.0751,-2.0381,-2.0287,-2.0287,-2.0287,-2.0287,-2.0287,-1.9993,-1.9417,-1.9064,-1.876,-1.7935,-1.7604,-1.7488,-1.7237,-1.6866,-1.6715,-4.7403,-4.6607,-4.5974,-4.5687,-4.5614,-4.5568,-4.5541,-4.5427,-4.4602,-4.3757,-4.2921,-4.1731,-4.0949,-4.0516,-4.0496,-4.05,-4.0503,-4.0499,-4.0458,-4.0407,-4.0344,-4.0308,-4.0319,-4.032,-4.032,-4.032,-4.032,-4.032,-4.032,-4.032,-4.011,-3.969,-3.8544,-3.7742,-3.7196,-3.6385,-3.5683,-3.51,-3.5149,-3.5149,-3.5108,-3.5081,-3.4909,-3.449,-3.3587,-3.3078,-3.2814,-3.1541,-3.093,-3.135,-3.1006,-3.0892,-3.1197,-3.0911,-3.0873,-3.1171,-3.0738,-3.0203,-2.9685,-2.9495,-2.9319,-2.9059,-2.7955,-2.761,-2.83,-2.7277,-2.7018,-2.8081,-2.9458,-3.0129,-2.9681,-2.9712,-2.9753,-2.945,-2.8137,-2.7181,-2.7046,-2.5561,-2.4514,-2.4496,-2.4357,-2.4408,-2.444,-2.4357,-2.4069,-2.3424,-2.3393,-2.3105,-2.282,-2.2754,-2.251,-2.2128,-2.1859,-2.1514,-2.1242,-2.1288,-2.1103,-2.078,-2.0487,-2.0287,-2.0287,-2.0287,-2.0287,-2.0287,-2.0287,-1.9993,-1.925,-1.9064,-1.8817,-1.8016,-1.757,-1.7468,-1.7337,-1.6808,-1.6605,-4.7412,-4.681,-4.6093,-4.5712,-4.5594,-4.5531,-4.5513,-4.5446,-4.4843,-4.3998,-4.2979,-4.2343,-4.1484,-4.0585,-4.0496,-4.0496,-4.0508,-4.0507,-4.0466,-4.0424,-4.0334,-4.0308,-4.031,-4.031,-4.032,-4.032,-4.032,-4.032,-4.032,-4.032,-4.032,-4.0186,-3.9431,-3.8572,-3.7712,-3.691,-3.608,-3.5278,-3.5182,-3.5182,-3.5182,-3.5182,-3.5182,-3.5087,-3.4036,-3.3605,-3.3918,-3.1981,-3.1045,-3.1369,-3.0643,-3.0204,-3.0204,-3.0204,-3.0204,-3.0152,-2.9728,-2.9088,-2.8146,-2.8062,-2.782,-2.7219,-2.627,-2.5941,-2.6365,-2.5506,-2.5045,-2.564,-2.7357,-2.8196,-2.8129,-2.8467,-2.8522,-2.7966,-2.7224,-2.6554,-2.6021,-2.4803,-2.3964,-2.3967,-2.3704,-2.3562,-2.3951,-2.3613,-2.3088,-2.3004,-2.2651,-2.2313,-2.2254,-2.2084,-2.1831,-2.1766,-2.1309,-2.0876,-2.054,-2.0694,-2.0738,-2.0533,-2.0287,-2.0287,-2.0287,-2.0287,-2.0287,-2.0287,-2.0287,-2.001,-1.9306,-1.9064,-1.8798,-1.8109,-1.7666,-1.7468,-1.7391,-1.6856,-1.6494,-4.768,-4.6209,-4.5879,-4.5712,-4.5594,-4.5586,-4.5559,-4.5504,-4.5482,-4.4579,-4.318,-4.3002,-4.2104,-4.0585,-4.0527,-4.0496,-4.0489,-4.0507,-4.0493,-4.0458,-4.0304,-4.0288,-4.0317,-4.031,-4.0301,-4.0301,-4.032,-4.032,-4.032,-4.032,-4.032,-4.0263,-3.9431,-3.8572,-3.7712,-3.6901,-3.6061,-3.5297,-3.5182,-3.5182,-3.5182,-3.5182,-3.5182,-3.5163,-3.5037,-3.456,-3.4025,-3.307,-3.2222,-3.1515,-3.0682,-3.0204,-3.0204,-3.0204,-3.0204,-3.0107,-2.9262,-2.8612,-2.8161,-2.6851,-2.6023,-2.6194,-2.5008,-2.4334,-2.5165,-2.4526,-2.4091,-2.4078,-2.4987,-2.5697,-2.6222,-2.662,-2.6638,-2.6475,-2.5685,-2.5138,-2.4807,-2.3991,-2.3137,-2.2974,-2.3144,-2.3289,-2.3393,-2.2801,-2.2513,-2.2431,-2.2347,-2.2313,-2.2268,-2.202,-2.1871,-2.1766,-2.1508,-2.1166,-2.0828,-2.0702,-2.0498,-2.032,-2.0287,-2.0287,-2.0287,-2.0287,-2.0287,-2.0287,-2.0287,-1.9993,-1.938,-1.8893,-1.8548,-1.8055,-1.7672,-1.7468,-1.7227,-1.6857,-1.6428,-4.67,-4.5969,-4.5828,-4.5712,-4.5614,-4.5559,-4.5541,-4.5504,-4.5541,-4.4898,-4.3871,-4.3319,-4.2423,-4.1245,-4.0737,-4.0487,-4.0507,-4.0458,-4.0424,-4.0294,-3.9753,-3.9765,-4.0214,-3.9756,-3.9804,-4.0244,-4.032,-4.032,-4.032,-4.032,-4.032,-4.0167,-3.9451,-3.8572,-3.7712,-3.6901,-3.608,-3.5278,-3.5182,-3.5182,-3.5182,-3.5182,-3.5182,-3.5125,-3.4132,-3.3968,-3.4751,-3.242,-3.1446,-3.2222,-3.0949,-3.0204,-3.0204,-3.0204,-3.0171,-3.0094,-2.9703,-2.8896,-2.7691,-2.6897,-2.5976,-2.5002,-2.4403,-2.4069,-2.4244,-2.4039,-2.3876,-2.3959,-2.4044,-2.4422,-2.4755,-2.5552,-2.6186,-2.6095,-2.5479,-2.4865,-2.4545,-2.3869,-2.3211,-2.2825,-2.2746,-2.2682,-2.2699,-2.2465,-2.2313,-2.2313,-2.2313,-2.2313,-2.2296,-2.2197,-2.2109,-2.2063,-2.1842,-2.1493,-2.1182,-2.0844,-2.0594,-2.039,-2.0287,-2.0287,-2.0287,-2.0287,-2.0287,-2.0287,-2.0287,-1.9975,-1.9343,-1.8586,-1.8234,-1.7935,-1.757,-1.7349,-1.691,-1.6652,-1.6106,-4.6173,-4.5969,-4.5871,-4.5773,-4.566,-4.5586,-4.5522,-4.5522,-4.5522,-4.5061,-4.4254,-4.3442,-4.2588,-4.1698,-4.0855,-4.0493,-4.0458,-4.0424,-4.0389,-4.0286,-3.9706,-3.9736,-4.0119,-3.9708,-3.9709,-4.0167,-3.9976,-3.9775,-3.9461,-3.9441,-3.947,-3.9384,-3.8839,-3.8171,-3.7349,-3.6767,-3.6061,-3.5354,-3.5182,-3.5182,-3.5182,-3.5182,-3.5182,-3.4991,-3.3853,-3.375,-3.5068,-3.2477,-3.1484,-3.2298,-3.1102,-3.0204,-3.0204,-3.0204,-3.0171,-3.0094,-2.9521,-2.8662,-2.7404,-2.6643,-2.5677,-2.4441,-2.4154,-2.4057,-2.3958,-2.3907,-2.3858,-2.3847,-2.3827,-2.3795,-2.3994,-2.4791,-2.5425,-2.5371,-2.4936,-2.4556,-2.4345,-2.3835,-2.3277,-2.2812,-2.2586,-2.2439,-2.2307,-2.2313,-2.2313,-2.2313,-2.2313,-2.2313,-2.2313,-2.2313,-2.2313,-2.2282,-2.2123,-2.1751,-2.1401,-2.1055,-2.0679,-2.046,-2.0304,-2.0287,-2.0287,-2.0287,-2.0287,-2.0287,-2.0098,-1.9764,-1.9217,-1.8431,-1.7975,-1.7679,-1.7585,-1.7424,-1.6983,-1.652,-1.5949,-4.6216,-4.6068,-4.5964,-4.584,-4.5771,-4.5635,-4.5594,-4.5586,-4.5586,-4.5143,-4.4412,-4.3528,-4.275,-4.1838,-4.1037,-4.0515,-4.03,-4.0253,-4.0245,-4.0208,-3.999,-3.9915,-4.004,-3.9918,-3.9957,-4.0072,-3.9336,-3.8553,-3.796,-3.7903,-3.7846,-3.7808,-3.7808,-3.7368,-3.6538,-3.6443,-3.6003,-3.5381,-3.5182,-3.5182,-3.5182,-3.5182,-3.5182,-3.5114,-3.4388,-3.4331,-3.5068,-3.3406,-3.2413,-3.2394,-3.1083,-3.0242,-3.0204,-3.0204,-3.0204,-2.9961,-2.8713,-2.7808,-2.7402,-2.597,-2.503,-2.4518,-2.4275,-2.4105,-2.4056,-2.3917,-2.3806,-2.3816,-2.3806,-2.3795,-2.3795,-2.394,-2.4049,-2.3831,-2.3958,-2.3948,-2.3843,-2.3627,-2.3289,-2.2838,-2.2659,-2.2569,-2.238,-2.2313,-2.2313,-2.2313,-2.2313,-2.2313,-2.2313,-2.2313,-2.2313,-2.2313,-2.2225,-2.1991,-2.1631,-2.1245,-2.0861,-2.0512,-2.0357,-2.0287,-2.0287,-2.0287,-2.0287,-2.027,-1.999,-1.9654,-1.9126,-1.8386,-1.7751,-1.7478,-1.7464,-1.7183,-1.6532,-1.5966,-1.5798,-4.6216,-4.6095,-4.5949,-4.5852,-4.5773,-4.5651,-4.5594,-4.5594,-4.5594,-4.5421,-4.5075,-4.4297,-4.3442,-4.259,-4.1701,-4.0641,-3.9576,-3.9517,-3.948,-3.9237,-3.8289,-3.8089,-3.8484,-3.8542,-3.8839,-3.9069,-3.7933,-3.7436,-3.7502,-3.7101,-3.712,-3.7521,-3.712,-3.6767,-3.6443,-3.5927,-3.542,-3.5239,-3.5182,-3.5182,-3.5182,-3.5182,-3.5182,-3.5163,-3.4942,-3.4732,-3.4331,-3.2726,-3.1878,-3.1885,-3.0815,-3.0204,-3.0204,-3.0204,-3.019,-3.0018,-2.9071,-2.8055,-2.7354,-2.6302,-2.5217,-2.4694,-2.4357,-2.421,-2.4096,-2.3919,-2.3827,-2.3847,-2.3827,-2.3795,-2.3795,-2.3795,-2.3795,-2.3795,-2.3795,-2.3795,-2.3764,-2.3479,-2.3194,-2.2973,-2.2659,-2.2422,-2.2324,-2.2313,-2.2313,-2.2313,-2.2313,-2.2313,-2.2313,-2.2313,-2.2313,-2.2313,-2.2254,-2.2137,-2.1691,-2.1323,-2.0991,-2.0596,-2.0392,-2.0304,-2.0287,-2.0287,-2.0287,-2.0106,-1.9808,-1.9393,-1.8875,-1.8247,-1.752,-1.7025,-1.6811,-1.6305,-1.5655,-1.5391,-1.5317,-4.6267,-4.615,-4.6037,-4.5919,-4.5835,-4.5708,-4.5654,-4.5603,-4.5594,-4.5594,-4.5421,-4.4682,-4.3827,-4.2917,-4.1797,-4.0468,-3.9125,-3.8509,-3.8142,-3.8054,-3.7487,-3.7285,-3.7776,-3.8084,-3.8018,-3.7884,-3.7016,-3.6233,-3.5812,-3.5687,-3.5821,-3.6146,-3.6107,-3.6023,-3.5984,-3.5507,-3.5182,-3.5182,-3.5182,-3.5182,-3.5182,-3.5182,-3.5182,-3.5182,-3.5182,-3.4609,-3.3566,-3.2439,-3.1744,-3.1408,-3.0663,-3.0242,-3.0185,-2.9897,-2.9665,-2.942,-2.8483,-2.7479,-2.6911,-2.6016,-2.5332,-2.4722,-2.4461,-2.4338,-2.4229,-2.4049,-2.3937,-2.3947,-2.3847,-2.3795,-2.3795,-2.3795,-2.3795,-2.3795,-2.3795,-2.3795,-2.3764,-2.354,-2.3283,-2.3103,-2.2807,-2.2538,-2.2366,-2.2313,-2.2313,-2.2313,-2.2313,-2.2313,-2.2313,-2.2313,-2.2313,-2.2313,-2.2299,-2.2065,-2.1676,-2.137,-2.1103,-2.0745,-2.0392,-2.0339,-2.0287,-2.0287,-2.0287,-1.9859,-1.9511,-1.8919,-1.8392,-1.7596,-1.6844,-1.6528,-1.6226,-1.5773,-1.5339,-1.5117,-1.4992,-4.63,-4.6277,-4.6147,-4.6009,-4.5864,-4.5719,-4.553,-4.5496,-4.5479,-4.5383,-4.5171,-4.4594,-4.3701,-4.2684,-4.1229,-3.9959,-3.8805,-3.7493,-3.6736,-3.6782,-3.6963,-3.7343,-3.7411,-3.7768,-3.733,-3.6462,-3.6023,-3.4896,-3.3406,-3.3815,-3.3956,-3.4358,-3.5037,-3.5171,-3.5171,-3.5152,-3.5133,-3.5018,-3.5125,-3.5182,-3.5182,-3.5182,-3.5114,-3.5076,-3.4999,-3.4284,-3.2871,-3.2317,-3.1992,-3.1408,-3.0491,-2.9994,-2.9911,-2.9225,-2.8786,-2.8744,-2.7167,-2.6543,-2.6126,-2.5475,-2.4859,-2.478,-2.4586,-2.4503,-2.4444,-2.4238,-2.4075,-2.4056,-2.3927,-2.3834,-2.3816,-2.3795,-2.3795,-2.3795,-2.3795,-2.3795,-2.3795,-2.3753,-2.3535,-2.3224,-2.3096,-2.2897,-2.2405,-2.2338,-2.2313,-2.2313,-2.2313,-2.2313,-2.2313,-2.2313,-2.2313,-2.2313,-2.2313,-2.208,-2.1721,-2.1416,-2.115,-2.0778,-2.0443,-2.0308,-2.0164,-2.0118,-2.0073,-1.963,-1.8987,-1.8433,-1.7856,-1.7095,-1.6512,-1.6196,-1.5864,-1.5475,-1.5101,-1.4792,-1.4599,-4.6302,-4.6277,-4.6147,-4.6013,-4.5797,-4.517,-4.4773,-4.4641,-4.4652,-4.4335,-4.3932,-4.4171,-4.3126,-4.1267,-4.0721,-3.9355,-3.763,-3.681,-3.6146,-3.563,-3.5733,-3.5876,-3.5742,-3.5485,-3.5171,-3.4598,-3.3719,-3.2783,-3.2718,-3.2967,-3.3394,-3.4014,-3.4751,-3.4885,-3.4483,-3.4923,-3.4827,-3.4503,-3.4961,-3.5182,-3.5182,-3.5163,-3.4885,-3.4331,-3.4312,-3.349,-3.1943,-3.1178,-3.0796,-3.0529,-2.972,-2.9261,-2.9171,-2.847,-2.8025,-2.7777,-2.6927,-2.6186,-2.6001,-2.5306,-2.4764,-2.4723,-2.4602,-2.4503,-2.4495,-2.4357,-2.4201,-2.4123,-2.4026,-2.3955,-2.3845,-2.3795,-2.3795,-2.3795,-2.3795,-2.3795,-2.3792,-2.3664,-2.3508,-2.3383,-2.3065,-2.2773,-2.2605,-2.2422,-2.2327,-2.2313,-2.2313,-2.2313,-2.2313,-2.2313,-2.2313,-2.2313,-2.2268,-2.2065,-2.1797,-2.1493,-2.1182,-2.0827,-2.0512,-2.0275,-2.0011,-1.9749,-1.9626,-1.9392,-1.8338,-1.7642,-1.7292,-1.6781,-1.6357,-1.5882,-1.5301,-1.483,-1.4503,-1.4216,-1.4168,-4.6302,-4.63,-4.6214,-4.5887,-4.5409,-4.4827,-4.4305,-4.389,-4.3783,-4.3547,-4.3278,-4.353,-4.2552,-4.0578,-4.0082,-3.8717,-3.6763,-3.6219,-3.5728,-3.5305,-3.5239,-3.5248,-3.5057,-3.4407,-3.3834,-3.3394,-3.2458,-3.2172,-3.226,-3.2508,-3.3158,-3.3891,-3.4464,-3.4598,-3.4617,-3.4541,-3.4674,-3.4617,-3.4999,-3.5182,-3.5182,-3.4866,-3.4503,-3.3975,-3.3681,-3.2783,-3.156,-3.0682,-3.0063,-2.9711,-2.9429,-2.9091,-2.8332,-2.7847,-2.739,-2.7087,-2.6126,-2.5562,-2.5513,-2.502,-2.4726,-2.4692,-2.4629,-2.4604,-2.4561,-2.4452,-2.4311,-2.4219,-2.4142,-2.4006,-2.3855,-2.3795,-2.3795,-2.3795,-2.3795,-2.3795,-2.3795,-2.3718,-2.3605,-2.3429,-2.3145,-2.2812,-2.2725,-2.246,-2.2338,-2.2313,-2.2313,-2.2313,-2.2313,-2.2313,-2.2313,-2.2313,-2.2152,-2.1932,-2.1631,-2.1323,-2.0911,-2.0584,-1.9903,-1.978,-1.9532,-1.9162,-1.8885,-1.8484,-1.7608,-1.6999,-1.6843,-1.6521,-1.5935,-1.538,-1.4723,-1.4362,-1.4141,-1.3964,-1.3894,-4.6302,-4.6302,-4.6202,-4.5628,-4.486,-4.4539,-4.3801,-4.3149,-4.2853,-4.2744,-4.2662,-4.262,-4.1459,-4.0194,-3.9051,-3.7918,-3.6391,-3.5706,-3.5395,-3.5103,-3.4915,-3.4705,-3.4571,-3.4025,-3.3184,-3.2458,-3.2413,-3.1916,-3.1649,-3.2107,-3.2871,-3.3414,-3.37,-3.412,-3.4197,-3.414,-3.4388,-3.4636,-3.4999,-3.5057,-3.4885,-3.4407,-3.3929,-3.3356,-3.263,-3.2038,-3.1274,-3.0548,-2.982,-2.8846,-2.9577,-2.9029,-2.7758,-2.7373,-2.6832,-2.6167,-2.5414,-2.4892,-2.4832,-2.4825,-2.4681,-2.47,-2.47,-2.4681,-2.465,-2.4569,-2.4444,-2.4284,-2.4182,-2.4036,-2.3855,-2.3795,-2.3795,-2.3795,-2.3795,-2.3795,-2.3795,-2.3795,-2.3739,-2.3549,-2.3301,-2.301,-2.2773,-2.2515,-2.2313,-2.2313,-2.2313,-2.2313,-2.2313,-2.2313,-2.2313,-2.2313,-2.208,-2.1783,-2.1463,-2.1119,-2.0668,-2.0197,-1.9246,-1.8808,-1.8654,-1.833,-1.7976,-1.7517,-1.7044,-1.6831,-1.6816,-1.6308,-1.5684,-1.5268,-1.4858,-1.4449,-1.4078,-1.396,-1.3858,-4.6302,-4.6262,-4.5558,-4.5102,-4.4618,-4.3392,-4.2597,-4.2144,-4.1512,-4.1236,-4.0947,-4.0361,-3.9492,-3.8447,-3.7647,-3.6545,-3.5725,-3.5356,-3.519,-3.5037,-3.3731,-3.331,-3.3272,-3.307,-3.2172,-3.1197,-3.0777,-3.0682,-3.0758,-3.1408,-3.1809,-3.2172,-3.2783,-3.2795,-3.263,-3.3605,-3.3681,-3.3597,-3.4503,-3.4808,-3.4377,-3.4014,-3.3268,-3.221,-3.1293,-3.0777,-3.0548,-3.03,-2.9749,-2.9122,-2.892,-2.8621,-2.7648,-2.6949,-2.6269,-2.5602,-2.513,-2.4847,-2.4847,-2.4764,-2.4681,-2.4681,-2.4681,-2.4681,-2.4681,-2.4657,-2.4547,-2.4366,-2.4275,-2.4115,-2.3868,-2.3806,-2.3795,-2.3795,-2.3795,-2.3795,-2.3795,-2.3795,-2.3764,-2.3657,-2.3376,-2.3084,-2.2998,-2.2579,-2.2408,-2.2324,-2.2313,-2.2313,-2.2245,-2.2195,-2.2144,-2.206,-2.1639,-2.1284,-2.1076,-2.0606,-1.9909,-1.9447,-1.8593,-1.79,-1.7761,-1.7623,-1.7331,-1.7039,-1.6718,-1.6624,-1.661,-1.6286,-1.5682,-1.5359,-1.5014,-1.4578,-1.4208,-1.4026,-1.3841,-4.509,-4.5031,-4.4582,-4.412,-4.3568,-4.2685,-4.196,-4.1297,-4.0467,-4.0043,-3.9761,-3.9008,-3.812,-3.7345,-3.6776,-3.6096,-3.5438,-3.5226,-3.5182,-3.4942,-3.391,-3.3169,-3.2639,-3.2269,-3.1465,-3.0352,-3.0242,-3.0357,-3.0796,-3.1159,-3.1687,-3.1973,-3.2145,-3.2535,-3.2535,-3.3184,-3.3624,-3.3979,-3.4273,-3.4407,-3.4033,-3.3127,-3.2286,-3.1121,-3.0433,-3.0204,-3.0223,-2.9765,-2.9343,-2.8895,-2.8488,-2.7902,-2.7144,-2.6547,-2.588,-2.5151,-2.4886,-2.4804,-2.4779,-2.4742,-2.4681,-2.4681,-2.4681,-2.4681,-2.4681,-2.4681,-2.4602,-2.4462,-2.4356,-2.4257,-2.3959,-2.3827,-2.3824,-2.3795,-2.3795,-2.3795,-2.3795,-2.3795,-2.3795,-2.3742,-2.3502,-2.3259,-2.3022,-2.2655,-2.2432,-2.2338,-2.2296,-2.2245,-2.1684,-2.1651,-2.1667,-2.1522,-2.1069,-2.0752,-2.0606,-2.0032,-1.9061,-1.8486,-1.7823,-1.7254,-1.6931,-1.6839,-1.6732,-1.6548,-1.6425,-1.6362,-1.6289,-1.5954,-1.5739,-1.5344,-1.4967,-1.4625,-1.4321,-1.4056,-1.3874,-4.3705,-4.3686,-4.3549,-4.3079,-4.2391,-4.2025,-4.1356,-4.0529,-3.9494,-3.9011,-3.8886,-3.8031,-3.7154,-3.6779,-3.6393,-3.5913,-3.5473,-3.5246,-3.52,-3.4806,-3.4028,-3.3201,-3.2525,-3.1712,-3.1021,-3.0277,-3.0226,-3.0583,-3.0937,-3.1255,-3.1324,-3.1992,-3.1637,-3.1732,-3.2802,-3.3119,-3.3234,-3.4113,-3.414,-3.3929,-3.3547,-3.2325,-3.1236,-3.0472,-3.0261,-3.0204,-3.0032,-2.9509,-2.893,-2.8853,-2.7966,-2.7067,-2.6446,-2.6116,-2.5763,-2.4939,-2.4808,-2.4772,-2.4749,-2.4704,-2.4681,-2.4681,-2.4681,-2.4681,-2.4681,-2.4692,-2.4637,-2.4537,-2.4435,-2.433,-2.4085,-2.3966,-2.3865,-2.3824,-2.3795,-2.3795,-2.3795,-2.3795,-2.3795,-2.3753,-2.3502,-2.3242,-2.3035,-2.276,-2.2538,-2.2349,-2.2307,-2.204,-2.1461,-2.1156,-2.1207,-2.1025,-2.0585,-2.0277,-2.0131,-1.9312,-1.8341,-1.7895,-1.7236,-1.6793,-1.6393,-1.6423,-1.6425,-1.6332,-1.6239,-1.6208,-1.6208,-1.6109,-1.5812,-1.5344,-1.5089,-1.4936,-1.456,-1.4089,-1.399,-4.3705,-4.3647,-4.2903,-4.2513,-4.218,-4.0886,-4.0168,-3.9559,-3.8299,-3.7821,-3.8047,-3.6677,-3.6343,-3.6402,-3.5825,-3.5473,-3.541,-3.5261,-3.4952,-3.4379,-3.3564,-3.271,-3.1954,-3.1135,-3.0515,-3.0362,-3.0286,-3.0407,-3.0435,-3.044,-3.0682,-3.0663,-3.0586,-3.0873,-3.1427,-3.1935,-3.2814,-3.3425,-3.3643,-3.3566,-3.2821,-3.1923,-3.1006,-3.028,-3.0204,-3.0204,-3.0013,-2.9395,-2.8891,-2.8758,-2.7362,-2.6579,-2.6203,-2.6151,-2.5732,-2.5181,-2.4898,-2.4801,-2.4757,-2.4712,-2.4689,-2.4681,-2.4681,-2.4681,-2.4681,-2.4692,-2.4645,-2.4547,-2.4392,-2.421,-2.3888,-2.3937,-2.3955,-2.3865,-2.3795,-2.3795,-2.3795,-2.3795,-2.3795,-2.3774,-2.3468,-2.3182,-2.301,-2.276,-2.2401,-2.2261,-2.224,-2.1667,-2.0886,-2.075,-2.0835,-2.0521,-2.0111,-1.9863,-1.9657,-1.8609,-1.7679,-1.7482,-1.698,-1.6562,-1.627,-1.6239,-1.6208,-1.6208,-1.6208,-1.6208,-1.6208,-1.6208,-1.6011,-1.5624,-1.5463,-1.53,-1.4904,-1.4495,-1.4365,-4.2357,-4.23,-4.1888,-4.1713,-4.1596,-4.0854,-4.0138,-3.9516,-3.8332,-3.7661,-3.7187,-3.6236,-3.5805,-3.6002,-3.5751,-3.5483,-3.5393,-3.4876,-3.4565,-3.401,-3.2939,-3.2137,-3.1587,-3.0739,-3.0404,-3.0327,-3.0386,-3.034,-3.0213,-3.023,-3.0211,-3.0223,-3.0204,-3.0395,-3.0987,-3.2088,-3.2585,-3.2814,-3.3043,-3.2917,-3.2088,-3.1274,-3.0586,-3.0357,-3.0204,-3.0204,-2.9956,-2.8845,-2.8259,-2.7876,-2.6493,-2.5763,-2.5593,-2.5541,-2.5381,-2.5033,-2.487,-2.4794,-2.4749,-2.4704,-2.4681,-2.4681,-2.4681,-2.4681,-2.4681,-2.4692,-2.466,-2.4599,-2.4417,-2.4229,-2.3951,-2.4026,-2.3945,-2.3803,-2.3782,-2.3795,-2.3795,-2.3795,-2.3795,-2.3792,-2.3553,-2.3301,-2.3072,-2.2733,-2.2285,-2.2139,-2.2124,-2.1363,-2.0378,-2.0276,-2.0327,-1.9782,-1.934,-1.9081,-1.8862,-1.8094,-1.7395,-1.7158,-1.6843,-1.6411,-1.6222,-1.6236,-1.6222,-1.6208,-1.6208,-1.6208,-1.6208,-1.6208,-1.6053,-1.5911,-1.5638,-1.5389,-1.5179,-1.4949,-1.4794,-4.1012,-4.0855,-4.1031,-4.0914,-4.0621,-4.0582,-3.9993,-3.9132,-3.8205,-3.7394,-3.6756,-3.6091,-3.5741,-3.5659,-3.5466,-3.5315,-3.528,-3.4345,-3.3859,-3.3427,-3.2461,-3.1708,-3.1278,-3.0886,-3.0441,-3.0419,-3.0446,-3.0449,-3.0267,-3.0233,-3.0226,-3.0226,-3.0232,-3.0472,-3.1159,-3.1821,-3.2317,-3.2451,-3.2413,-3.2012,-3.1255,-3.0612,-3.0204,-3.0204,-3.0178,-3.0107,-2.968,-2.8441,-2.7587,-2.6963,-2.5892,-2.4868,-2.4872,-2.4816,-2.4772,-2.4764,-2.4746,-2.4712,-2.4689,-2.4689,-2.4681,-2.4681,-2.4681,-2.4681,-2.4681,-2.4692,-2.4676,-2.4658,-2.4572,-2.4364,-2.4135,-2.4077,-2.3986,-2.3871,-2.3813,-2.3795,-2.3795,-2.3795,-2.3795,-2.3739,-2.3616,-2.3376,-2.308,-2.2789,-2.2329,-2.1715,-2.1667,-2.0822,-1.9955,-1.9705,-1.9541,-1.8959,-1.8495,-1.8227,-1.7946,-1.7658,-1.7235,-1.7155,-1.6836,-1.6458,-1.6316,-1.6263,-1.6236,-1.6194,-1.6208,-1.6208,-1.6208,-1.6194,-1.6081,-1.5925,-1.5711,-1.5551,-1.5433,-1.5299,-1.5148,-4.0659,-4.0034,-4.0795,-4.025,-3.9099,-3.904,-3.8395,-3.7461,-3.6791,-3.6218,-3.6131,-3.5955,-3.583,-3.5645,-3.4919,-3.4654,-3.4367,-3.3774,-3.3033,-3.2524,-3.2003,-3.1431,-3.094,-3.069,-3.0544,-3.0496,-3.0462,-3.0384,-3.0322,-3.0298,-3.0286,-3.0279,-3.026,-3.0294,-3.0577,-3.1346,-3.156,-3.1637,-3.1599,-3.1197,-3.0548,-3.0268,-3.0223,-3.019,-3.0123,-2.9877,-2.9248,-2.8137,-2.725,-2.6451,-2.5437,-2.4839,-2.482,-2.4761,-2.4704,-2.4738,-2.4761,-2.4757,-2.4696,-2.4681,-2.4681,-2.4681,-2.4681,-2.4681,-2.4681,-2.47,-2.4668,-2.4528,-2.4586,-2.4512,-2.4293,-2.4248,-2.4172,-2.4036,-2.3886,-2.3827,-2.3806,-2.3795,-2.3795,-2.3782,-2.3664,-2.3346,-2.3004,-2.272,-2.2365,-2.1731,-2.1038,-2.0209,-1.9532,-1.9249,-1.8949,-1.8419,-1.8188,-1.7921,-1.7749,-1.7345,-1.7154,-1.7126,-1.6828,-1.6506,-1.6357,-1.6263,-1.6208,-1.6194,-1.6194,-1.618,-1.6166,-1.6123,-1.6095,-1.5997,-1.5812,-1.5784,-1.577,-1.5624,-1.5448,-4.0894,-4.0581,-4.0934,-4.0406,-3.9352,-3.9292,-3.8484,-3.7342,-3.6884,-3.6435,-3.6031,-3.597,-3.5921,-3.5699,-3.5291,-3.492,-3.4399,-3.3499,-3.2714,-3.1886,-3.1491,-3.1053,-3.0746,-3.0589,-3.0586,-3.0525,-3.0543,-3.0572,-3.0496,-3.0389,-3.0348,-3.0361,-3.0346,-3.0315,-3.033,-3.1026,-3.1076,-3.0936,-3.0743,-3.0555,-3.03,-3.0204,-3.0204,-3.0204,-3.015,-2.9827,-2.9243,-2.8145,-2.735,-2.6586,-2.5571,-2.4753,-2.4746,-2.4723,-2.4681,-2.4689,-2.4712,-2.473,-2.4707,-2.47,-2.4681,-2.4681,-2.4681,-2.4681,-2.4681,-2.47,-2.4676,-2.4623,-2.4663,-2.4574,-2.4393,-2.4338,-2.4183,-2.4067,-2.3958,-2.3876,-2.3806,-2.3806,-2.3785,-2.3771,-2.37,-2.3354,-2.29,-2.2272,-2.1879,-2.134,-2.0645,-1.9875,-1.913,-1.8606,-1.8307,-1.7974,-1.7873,-1.7817,-1.7708,-1.7496,-1.7228,-1.7113,-1.6837,-1.6557,-1.6344,-1.625,-1.622,-1.6151,-1.608,-1.6095,-1.6095,-1.6095,-1.6067,-1.6025,-1.5955,-1.5899,-1.5827,-1.577,-1.5595,-4.0994,-4.0776,-4.0776,-4.0171,-3.9195,-3.9175,-3.8316,-3.7046,-3.691,-3.6578,-3.6168,-3.5991,-3.5868,-3.5523,-3.5147,-3.4469,-3.3796,-3.3018,-3.2301,-3.1552,-3.1033,-3.0715,-3.0637,-3.0606,-3.0585,-3.0482,-3.0603,-3.0653,-3.0621,-3.0539,-3.0487,-3.0457,-3.0416,-3.0392,-3.0505,-3.0725,-3.0746,-3.0005,-3.0188,-3.0109,-2.9832,-2.9775,-2.9947,-3.0016,-2.9956,-2.9684,-2.9224,-2.8302,-2.743,-2.6314,-2.5527,-2.4858,-2.4851,-2.484,-2.4797,-2.4775,-2.4787,-2.4742,-2.4723,-2.4681,-2.4681,-2.4681,-2.4681,-2.4681,-2.4681,-2.4681,-2.4692,-2.4679,-2.4679,-2.4599,-2.4471,-2.4425,-2.4284,-2.4154,-2.4026,-2.3917,-2.3834,-2.3803,-2.3771,-2.3739,-2.3653,-2.3433,-2.283,-2.1914,-2.1316,-2.0857,-2.0213,-1.9493,-1.8826,-1.8166,-1.7986,-1.7789,-1.7789,-1.7789,-1.7743,-1.7589,-1.7349,-1.715,-1.6888,-1.6699,-1.6541,-1.6369,-1.6303,-1.6191,-1.6066,-1.6038,-1.6067,-1.6053,-1.6053,-1.5983,-1.5927,-1.5899,-1.5842,-1.5799,-1.5653,-4.0625,-3.9878,-3.9878,-3.8961,-3.7555,-3.7477,-3.6988,-3.6226,-3.6148,-3.6129,-3.6012,-3.5934,-3.5465,-3.4838,-3.4131,-3.3326,-3.2314,-3.1382,-3.1178,-3.102,-3.0743,-3.0687,-3.068,-3.0672,-3.0676,-3.0668,-3.069,-3.0687,-3.0703,-3.0661,-3.0614,-3.0595,-3.0492,-3.0428,-3.0446,-3.0541,-3.0257,-2.9761,-2.9953,-2.9752,-2.9336,-2.9174,-2.9453,-2.9726,-2.9208,-2.8377,-2.7606,-2.7487,-2.6865,-2.5627,-2.5196,-2.5019,-2.4987,-2.4968,-2.4942,-2.4874,-2.4818,-2.4779,-2.4712,-2.4681,-2.4681,-2.4681,-2.4692,-2.4684,-2.4692,-2.47,-2.47,-2.4684,-2.4668,-2.4687,-2.4613,-2.4553,-2.4409,-2.4257,-2.4105,-2.3947,-2.3845,-2.3768,-2.3747,-2.3725,-2.3606,-2.3415,-2.2754,-2.1815,-2.1301,-2.0881,-1.9809,-1.9063,-1.8476,-1.7918,-1.7884,-1.7789,-1.7789,-1.7789,-1.7789,-1.7647,-1.7491,-1.7356,-1.7175,-1.7002,-1.685,-1.6657,-1.6355,-1.622,-1.6095,-1.6067,-1.6011,-1.5983,-1.5955,-1.5927,-1.587,-1.5813,-1.5755,-1.5682,-1.5492,-3.9359,-3.9006,-3.8495,-3.7887,-3.7301,-3.7301,-3.6812,-3.609,-3.6012,-3.6012,-3.5934,-3.5447,-3.5018,-3.4491,-3.3787,-3.2898,-3.2102,-3.1785,-3.1247,-3.0864,-3.0701,-3.0711,-3.0704,-3.0694,-3.069,-3.0694,-3.0694,-3.0694,-3.071,-3.0694,-3.0683,-3.063,-3.0543,-3.0597,-3.058,-3.0492,-3.0128,-2.999,-2.9992,-2.9864,-2.9345,-2.9481,-2.9606,-2.9241,-2.9737,-2.8979,-2.8261,-2.7695,-2.6773,-2.5879,-2.5323,-2.5166,-2.5101,-2.5055,-2.4987,-2.491,-2.4874,-2.4794,-2.4719,-2.4707,-2.4692,-2.4679,-2.4671,-2.4663,-2.4687,-2.4653,-2.4671,-2.4663,-2.4653,-2.4671,-2.4631,-2.458,-2.4497,-2.4367,-2.4191,-2.4018,-2.3876,-2.3789,-2.3736,-2.3718,-2.3602,-2.3432,-2.2625,-2.1743,-2.1324,-2.0883,-1.9722,-1.8674,-1.8138,-1.7789,-1.7789,-1.7772,-1.776,-1.7749,-1.7738,-1.7704,-1.7641,-1.7537,-1.7403,-1.7211,-1.6973,-1.6633,-1.6355,-1.6234,-1.6123,-1.6053,-1.5983,-1.5898,-1.587,-1.5856,-1.5784,-1.5668,-1.5624,-1.5595,-1.5433,-3.8448,-3.8153,-3.7562,-3.7303,-3.7262,-3.7028,-3.6558,-3.609,-3.6012,-3.5817,-3.5584,-3.4959,-3.4334,-3.3886,-3.3299,-3.2472,-3.1794,-3.1512,-3.1249,-3.0951,-3.0716,-3.0704,-3.0704,-3.0694,-3.0694,-3.0694,-3.0694,-3.0694,-3.0694,-3.0694,-3.069,-3.0632,-3.0461,-3.0385,-3.0653,-3.0563,-3.033,-3.0048,-2.9923,-2.9563,-2.892,-2.8793,-2.9072,-2.8428,-2.8628,-2.8329,-2.7697,-2.7208,-2.6683,-2.5932,-2.5455,-2.5271,-2.5192,-2.5118,-2.5074,-2.5006,-2.4935,-2.484,-2.4772,-2.4723,-2.47,-2.4695,-2.4671,-2.4671,-2.4682,-2.4655,-2.4679,-2.4687,-2.4663,-2.4631,-2.4623,-2.4615,-2.4541,-2.4421,-2.4257,-2.4086,-2.3909,-2.3813,-2.3771,-2.3732,-2.3616,-2.3508,-2.2744,-2.179,-2.0505,-2.0008,-1.9053,-1.8279,-1.8036,-1.7789,-1.7772,-1.776,-1.7732,-1.771,-1.7676,-1.7635,-1.7577,-1.7554,-1.742,-1.7272,-1.701,-1.6725,-1.6543,-1.6503,-1.6355,-1.6094,-1.601,-1.6024,-1.5941,-1.5813,-1.5711,-1.561,-1.5551,-1.5522,-1.5477,-3.8043,-3.7356,-3.7294,-3.7249,-3.7108,-3.6402,-3.6051,-3.6012,-3.5992,-3.5564,-3.4901,-3.4648,-3.3731,-3.2636,-3.2265,-3.1714,-3.1181,-3.0977,-3.0858,-3.0808,-3.0725,-3.0704,-3.0704,-3.0694,-3.0694,-3.0694,-3.0694,-3.0694,-3.0694,-3.0694,-3.0694,-3.0302,-2.9874,-2.9712,-3.0528,-3.0531,-3.0008,-2.9254,-2.9165,-2.8618,-2.7928,-2.7475,-2.7648,-2.7564,-2.7478,-2.7249,-2.688,-2.6827,-2.6299,-2.5597,-2.55,-2.5415,-2.5415,-2.5382,-2.5317,-2.5243,-2.5214,-2.5109,-2.4915,-2.4779,-2.4715,-2.4684,-2.4679,-2.4687,-2.4684,-2.4684,-2.4668,-2.4653,-2.466,-2.4671,-2.4682,-2.4658,-2.4551,-2.4465,-2.4312,-2.4191,-2.4018,-2.3837,-2.3806,-2.345,-2.358,-2.3598,-2.2866,-2.1845,-2.0033,-1.8979,-1.8188,-1.7845,-1.7811,-1.7816,-1.7811,-1.7738,-1.771,-1.7641,-1.7595,-1.7559,-1.7524,-1.7512,-1.746,-1.7337,-1.7236,-1.7064,-1.6914,-1.6802,-1.6581,-1.6313,-1.6244,-1.6203,-1.5954,-1.5697,-1.5654,-1.5566,-1.5507,-1.5433,-1.5359,-3.6717,-3.6443,-3.6439,-3.6436,-3.639,-3.6151,-3.6012,-3.6012,-3.5953,-3.5485,-3.4686,-3.4159,-3.3241,-3.2246,-3.1503,-3.111,-3.0866,-3.0783,-3.0802,-3.0739,-3.0706,-3.0701,-3.0701,-3.0694,-3.0694,-3.0694,-3.0694,-3.0694,-3.0694,-3.0694,-3.0282,-2.9797,-2.9126,-2.8747,-2.9055,-2.9259,-2.9273,-2.8597,-2.8332,-2.799,-2.7256,-2.7263,-2.7238,-2.7019,-2.6973,-2.6793,-2.6349,-2.6387,-2.6019,-2.5423,-2.5451,-2.5507,-2.5499,-2.5459,-2.5374,-2.5279,-2.5248,-2.5078,-2.4903,-2.4768,-2.47,-2.4695,-2.4679,-2.4671,-2.4679,-2.4604,-2.4604,-2.4613,-2.4613,-2.4617,-2.4559,-2.4568,-2.45,-2.4491,-2.4375,-2.4275,-2.4142,-2.3958,-2.3754,-2.3097,-2.2921,-2.2277,-2.16,-2.1259,-1.9823,-1.8847,-1.8186,-1.7883,-1.7805,-1.7877,-1.7893,-1.7743,-1.7664,-1.7601,-1.7542,-1.7512,-1.7505,-1.75,-1.75,-1.7448,-1.7361,-1.7301,-1.7167,-1.6968,-1.6763,-1.6554,-1.6367,-1.6148,-1.5797,-1.558,-1.5522,-1.5448,-1.5359,-1.5269,-1.5194,-3.6015,-3.6015,-3.6012,-3.6009,-3.6006,-3.6019,-3.6016,-3.5953,-3.568,-3.5055,-3.4198,-3.3319,-3.2459,-3.166,-3.1113,-3.0799,-3.0788,-3.0786,-3.0786,-3.0742,-3.0737,-3.073,-3.0707,-3.0694,-3.0694,-3.0694,-3.0694,-3.0694,-3.0694,-3.0694,-3.0046,-2.9064,-2.8355,-2.7814,-2.783,-2.8016,-2.8657,-2.812,-2.7821,-2.7365,-2.6958,-2.6826,-2.6709,-2.6491,-2.6463,-2.6601,-2.624,-2.6029,-2.5928,-2.5532,-2.5451,-2.5507,-2.5468,-2.5443,-2.5379,-2.5337,-2.5248,-2.5096,-2.4962,-2.4814,-2.4749,-2.4679,-2.4647,-2.4663,-2.4679,-2.4637,-2.461,-2.4613,-2.4582,-2.4576,-2.4559,-2.4559,-2.4542,-2.4534,-2.4438,-2.4331,-2.4172,-2.3979,-2.3562,-2.2888,-2.2288,-2.1435,-2.0524,-2.0136,-1.9535,-1.8883,-1.8259,-1.805,-1.7872,-1.7936,-1.7958,-1.78,-1.7704,-1.7675,-1.7594,-1.7505,-1.7493,-1.7477,-1.7489,-1.7489,-1.7465,-1.7394,-1.7269,-1.7183,-1.7047,-1.6844,-1.6394,-1.6065,-1.5754,-1.5536,-1.5403,-1.5314,-1.5208,-1.5148,-1.5072,-3.6016,-3.5996,-3.5974,-3.5913,-3.5932,-3.5771,-3.5784,-3.5778,-3.5018,-3.4159,-3.3318,-3.2519,-3.1777,-3.1015,-3.08,-3.0798,-3.0792,-3.0794,-3.0788,-3.0782,-3.0756,-3.0749,-3.0727,-3.0694,-3.0694,-3.0694,-3.0694,-3.0694,-3.0694,-3.0201,-2.9356,-2.8429,-2.7814,-2.702,-2.6711,-2.7005,-2.7636,-2.7326,-2.699,-2.6657,-2.6451,-2.6045,-2.5913,-2.5774,-2.5811,-2.5846,-2.5668,-2.5622,-2.5588,-2.5499,-2.5507,-2.5507,-2.5507,-2.5507,-2.5488,-2.5444,-2.5351,-2.5198,-2.5066,-2.4929,-2.4797,-2.4742,-2.47,-2.4707,-2.4692,-2.4668,-2.4671,-2.4653,-2.4629,-2.4658,-2.4677,-2.4661,-2.4634,-2.4559,-2.4465,-2.433,-2.4163,-2.3843,-2.3381,-2.2837,-2.2329,-2.1498,-2.0357,-1.9737,-1.9314,-1.8856,-1.8348,-1.8208,-1.8078,-1.8093,-1.805,-1.7828,-1.7766,-1.7772,-1.768,-1.7517,-1.7482,-1.7482,-1.7477,-1.7489,-1.7482,-1.7474,-1.7374,-1.7326,-1.7391,-1.7129,-1.653,-1.6093,-1.5767,-1.558,-1.5388,-1.5208,-1.5088,-1.5027,-1.495,-3.6016,-3.5937,-3.535,-3.5095,-3.4974,-3.44,-3.416,-3.4099,-3.3826,-3.328,-3.2441,-3.2228,-3.1543,-3.0839,-3.08,-3.0788,-3.0794,-3.0798,-3.0769,-3.0767,-3.0739,-3.0714,-3.0701,-3.0694,-3.0694,-3.0694,-3.0694,-3.0674,-3.036,-2.977,-2.8886,-2.8096,-2.7004,-2.6075,-2.5905,-2.601,-2.6254,-2.6331,-2.6111,-2.6026,-2.594,-2.565,-2.5515,-2.5511,-2.5503,-2.5503,-2.5523,-2.5515,-2.5511,-2.5507,-2.5507,-2.5507,-2.5507,-2.5507,-2.5507,-2.548,-2.5388,-2.5278,-2.5195,-2.5093,-2.4947,-2.4808,-2.4772,-2.4753,-2.4723,-2.4684,-2.4698,-2.4663,-2.4645,-2.4666,-2.465,-2.4634,-2.4626,-2.4549,-2.4437,-2.4284,-2.4125,-2.3838,-2.333,-2.2409,-2.1902,-2.093,-1.9854,-1.9441,-1.9027,-1.8651,-1.8435,-1.8338,-1.8287,-1.829,-1.8166,-1.7938,-1.7916,-1.7966,-1.772,-1.7522,-1.751,-1.7498,-1.7482,-1.7482,-1.7474,-1.7451,-1.7439,-1.735,-1.724,-1.6937,-1.6503,-1.6134,-1.5839,-1.558,-1.5388,-1.5149,-1.4967,-1.492,-1.4827,-3.498,-3.4902,-3.4413,-3.3981,-3.3625,-3.3128,-3.2733,-3.2479,-3.2734,-3.2539,-3.2091,-3.1719,-3.1289,-3.0878,-3.08,-3.0792,-3.0794,-3.0786,-3.0784,-3.0753,-3.0695,-3.0707,-3.0701,-3.0694,-3.0694,-3.0694,-3.0694,-3.0694,-3.0221,-2.9048,-2.8048,-2.7406,-2.6082,-2.568,-2.5569,-2.5631,-2.5588,-2.5627,-2.5554,-2.5515,-2.5519,-2.5503,-2.5511,-2.5507,-2.5507,-2.5507,-2.5507,-2.5515,-2.5511,-2.5507,-2.5507,-2.5507,-2.5507,-2.5484,-2.5476,-2.5448,-2.54,-2.5308,-2.5248,-2.5171,-2.5043,-2.4929,-2.4828,-2.4797,-2.4742,-2.4707,-2.4663,-2.4604,-2.4623,-2.4623,-2.4617,-2.4601,-2.4566,-2.4541,-2.4393,-2.4247,-2.4057,-2.3858,-2.302,-2.1972,-2.1035,-2.0065,-1.939,-1.9076,-1.8887,-1.8797,-1.8715,-1.8622,-1.8545,-1.8516,-1.833,-1.8093,-1.8125,-1.8166,-1.7895,-1.7654,-1.7592,-1.7552,-1.7486,-1.7486,-1.7467,-1.7395,-1.733,-1.715,-1.6971,-1.6688,-1.6423,-1.6191,-1.591,-1.5682,-1.5492,-1.5344,-1.5089,-1.478,-1.4671,-3.3418,-3.3457,-3.332,-3.2828,-3.2078,-3.2015,-3.1583,-3.0937,-3.1699,-3.1974,-3.1797,-3.1192,-3.0859,-3.08,-3.08,-3.0798,-3.0785,-3.0792,-3.0789,-3.0794,-3.0716,-3.0695,-3.0697,-3.0694,-3.0694,-3.0694,-3.0655,-3.0558,-3.0049,-2.8812,-2.7413,-2.6752,-2.5947,-2.5506,-2.5515,-2.5511,-2.5507,-2.5511,-2.5519,-2.5523,-2.5515,-2.5519,-2.5507,-2.5515,-2.5511,-2.5511,-2.5511,-2.5507,-2.5507,-2.5507,-2.5507,-2.5507,-2.5484,-2.5452,-2.5425,-2.5417,-2.5389,-2.535,-2.5279,-2.5239,-2.516,-2.5031,-2.4897,-2.4855,-2.4804,-2.4723,-2.4645,-2.4639,-2.4666,-2.4631,-2.4615,-2.4642,-2.4634,-2.4549,-2.441,-2.4284,-2.4135,-2.386,-2.3297,-2.2228,-2.1129,-2.0183,-1.9498,-1.9201,-1.8769,-1.8852,-1.8843,-1.8725,-1.8751,-1.8686,-1.8663,-1.8419,-1.8548,-1.8579,-1.8232,-1.8002,-1.7748,-1.7657,-1.7552,-1.7439,-1.7378,-1.7293,-1.7191,-1.7,-1.6776,-1.662,-1.6409,-1.612,-1.591,-1.5855,-1.5697,-1.5595,-1.5284,-1.4873,-1.4592,-3.3379,-3.332,-3.2695,-3.1929,-3.124,-3.1199,-3.106,-3.082,-3.1016,-3.1133,-3.1075,-3.0898,-3.08,-3.08,-3.0703,-3.0699,-3.0783,-3.0786,-3.076,-3.0734,-3.0704,-3.0711,-3.0694,-3.0694,-3.0694,-3.0694,-3.0616,-3.0228,-2.9347,-2.8067,-2.7034,-2.669,-2.594,-2.5523,-2.5511,-2.5507,-2.5507,-2.5507,-2.5515,-2.5519,-2.5511,-2.5511,-2.5511,-2.5507,-2.5507,-2.5507,-2.5507,-2.5507,-2.5507,-2.5507,-2.5507,-2.5507,-2.5507,-2.5448,-2.5401,-2.5397,-2.5385,-2.5359,-2.5345,-2.5313,-2.5259,-2.5182,-2.5066,-2.4949,-2.4854,-2.4742,-2.4695,-2.4698,-2.4682,-2.4639,-2.4631,-2.4666,-2.4658,-2.4549,-2.4436,-2.4321,-2.4201,-2.3822,-2.3451,-2.2508,-2.1378,-2.0561,-1.9838,-1.9297,-1.8819,-1.8638,-1.8601,-1.8573,-1.872,-1.8771,-1.917,-1.9077,-1.9136,-1.908,-1.864,-1.824,-1.7946,-1.7726,-1.7601,-1.7465,-1.733,-1.71,-1.6908,-1.6776,-1.6607,-1.6463,-1.626,-1.5923,-1.5782,-1.5855,-1.574,-1.5551,-1.5374,-1.5012,-1.4702,-3.2285,-3.2226,-3.1777,-3.1325,-3.095,-3.0908,-3.0865,-3.0801,-3.08,-3.08,-3.0703,-3.0489,-3.045,-3.0606,-3.045,-3.0599,-3.0739,-3.0793,-3.0769,-3.0722,-3.0717,-3.0701,-3.0694,-3.0635,-3.0694,-3.0674,-3.0169,-2.9525,-2.8414,-2.7543,-2.6727,-2.629,-2.5696,-2.5523,-2.5515,-2.5511,-2.5515,-2.5507,-2.5511,-2.5511,-2.5511,-2.5507,-2.5507,-2.5507,-2.5507,-2.5507,-2.5507,-2.5507,-2.5507,-2.5507,-2.5507,-2.5476,-2.5468,-2.5432,-2.5404,-2.5391,-2.5382,-2.5402,-2.5382,-2.5388,-2.5361,-2.5274,-2.5192,-2.5055,-2.5006,-2.49,-2.4707,-2.4695,-2.4639,-2.4615,-2.4631,-2.4639,-2.4615,-2.453,-2.4479,-2.4419,-2.3989,-2.3488,-2.3184,-2.269,-2.171,-2.0984,-2.0325,-1.9842,-1.9487,-1.969,-1.9461,-1.8966,-1.8998,-1.9041,-1.9411,-1.9598,-1.9584,-1.9157,-1.85,-1.8224,-1.8048,-1.7855,-1.7844,-1.7534,-1.7363,-1.6937,-1.6633,-1.6554,-1.6463,-1.6344,-1.6095,-1.5976,-1.5842,-1.5899,-1.5711,-1.5477,-1.5299,-1.5103,-1.4751,-3.0976,-3.0918,-3.0937,-3.0916,-3.0914,-3.0911,-3.0866,-3.0822,-3.08,-3.08,-3.0684,-2.9983,-3.0138,-3.0313,-3.0177,-3.0403,-3.0606,-3.0765,-3.0757,-3.0751,-3.0727,-3.0513,-3.0409,-3.0464,-3.027,-2.9846,-2.9289,-2.8311,-2.7213,-2.6628,-2.6158,-2.5628,-2.5511,-2.551,-2.5518,-2.5515,-2.5506,-2.5507,-2.5519,-2.5515,-2.5511,-2.5507,-2.5507,-2.5507,-2.5507,-2.5507,-2.5507,-2.5507,-2.5507,-2.5507,-2.5484,-2.5448,-2.5432,-2.5395,-2.5402,-2.5388,-2.5374,-2.5384,-2.5393,-2.5393,-2.5384,-2.5361,-2.5264,-2.5182,-2.5134,-2.4994,-2.4797,-2.4681,-2.4653,-2.4596,-2.4623,-2.4615,-2.4564,-2.4555,-2.4513,-2.4488,-2.3925,-2.3416,-2.3168,-2.2874,-2.218,-2.143,-2.0866,-2.0384,-2.0352,-2.0583,-2.04,-1.9939,-1.9603,-1.9647,-1.9847,-1.9864,-1.9794,-1.9212,-1.8903,-1.8676,-1.8734,-1.8688,-1.8674,-1.8005,-1.74,-1.6988,-1.6628,-1.6425,-1.6318,-1.6398,-1.642,-1.6382,-1.6217,-1.6083,-1.5906,-1.5695,-1.5284,-1.5058,-1.4719,-3.0918,-3.0918,-3.0918,-3.0898,-3.0916,-3.0894,-3.0891,-3.0866,-3.0783,-3.08,-3.0489,-3.004,-3.004,-3.0761,-3.0683,-3.0718,-3.0711,-3.0794,-3.0795,-3.0774,-3.0751,-3.0299,-2.9878,-2.9745,-2.9272,-2.8679,-2.8051,-2.7295,-2.6614,-2.6114,-2.5785,-2.5586,-2.5573,-2.5585,-2.5585,-2.5574,-2.5547,-2.5531,-2.5518,-2.5515,-2.5519,-2.5515,-2.5511,-2.5507,-2.5507,-2.5507,-2.5507,-2.5507,-2.5507,-2.5484,-2.5452,-2.5421,-2.5404,-2.5382,-2.5384,-2.5365,-2.5351,-2.5351,-2.5361,-2.5337,-2.5327,-2.5374,-2.5284,-2.5259,-2.5201,-2.5101,-2.4929,-2.4794,-2.4719,-2.4629,-2.4623,-2.4572,-2.4547,-2.4564,-2.4566,-2.4539,-2.4269,-2.4025,-2.3796,-2.3327,-2.2716,-2.205,-2.143,-2.1052,-2.0816,-2.0912,-2.0745,-2.0346,-2.0398,-2.0379,-2.0328,-2.0302,-2.0212,-2.0759,-2.1022,-2.0021,-1.9826,-1.975,-1.9462,-1.8785,-1.8011,-1.7088,-1.6752,-1.6832,-1.672,-1.6728,-1.6743,-1.6757,-1.6634,-1.6497,-1.6254,-1.5966,-1.5495,-1.5164,-1.495]},{"header":{"parameterUnit":"m.s-1","parameterCategory":1,"la1":31.0,"la2":29.5877,"lo1":-88.7671,"lo2":-86.6584,"dy":0.0162,"dx":0.0185,"nx":115,"ny":88,"refTime":"2023-08-19T06:00:00:Z","depth":0,"parameterNumber":3,"parameterNumberName":"V-component_of_WINDS"},"data":[0.0,0.0,0.0,0.0,0.0,0.0,0.0,0.0,0.0,0.0,0.0,0.0,0.0,0.0,0.0,0.0,0.0,0.0,0.0,0.0,0.0,0.0,0.0,0.0,0.0,0.0,0.0,0.0,0.0,0.0,0.0,0.0,0.0,0.0,0.0,0.0,0.0,0.0,0.0,0.0,0.0,0.0,0.0,0.0,0.0,0.0,0.0,0.0,0.0,0.0,0.0,0.0,0.0,0.0,0.0,0.0,0.0,0.0,0.0,0.0,0.0,0.0,0.0,0.0,0.0,0.0,0.0,0.0,0.0,0.0,0.0,0.0,0.0,0.0,0.0,0.0,0.0,0.0,0.0,0.0,0.0,0.0,0.0,0.0,0.0,0.0,0.0,0.0,0.0,0.0,0.0,0.0,0.0,0.0,0.0,0.0,0.0,0.0,0.0,0.0,0.0,0.0,0.0,0.0,0.0,0.0,0.0,0.0,0.0,0.0,0.0,0.0,0.0,0.0,0.0,0.0,0.0,0.0,0.0,0.0,0.0,0.0,0.0,0.0,0.0,0.0,0.0,0.0,0.0,0.0,0.0,0.0,0.0,0.0,0.0,0.0,0.0,0.0,0.0,0.0,0.0,0.0,0.0,0.0,0.0,0.0,0.0,0.0,0.0,0.0,0.0,0.0,0.0,0.0,0.0,0.0,0.0,0.0,0.0,0.0,0.0,0.0,0.0,0.0,0.0,0.0,0.0,0.0,0.0,0.0,0.0,0.0,0.0,0.0,0.0,0.0,0.0,0.0,0.0,0.0,0.0,0.0,0.0,0.0,0.0,0.0,0.0,0.0,0.0,0.0,0.0,0.0,0.0,0.0,0.0,0.0,0.0,0.0,0.0,0.0,0.0,0.0,0.0,0.0,0.0,0.0,0.0,0.0,0.0,0.0,0.0,0.0,0.0,0.0,0.0,0.0,0.0,0.0,0.0,0.0,0.0,0.0,0.0,0.0,0.0,0.0,0.0,0.0,0.0,0.0,0.0,0.0,0.0,0.0,0.0,0.0,0.0,0.0,0.0,0.0,0.0,0.0,0.0,0.0,0.0,0.0,0.0,0.0,0.0,0.0,0.0,0.0,0.0,0.0,0.0,0.0,0.0,0.0,0.0,0.0,0.0,0.0,0.0,0.0,0.0,0.0,0.0,0.0,0.0,0.0,0.0,0.0,0.0,0.0,0.0,0.0,0.0,0.0,0.0,0.0,0.0,0.0,0.0,0.0,0.0,0.0,0.0,0.0,0.0,0.0,0.0,0.0,0.0,0.0,0.0,0.0,0.0,0.0,0.0,0.0,0.0,0.0,0.0,0.0,0.0,0.0,0.0,0.0,0.0,0.0,0.0,0.0,0.0,0.0,0.0,0.0,0.0,0.0,0.0,0.0,0.0,0.0,0.0,0.0,0.0,0.0,0.0,0.0,0.0,0.0,0.0,0.0,0.0,0.0,0.0,0.0,0.0,0.0,0.0,0.0,0.0,0.0,0.0,0.0,0.0,0.0,0.0,0.0,0.0,0.0,0.0,0.0,0.0,0.0,0.0,0.0,0.0,0.0,0.0,0.0,0.0,0.0,0.0,0.0,0.0,0.0,0.0,0.0,0.0,0.0,0.0,0.0,0.0,0.0,0.0,0.0,0.0,0.0,0.0,0.0,0.0,0.0,0.0,0.0,0.0,0.0,0.0,0.0,0.0,0.0,0.0,0.0,0.0,0.0,0.0,0.0,0.0,0.0,0.0,0.0,0.0,0.0,0.0,0.0,0.0,0.0,0.0,0.0,0.0,0.0,0.0,0.0,0.0,0.0,0.0,0.0,0.0,0.0,0.0,0.0,0.0,0.0,0.0,0.0,0.0,0.0,0.0,0.0,0.0,0.0,0.0,0.0,0.0,0.0,0.0,0.0,0.0,0.0,0.0,0.0,0.0,0.0,0.0,0.0,0.0,0.0,0.0,0.0,0.0,0.0,0.0,0.0,0.0,0.0,0.0,0.0,0.0,0.0,0.0,0.0,0.0,0.0,0.0,0.0,0.0,0.0,0.0,0.0,0.0,0.0,0.0,0.0,0.0,0.0,0.0,0.0,0.0,0.0,0.0,0.0,0.0,0.0,0.0,0.0,0.0,0.0,0.0,0.0,0.0,0.0,0.0,0.0,0.0,0.0,0.0,0.0,0.0,0.0,0.0,0.0,0.0,0.0,0.0,0.0,0.0,0.0,0.0,0.0,0.0,0.0,0.0,0.0,0.0,0.0,0.0,0.0,0.0,0.0,0.0,0.0,0.0,0.0,0.0,0.0,0.0,0.0,0.0,0.0,0.0,0.0,0.0,0.0,0.0,0.0,0.0,0.0,0.0,0.0,0.0,0.0,0.0,0.0,0.0,0.0,0.0,0.0,0.0,0.0,0.0,0.0,0.0,0.0,0.0,0.0,0.0,0.0,0.0,0.0,0.0,0.0,0.0,0.0,0.0,0.0,0.0,0.0,0.0,0.0,0.0,0.0,0.0,0.0,0.0,0.0,0.0,0.0,0.0,0.0,0.0,0.0,0.0,0.0,0.0,0.0,0.0,0.0,0.0,0.0,0.0,0.0,0.0,0.0,0.0,0.0,0.0,0.0,0.0,0.0,0.0,0.0,0.0,0.0,0.0,0.0,0.0,0.0,0.0,0.0,0.0,0.0,0.0,0.0,0.0,0.0,0.0,0.0,0.0,0.0,0.0,0.0,0.0,0.0,0.0,0.0,0.0,0.0,0.0,0.0,0.0,0.0,0.0,0.0,0.0,0.0,0.0,0.0,0.0,0.0,0.0,0.0,0.0,0.0,0.0,0.0,0.0,0.0,0.0,0.0,0.0,0.0,0.0,0.0,0.0,0.0,0.0,0.0,0.0,0.0,0.0,0.0,0.0,0.0,0.0,0.0,0.0,0.0,0.0,0.0,0.0,0.0,0.0,0.0,0.0,0.0,0.0,0.0,0.0,0.0,0.0,0.0,0.0,0.0,0.0,0.0,0.0,0.0,0.0,0.0,0.0,0.0,0.0,0.0,0.0,0.0,0.0,0.0,0.0,0.0,0.0,0.0,0.0,0.0,0.0,0.0,0.0,0.0,0.0,0.0,0.0,0.0,0.0,0.0,0.0,0.0,0.0,0.0,0.0,0.0,0.0,0.0,0.0,0.0,0.0,0.0,0.0,0.0,0.0,0.0,0.0,0.0,0.0,0.0,0.0,0.0,0.0,0.0,0.0,0.0,0.0,0.0,0.0,0.0,0.0,0.0,0.0,0.0,0.0,0.0,0.0,0.0,0.0,0.0,0.0,0.0,0.0,0.0,0.0,0.0,0.0,0.0,0.0,0.0,0.0,0.0,0.0,0.0,0.0,0.0,0.0,0.0,0.0,0.0,0.0,0.0,0.0,0.0,0.0,0.0,0.0,0.0,0.0,0.0,0.0,0.0,0.0,0.0,0.0,0.0,0.0,0.0,0.0,0.0,0.0,0.0,0.0,0.0,0.0,0.0,0.0,0.0,0.0,0.0,0.0,0.0,0.0,0.0,0.0,0.0,0.0,0.0,0.0,0.0,0.0,0.0,0.0,0.0,0.0,0.0,0.0,0.0,0.0,0.0,0.0,0.0,0.0,0.0,0.0,0.0,0.0,0.0,0.0,0.0,0.0,0.0,0.0,0.0,0.0,0.0,0.0,0.0,0.0,0.0,0.0,0.0,0.0,0.0,0.0,0.0,0.0,0.0,0.0,0.0,0.0,0.0,0.0,0.0,0.0,0.0,0.0,0.0,0.0,0.0,0.0,0.0,0.0,0.0,0.0,0.0,0.0,0.0,0.0,0.0,0.0,0.0,0.0,0.0,0.0,0.0,0.0,0.0,0.0,0.0,0.0,0.0,0.0,0.0,0.0,0.0,0.0,0.0,0.0,0.0,0.0,0.0,0.0,0.0,0.0,0.0,0.0,0.0,0.0,0.0,0.0,0.0,0.0,0.0,0.0,0.0,0.0,0.0,0.0,0.0,0.0,0.0,0.0,0.0,0.0,0.0,0.0,0.0,0.0,0.0,0.0,0.0,0.0,0.0,0.0,0.0,0.0,0.0,0.0,0.0,0.0,0.0,0.0,0.0,0.0,0.0,0.0,0.0,0.0,0.0,0.0,0.0,0.0,0.0,0.0,0.0,0.0,0.0,0.0,0.0,0.0,0.0,0.0,0.0,0.0,0.0,0.0,0.0,0.0,0.0,0.0,0.0,0.0,0.0,0.347,0.0,0.0,0.0,0.0,0.0,0.0,0.0,0.0,0.0,0.0,0.0,0.0,0.0,0.0,0.0,0.0,0.0,0.0,0.0,0.0,0.0,0.0,0.0,0.0,0.0,0.0,0.0,0.0,0.0,0.0,0.0,0.0,0.0,0.0,0.0,0.0,0.0,0.0,0.0,0.0,0.0,0.0,0.0,0.0,0.0,0.0,0.0,0.0,0.0,0.0,0.0,0.0,0.0,0.0,0.0,0.0,0.0,0.0,0.0,0.0,0.0,0.0,0.0,0.0,0.0,0.0,0.0,0.0,0.0,0.0,0.0,0.0,0.0,0.0,0.0,0.0,0.0,0.0,0.0,0.0,0.0,0.0,0.0,0.0,0.0,0.0,0.0,0.0,0.0,0.0,0.0,0.0,0.0,0.0,0.0,0.0,0.0,0.0,0.0,0.0,0.0,0.0,0.0,0.0,0.0,0.0,0.0,0.0,0.0,0.0,0.6444,0.5222,0.4882,0.3932,0.2248,0.0,0.0,0.0,0.0,0.0,0.0,0.0,0.0,0.0,0.0,0.0,0.0,0.0,0.0,0.0,0.0,0.0,0.0,0.0,0.0,0.0,0.0,0.0,0.0,0.0,0.0,0.0,0.0,0.0,0.0,0.0,0.0,0.0,0.0,0.0,0.0,0.0,0.0,0.0,0.0,0.0,0.0,0.0,0.0,0.0,0.0,0.0,0.0,0.0,0.0,0.0,0.0,0.0,0.0,0.0,0.0,0.0,0.0,0.0,0.0,0.0,0.0,0.0,0.0,0.0,0.0,0.0,0.0,0.0,0.0,0.0,0.0,0.0,0.0,0.0,0.0,0.0,0.0,0.0,0.0,0.0,0.0,0.0,0.0,0.0,0.0,0.0,0.0,0.0,0.0,0.0,0.0,0.0,0.0,0.0,0.0,0.0,0.0,0.0,0.0,0.0,0.0,0.0,0.0,0.0,0.0,0.0,0.0,0.0,0.0,0.0,0.0,0.4038,0.2838,0.1082,0.0,0.0,0.0,0.0,0.0,0.0,0.0,0.0,0.0,0.0,0.0,0.0,0.0,0.0,0.0,0.0,0.0,0.0,0.0,0.0,0.0,0.0,0.0,0.0,0.0,0.0,0.0,0.0,0.0,0.0,0.0,0.0,0.0,0.0,0.0,0.0,0.0,0.0,0.0,0.0,0.0,0.0,0.0,0.0,0.0,0.0,0.0,0.0,0.0,0.0,0.0,0.0,0.0,0.0,0.0,0.0,0.0,0.0,0.0,0.0,0.0,0.0,0.0,0.0,0.0,0.0,0.0,0.0,0.0,0.0,0.0,0.0,0.0,0.0,0.0,0.0,0.0,0.0,0.0,0.0,0.0,0.0,0.0,0.0,0.0,0.0,0.0,0.0,0.0,0.0,0.0,0.0,0.0,0.0,0.0,0.0,0.0,0.0,0.0,0.0,0.0,0.0,0.0,0.0,0.0,0.0,0.0,0.0,0.0,0.0,0.6002,0.4894,0.341,0.0,0.0496,0.0,0.0,0.0,0.0,0.0,0.0,0.0,0.0,0.0,0.0,0.0,0.0,0.0,0.0,0.0,0.0,0.0,0.0,0.0,0.0,0.0,0.0,0.0,0.0,0.0,0.0,0.0,0.0,0.0,0.0,0.0,0.0,0.0,0.0,0.0,0.0,0.0,0.0,0.0,0.0,0.0,0.0,0.0,0.0,0.0,0.0,0.0,0.0,0.0,0.0,0.0,0.0,0.0,0.0,0.0,0.0,0.0,0.0,0.0,0.0,0.0,0.0,0.0,0.0,0.0,0.0,0.0,0.0,0.0,0.0,0.0,0.0,0.0,0.0,0.0,0.0,0.0,0.0,0.0,0.0,0.0,0.0,0.0,0.0,0.0,0.0,0.0,0.0,0.0,0.0,0.0,0.0,0.0,0.0,0.0,0.0,0.0,0.0,0.0,0.0,0.0,0.0,0.0,0.0,0.0,0.0,0.0,0.0,0.0,0.0,0.5379,0.3682,0.1717,0.0377,0.0,0.0,0.0,0.0,0.0,0.0,0.0,0.0,0.0,0.0,0.0,0.0,0.0,0.0,0.0,0.0,0.0,0.0,0.0,0.0,0.0,0.0,0.0,0.0,0.0,0.0,0.0,0.0,0.0,0.0,0.0,0.0,0.0,0.0,0.0,0.0,0.0,0.0,0.0,0.0,0.0,0.0,0.0,0.0,0.0,0.0,0.0,0.0,0.0,0.0,0.0,0.0,0.0,0.0,0.0,0.0,0.0,0.0,0.0,0.0,0.0,0.0,0.0,0.0,0.0,0.0,0.0,0.0,0.0,0.0,0.0,0.0,0.0,0.0,0.0,0.0,0.0,0.0,0.0,0.0,0.0,0.0,0.0,0.0,0.0,0.0,0.0,0.0,0.0,0.0,0.0,0.0,0.0,0.0,0.0,0.0,0.0,0.0,0.0,0.0,0.0,0.0,0.0,0.0,0.0,0.0,0.0,0.0,0.0,0.0,0.5325,0.4304,0.1981,0.0162,-0.0836,-0.0983,0.0,0.0,0.0,0.0,0.0,0.0,0.0,0.0,0.0,0.0,0.0,0.0,0.0,0.0,0.0,0.0,0.0,0.0,0.0,0.0,0.0,0.0,0.0,0.0,0.0,0.0,0.0,0.0,0.0,0.0,0.0,0.0,0.0,0.0,0.0,0.0,0.0,0.0,0.0,0.0,0.0,0.0,0.0,0.0,0.0,0.0,0.0,0.0,0.0,0.0,0.0,0.0,0.0,0.0,0.0,0.0,0.0,0.0,0.0,0.0,0.0,0.0,0.0,0.0,0.0,0.0,0.0,0.0,0.0,0.0,0.0,0.0,0.0,0.0,0.0,0.0,0.0,0.0,0.0,0.0,0.0,0.0,0.0,0.0,0.0,0.0,0.0,0.0,0.0,0.0,0.0,0.0,0.0,0.0,0.0,0.0,0.0,0.0,0.0,0.0,0.0,0.0,0.0,0.0,0.0,0.0,0.0,0.0,0.5424,0.454,0.2686,-0.0087,-0.0908,-0.1501,0.0,0.0,0.0,0.0,0.0,0.0,0.0,0.0,0.0,0.0,0.0,0.0,0.0,0.0,0.0,0.0,0.0,0.0,0.0,0.0,0.0,0.0,0.0,0.0,0.0,0.0,0.0,0.0,0.0,0.0,0.0,0.0,0.0,0.0,0.0,0.0,0.0,0.0,0.0,0.0,0.0,0.0,0.0,0.0,0.0,0.0,0.0,0.0,0.0,0.0,0.0,0.0,0.0,0.0,0.0,0.0,0.0,0.0,0.0,0.0,0.0,0.0,0.0,0.0,0.0,0.0,0.0,0.0,0.0,0.0,0.0,0.0,0.0,0.0,0.0,0.0,0.0,0.0,0.0,0.0,0.0,0.0,0.0,0.0,0.0,0.0,0.0,0.0,0.0,0.0,0.0,0.0,0.0,0.0,0.0,0.0,0.0,0.0,0.0,0.0,0.0,0.0,0.0,0.0,0.0,0.0,0.0,0.0,0.0,0.3985,0.2714,0.146,0.032,-0.094,-0.1654,0.0,0.0,0.0,0.0,0.0,0.0,0.0,0.0,0.0,0.0,0.0,0.0,0.0,0.0,0.0,0.0,0.0,0.0,0.0,0.0,0.0,0.0,0.0,0.0,0.0,0.0,0.0,0.0,0.0,0.0,0.0,0.0,0.0,0.0,0.0,0.0,0.0,0.0,0.0,0.0,0.0,0.0,0.0,0.0,0.0,0.0,0.0,0.0,0.0,0.0,0.0,0.0,0.0,0.0,0.0,0.0,0.0,0.0,0.0,0.0,0.0,0.0,0.0,0.0,0.0,0.0,0.0,0.0,0.0,0.0,0.0,0.0,0.0,0.0,0.0,0.0,0.0,0.0,0.0,0.0,0.0,0.0,0.0,0.0,0.0,0.0,0.0,0.0,0.0,0.0,0.0,0.0,0.0,0.0,0.0,0.0,0.0,0.0,0.0,0.0,0.0,0.0,0.0,0.0,0.0,0.0,0.0,0.0,0.0,0.2821,0.0,0.03,-0.0091,-0.1677,-0.2462,0.0,0.0,0.0,0.0,0.0,0.0,0.0,0.0,0.0,0.0,0.0,0.0,0.0,0.0,0.0,0.0,0.0,0.0,0.0,0.0,0.0,0.0,0.0,0.0,0.0,0.0,0.0,0.0,0.0,0.0,0.0,0.0,0.0,0.0,0.0,0.0,0.0,0.0,0.0,0.0,0.0,0.0,0.0,0.0,0.0,0.0,0.0,0.0,0.0,0.0,0.0,0.0,0.0,0.0,0.0,0.0,0.0,0.0,0.0,0.0,0.0,0.0,0.0,0.0,0.0,0.0,0.0,0.0,0.0,0.0,0.0,0.0,0.0,0.0,0.0,0.0,0.0,0.0,0.0,0.0,0.0,0.0,0.0,0.0,0.0,0.0,0.0,0.0,0.0,0.0,0.0,0.0,0.0,0.0,0.0,0.0,0.0,0.0,0.0,0.0,0.0,0.0,0.0,0.0,0.0,0.0,0.0,0.0,0.3163,0.1962,0.04,-0.0848,-0.1685,-0.3187,-0.3951,0.0,0.0,0.0,0.0,0.0,0.0,0.0,0.0,0.0,0.0,0.0,0.0,0.0,0.0,0.0,0.0,0.0,0.0,0.0,0.0,0.0,0.0,0.0,0.0,0.0,0.0,0.0,0.0,0.0,0.0,0.0,0.0,0.0,0.0,0.0,0.0,0.0,0.0,0.0,0.0,0.0,0.0,0.0,0.0,0.0,0.0,0.0,0.0,0.0,0.0,0.0,0.0,0.0,0.0,0.0,0.0,0.0,0.0,0.0,0.0,0.0,0.0,0.0,0.0,0.0,0.0,0.0,0.0,0.0,0.0,0.0,0.0,0.0,0.0,0.0,0.0,0.0,0.0,0.0,0.0,0.0,0.0,0.0,0.0,0.0,0.0,0.0,0.0,0.0,0.0,0.0,0.0,0.0,0.0,0.0,0.0,0.0,0.0,0.0,0.0,0.0,0.0,0.0,0.0,0.0,0.0,0.0,0.0,0.0,0.048,-0.1431,-0.2596,-0.2817,-0.358,-0.3941,0.0,0.0,0.0,0.0,0.0,0.0,0.0,0.0,0.0,0.0,0.0,0.0,0.0,0.0,0.0,0.0,0.0,0.0,0.0,0.0,0.0,0.0,0.0,0.0,0.0,0.0,0.0,0.0,0.0,0.0,0.0,0.0,0.0,0.0,0.0,0.0,0.0,0.0,0.0,0.0,0.0,0.0,0.0,0.0,0.0,0.0,0.0,0.0,0.0,0.0,0.0,0.0,0.0,0.0,0.0,0.0,0.0,0.0,0.0,0.0,0.0,0.0,0.0,0.0,0.0,0.0,0.0,0.0,0.0,0.0,0.0,0.0,0.0,0.0,0.0,0.0,0.0,0.0,0.0,0.0,0.0,0.0,0.0,0.0,0.0,0.0,0.0,0.0,0.0,0.0,0.0,0.0,0.0,0.0,0.0,0.0,0.0,0.0,0.0,0.0,0.0,0.0,0.0,0.0,0.0,0.0,0.0,0.0,0.0,-0.1182,-0.2934,-0.3832,-0.3757,-0.4314,-0.4449,-0.4154,0.0,0.0,0.0,0.0,0.0,0.0,0.0,0.0,0.0,0.0,0.0,0.0,0.0,0.0,0.0,0.0,0.0,0.0,0.0,0.0,0.0,0.0,0.0,0.0,0.0,0.0,0.0,0.0,0.0,0.0,0.0,0.0,0.0,0.0,0.0,0.0,0.0,0.0,0.0,0.0,0.0,0.0,0.0,0.0,0.0,0.0,0.0,0.0,0.0,0.0,0.0,0.0,0.0,0.0,0.0,0.0,0.0,0.0,0.0,0.0,0.0,0.0,0.0,0.0,0.0,0.0,0.0,0.0,0.0,0.0,0.0,0.0,0.0,0.0,0.0,0.0,0.0,0.0,0.0,0.0,0.0,0.0,0.0,0.0,0.0,0.0,0.0,0.0,0.0,0.0,0.0,0.0,0.0,0.0,0.0,0.0,0.0,0.0,0.0,0.0,0.0,0.0,0.0,0.0,0.0,0.0,0.0,0.0,-0.2816,-0.4081,-0.4759,-0.4694,-0.5331,-0.539,0.0,0.0,0.0,0.0,0.0,0.0,0.0,0.0,0.0,0.0,0.0,0.0,0.0,0.0,0.0,0.0,0.0,0.0,0.0,0.0,0.0,0.0,0.0,0.0,0.0,0.0,0.0,0.0,0.0,0.0,0.0,0.0,0.0,0.0,0.0,0.0,0.0,0.0,0.0,0.0,0.0,0.0,0.0,0.0,0.0,0.0,0.0,0.0,0.0,0.0,0.0,0.0,0.0,0.0,0.0,0.0,0.0,0.0,0.0,0.0,0.0,0.0,0.0,0.0,0.0,0.0,0.0,0.0,0.0,0.0,0.0,0.0,0.0,0.0,0.0,0.0,0.0,0.0,0.0,0.0,0.0,0.0,0.0,0.0,0.0,0.0,0.0,0.0,0.0,0.0,0.0,0.0,0.0,0.0,0.0,0.0,0.0,0.0,0.0,0.0,0.0,0.0,0.0,0.0,0.0,0.0,0.0,0.0,0.0,-0.3012,-0.5247,-0.6543,-0.6768,-0.6703,-0.6386,0.0,0.0,0.0,0.0,0.0,0.0,0.0,0.0,0.0,0.0,0.0,0.0,0.0,0.0,0.0,0.0,0.0,0.0,0.0,0.0,0.0,0.0,0.0,0.0,0.0,0.0,0.0,0.0,0.0,0.0,0.0,0.0,0.0,0.0,0.0,0.0,0.0,0.0,0.0,0.0,0.0,0.0,0.0,0.0,0.0,0.0,0.0,0.0,0.0,0.0,0.0,0.0,0.0,0.0,0.0,0.0,0.0,0.0,0.0,0.0,0.0,0.0,0.0,0.0,0.0,0.0,0.0,0.0,0.0,0.0,0.0,0.0,0.0,0.0,0.0,0.0,0.0,0.0,0.0,0.0,0.0,0.0,0.0,0.0,0.0,0.0,0.0,0.0,0.0,0.0,0.0,0.0,0.0,0.0,0.0,0.0,0.0,0.0,0.0,0.0,0.0,0.0,0.0,0.0,0.0,0.0,0.0,0.0,-0.28,-0.3888,-0.6045,-0.7405,-0.7889,-0.7472,-0.6933,0.0,0.0,0.0,0.0,0.0,0.0,0.0,0.0,0.0,0.0,0.0,0.0,0.0,0.0,0.0,0.0,0.0,0.0,0.0,0.0,0.0,0.0,0.0,0.0,0.0,0.0,0.0,0.0,0.0,0.0,0.0,0.0,0.0,0.0,0.0,0.0,0.0,0.0,0.0,0.0,0.0,0.0,0.0,0.0,0.0,0.0,0.0,0.0,0.0,0.0,0.0,0.0,0.0,0.0,0.0,0.0,0.0,0.0,0.0,0.0,0.0,0.0,0.0,0.0,0.0,0.0,0.0,0.0,0.0,0.0,0.0,0.0,0.0,0.0,0.0,0.0,0.0,0.0,0.0,0.0,0.0,0.0,0.0,0.0,0.0,0.0,0.0,0.0,0.0,0.0,0.0,0.0,0.0,0.0,0.0,0.0,0.0,0.0,0.0,0.0,0.0,0.0,0.0,0.0,0.0,0.0,0.0,0.0,-0.3336,-0.5076,-0.6497,-0.7584,-0.8365,-0.7859,-0.7247,0.0,0.0,0.0,0.0,0.0,0.0,0.0,0.0,0.0,0.0,0.0,0.0,0.0,0.0,0.0,0.0,0.0,0.0,0.0,0.0,0.0,0.0,0.0,0.0,0.0,0.0,0.0,0.0,0.0,0.0,0.0,0.0,0.0,0.0,0.0,0.0,0.0,0.0,0.0,0.0,0.0,0.0,0.0,0.0,0.0,0.0,0.0,0.0,0.0,0.0,0.0,0.0,0.0,0.0,0.0,0.0,0.0,0.0,0.0,0.0,0.0,0.0,0.0,0.0,0.0,0.0,0.0,0.0,0.0,0.0,0.0,0.0,0.0,0.0,0.0,0.0,0.0,0.0,0.0,0.0,0.0,0.0,0.0,0.0,0.0,0.0,0.0,0.0,0.0,0.0,0.0,0.0,0.0,0.0,0.0,0.0,0.0,0.0,0.0,0.0,0.0,0.0,0.0,0.0,0.0,0.0,0.0,0.0,-0.3634,-0.523,-0.6741,-0.7789,-0.8379,-0.8208,-0.7735,0.0,0.0,0.0,0.0,0.0,0.0,0.0,0.0,0.0,0.0,0.0,0.0,0.0,0.0,0.0,0.0,0.0,0.0,0.0,0.0,0.0,0.0,0.0,0.0,0.0,0.0,0.0,0.0,0.0,0.0,0.0,0.0,0.0,0.0,0.0,0.0,0.0,0.0,0.0,0.0,0.0,0.0,0.0,0.0,0.0,0.0,0.0,0.0,-0.928,0.0,0.0,0.0,0.0,0.0,0.0,0.0,0.0,0.0,0.0,0.0,0.0,0.0,0.0,0.0,0.0,0.0,0.0,0.0,0.0,0.0,0.0,0.0,0.0,0.0,0.0,0.0,0.0,0.0,0.0,0.0,0.0,0.0,0.0,0.0,0.0,0.0,0.0,0.0,0.0,0.0,0.0,0.0,0.0,0.0,0.0,0.0,0.0,0.0,0.0,0.0,0.0,0.0,0.0,0.0,0.0,0.0,0.0,0.0,-0.4529,-0.6098,-0.7085,-0.7889,-0.8574,-0.8564,-0.8326,0.0,0.0,0.0,0.0,0.0,0.0,0.0,0.0,0.0,0.0,0.0,0.0,0.0,0.0,0.0,0.0,0.0,0.0,0.0,0.0,0.0,0.0,0.0,0.0,0.0,0.0,0.0,0.0,0.0,0.0,0.0,0.0,0.0,0.0,0.0,0.0,0.0,0.0,0.0,0.0,0.0,0.0,0.0,0.0,0.0,0.0,0.0,0.0,0.0,0.0,0.0,0.0,0.0,0.0,0.0,0.0,0.0,0.0,0.0,0.0,0.0,0.0,0.0,0.0,0.0,0.0,0.0,0.0,0.0,0.0,0.0,0.0,0.0,0.0,0.0,0.0,0.0,0.0,0.0,0.0,0.0,0.0,0.0,0.0,0.0,0.0,0.0,0.0,0.0,0.0,0.0,0.0,0.0,0.0,0.0,0.0,0.0,0.0,0.0,0.0,0.0,0.0,0.0,0.0,0.0,0.0,0.0,-0.3995,-0.5457,-0.707,-0.7539,-0.8091,-0.8775,-0.8829,-0.8828,-0.8749,0.0,0.0,0.0,0.0,0.0,0.0,0.0,0.0,0.0,0.0,0.0,0.0,0.0,0.0,0.0,0.0,0.0,0.0,0.0,0.0,0.0,0.0,0.0,0.0,0.0,0.0,0.0,0.0,0.0,0.0,0.0,0.0,0.0,0.0,0.0,0.0,0.0,0.0,-0.2858,-0.4231,0.0,0.0,0.0,0.0,0.0,0.0,0.0,0.0,-1.2451,0.0,0.0,0.0,0.0,0.0,0.0,0.0,0.0,0.0,0.0,0.0,0.0,0.0,0.0,0.0,0.0,0.0,0.0,0.0,0.0,0.0,0.0,0.0,0.0,0.0,0.0,0.0,0.0,0.0,0.0,0.0,0.0,0.0,0.0,0.0,0.0,0.0,0.0,0.0,0.0,0.0,0.0,0.0,0.0,0.0,0.0,0.0,0.0,0.0,0.0,0.0,0.0,0.0,0.0,0.0,0.0,-0.2951,-0.4047,-0.5497,-0.7294,-0.7939,-0.8432,-0.8775,-0.9034,-0.9116,-0.8977,0.0,0.0,0.0,0.0,0.0,0.0,0.0,0.0,0.0,0.0,0.0,0.0,0.0,0.0,0.0,0.0,0.0,0.0,0.0,0.0,0.0,0.0,0.0,0.0,0.0,0.0,0.0,0.0,0.0,0.0,0.0,0.0,0.0,0.0,0.0,0.0,0.0,0.0,0.0,-0.6591,-0.7984,0.0,0.0,0.0,0.0,0.0,0.0,0.0,0.0,-1.3819,0.0,0.0,0.0,0.0,0.0,0.0,0.0,0.0,0.0,0.0,0.0,0.0,0.0,0.0,0.0,0.0,0.0,0.0,0.0,0.0,0.0,0.0,0.0,0.0,0.0,0.0,0.0,0.0,0.0,0.0,0.0,0.0,0.0,0.0,0.0,0.0,0.0,0.0,0.0,0.0,0.0,0.0,0.0,0.0,0.0,0.0,0.0,0.0,0.0,0.0,0.0,0.0,0.0,0.0,0.0,-0.3718,-0.5117,-0.667,-0.8192,-0.8867,-0.9657,-1.0431,-0.9914,-0.9547,0.0,0.0,0.0,0.0,0.0,0.0,0.0,0.0,0.0,0.0,0.0,0.0,0.0,0.0,0.0,0.0,0.0,0.0,0.0,0.0,0.0,0.0,0.0,0.0,0.0,0.0,0.0,0.0,0.0,0.0,0.0,0.0,0.0,0.0,0.0,0.0,0.0,0.0,0.0,0.0,-0.7558,-0.8801,-0.9959,0.0,0.0,0.0,0.0,0.0,0.0,-1.5053,-1.5605,0.0,0.0,0.0,0.0,0.0,0.0,0.0,0.0,0.0,0.0,0.0,0.0,0.0,0.0,0.0,0.0,0.0,0.0,0.0,0.0,0.0,0.0,0.0,0.0,0.0,0.0,0.0,0.0,0.0,0.0,0.0,0.0,0.0,0.0,0.0,0.0,0.0,0.0,0.0,0.0,0.0,0.0,0.0,0.0,0.0,0.0,0.0,0.0,0.0,0.0,0.0,0.0,0.0,0.0,0.0,-0.4452,-0.6096,-0.7643,-0.8987,-0.9759,-1.0726,-1.1848,-1.101,-1.025,0.0,0.0,0.0,0.0,0.0,0.0,0.0,0.0,0.0,0.0,0.0,0.0,0.0,0.0,0.0,0.0,0.0,0.0,0.0,0.0,0.0,0.0,0.0,0.0,0.0,0.0,0.0,0.0,0.0,0.0,0.0,0.0,0.0,0.0,0.0,0.0,0.0,0.0,0.0,0.0,0.0,-0.9788,-1.1478,-1.2567,0.0,0.0,0.0,0.0,-1.586,-1.6718,0.0,0.0,0.0,0.0,0.0,0.0,0.0,0.0,0.0,0.0,0.0,0.0,0.0,0.0,0.0,0.0,0.0,0.0,0.0,0.0,0.0,0.0,0.0,0.0,0.0,0.0,0.0,0.0,0.0,0.0,0.0,0.0,0.0,0.0,0.0,0.0,0.0,0.0,0.0,0.0,0.0,0.0,0.0,0.0,0.0,0.0,0.0,0.0,0.0,0.0,0.0,0.0,0.0,0.0,0.0,0.0,-0.4699,-0.6043,-0.7531,-0.9147,-1.0191,-1.1006,-1.1614,-1.2116,-1.1431,0.0,0.0,0.0,0.0,0.0,0.0,0.0,0.0,0.0,0.0,0.0,0.0,0.0,0.0,0.0,0.0,0.0,0.0,0.0,0.0,0.0,0.0,0.0,0.0,0.0,0.0,0.0,0.0,0.0,0.0,0.0,0.0,0.0,0.0,0.0,0.0,0.0,0.0,0.0,0.0,0.0,-1.2138,-1.3264,-1.4388,-1.5488,0.0,0.0,-1.7533,-1.7786,-1.8164,0.0,0.0,0.0,0.0,0.0,0.0,0.0,0.0,0.0,0.0,0.0,0.0,0.0,0.0,0.0,0.0,0.0,0.0,0.0,0.0,0.0,0.0,0.0,0.0,0.0,0.0,0.0,0.0,0.0,0.0,0.0,0.0,0.0,0.0,0.0,0.0,0.0,0.0,0.0,0.0,0.0,0.0,0.0,0.0,0.0,0.0,0.0,0.0,0.0,0.0,0.0,0.0,0.0,0.0,0.0,-0.5212,-0.5256,-0.6891,-0.858,-1.0229,-1.1308,-1.2341,-1.3341,-1.2923,-1.1775,0.0,0.0,0.0,0.0,0.0,0.0,0.0,0.0,0.0,0.0,0.0,0.0,0.0,0.0,0.0,0.0,0.0,0.0,0.0,0.0,0.0,0.0,0.0,0.0,0.0,0.0,0.0,0.0,0.0,0.0,0.0,0.0,0.0,0.0,0.0,0.0,0.0,0.0,0.0,0.0,0.0,0.0,-1.4556,-1.5607,0.0,0.0,0.0,-1.9222,-1.9458,0.0,0.0,0.0,0.0,0.0,0.0,0.0,0.0,0.0,0.0,0.0,0.0,0.0,0.0,0.0,0.0,0.0,0.0,0.0,0.0,0.0,0.0,0.0,0.0,0.0,0.0,0.0,0.0,0.0,0.0,0.0,0.0,0.0,0.0,0.0,0.0,0.0,0.0,0.0,0.0,0.0,0.0,0.0,0.0,0.0,0.0,0.0,0.0,0.0,0.0,0.0,0.0,0.0,0.0,0.0,0.0,0.0,-0.6108,-0.771,-0.9504,-1.1461,-1.2398,-1.3461,-1.4631,-1.3674,0.0,0.0,0.0,0.0,0.0,0.0,0.0,0.0,0.0,0.0,0.0,0.0,0.0,0.0,0.0,0.0,0.0,0.0,0.0,0.0,0.0,0.0,0.0,0.0,0.0,0.0,0.0,-0.5352,0.0,0.0,0.0,0.0,0.0,0.0,0.0,0.0,0.0,0.0,0.0,0.0,0.0,0.0,-1.459,-1.6032,-1.7198,-1.8303,0.0,0.0,-2.0826,-2.0912,-2.0894,-2.0661,0.0,0.0,0.0,0.0,0.0,0.0,0.0,0.0,0.0,0.0,0.0,0.0,0.0,0.0,0.0,0.0,0.0,0.0,0.0,0.0,0.0,0.0,0.0,0.0,0.0,0.0,0.0,0.0,0.0,0.0,0.0,0.0,0.0,0.0,0.0,0.0,0.0,0.0,0.0,0.0,0.0,0.0,0.0,0.0,0.0,0.0,0.0,0.0,0.0,0.0,0.0,0.0,0.0,0.0,0.0,-0.7344,-0.8266,-0.9971,-1.2541,-1.313,-1.3736,-1.4551,-1.4454,-1.3377,0.0,0.0,0.0,0.0,0.0,0.0,0.0,0.0,0.0,0.0,0.0,0.0,0.0,0.0,0.0,0.0,0.0,0.0,0.0,0.0,0.0,0.0,0.0,0.0,0.0,0.0,0.0,0.0,0.0,0.0,0.0,0.0,0.0,0.0,0.0,0.0,0.0,0.0,0.0,0.0,0.0,-1.6276,-1.8029,-1.9568,-2.0932,0.0,0.0,-2.2078,-2.2078,-2.2076,-2.1545,-1.9989,0.0,0.0,0.0,0.0,0.0,0.0,0.0,0.0,0.0,0.0,0.0,0.0,0.0,0.0,0.0,0.0,0.0,0.0,0.0,0.0,0.0,0.0,0.0,0.0,0.0,0.0,0.0,0.0,0.0,0.0,0.0,0.0,0.0,0.0,0.0,0.0,0.0,0.0,0.0,0.0,0.0,0.0,0.0,0.0,0.0,0.0,0.0,0.0,0.0,0.0,0.0,0.0,0.0,-0.6511,-0.7667,-0.9247,-1.0976,-1.2738,-1.3332,-1.3893,-1.4366,-1.4278,-1.2987,0.0,0.0,0.0,0.0,0.0,0.0,0.0,0.0,0.0,0.0,0.0,0.0,0.0,0.0,0.0,0.0,0.0,0.0,0.0,0.0,0.0,0.0,0.0,0.0,0.0,0.0,0.0,0.0,-0.8248,-0.8365,-0.8107,0.0,0.0,0.0,0.0,0.0,0.0,0.0,0.0,0.0,0.0,-1.8039,-1.9107,-2.0746,0.0,0.0,-2.3001,-2.3141,-2.3119,-2.2073,-2.1113,-2.0663,-1.8227,0.0,0.0,0.0,0.0,0.0,0.0,0.0,0.0,0.0,0.0,0.0,0.0,0.0,0.0,0.0,0.0,0.0,0.0,0.0,0.0,0.0,0.0,0.0,0.0,0.0,0.0,0.0,0.0,0.0,0.0,0.0,0.0,0.0,0.0,0.0,0.0,0.0,0.0,0.0,0.0,0.0,0.0,0.0,0.0,0.0,0.0,0.0,0.0,0.0,0.0,0.0,0.0,-0.7162,-0.8573,-1.0242,-1.1815,-1.3274,-1.3672,-1.4033,-1.4291,-1.4084,-1.2751,0.0,0.0,0.0,0.0,0.0,0.0,0.0,0.0,0.0,0.0,0.0,0.0,0.0,0.0,0.0,0.0,0.0,0.0,0.0,0.0,0.0,0.0,0.0,0.0,0.0,0.0,0.0,0.0,-0.8877,-0.8712,-0.8075,0.0,0.0,0.0,0.0,0.0,0.0,0.0,0.0,0.0,0.0,-1.9607,-2.0474,-2.1929,-2.3043,-2.3412,-2.3508,-2.3537,-2.3525,-2.2274,-2.1174,-2.0854,0.0,0.0,0.0,0.0,0.0,0.0,0.0,0.0,0.0,0.0,0.0,0.0,0.0,0.0,0.0,0.0,0.0,0.0,0.0,0.0,0.0,0.0,0.0,0.0,0.0,0.0,0.0,0.0,0.0,0.0,-0.5428,0.0,0.0,0.0,0.0,0.0,0.0,0.0,0.0,0.0,0.0,0.0,0.0,0.0,0.0,0.0,0.0,0.0,0.0,0.0,0.0,0.0,0.0,-0.8068,-1.0407,-1.1125,-1.2466,-1.4326,-1.4242,-1.4229,-1.4446,-1.3926,-1.2919,-1.1479,0.0,0.0,0.0,0.0,0.0,0.0,0.0,0.0,0.0,0.0,0.0,0.0,0.0,0.0,0.0,0.0,0.0,0.0,0.0,0.0,0.0,0.0,0.0,0.0,0.0,0.0,-0.9157,-0.8731,-0.8321,0.0,0.0,0.0,0.0,0.0,0.0,0.0,0.0,0.0,0.0,-1.9133,-2.0858,-2.2366,-2.3353,-2.3999,-2.4415,-2.3781,-2.325,-2.3228,-2.2888,-2.2088,0.0,0.0,0.0,0.0,0.0,0.0,0.0,0.0,0.0,0.0,0.0,0.0,0.0,0.0,0.0,0.0,0.0,0.0,0.0,0.0,0.0,0.0,0.0,0.0,0.0,0.0,0.0,-0.6108,-0.6022,0.0,0.0,0.0,0.0,0.0,0.0,0.0,0.0,0.0,0.0,0.0,-0.9176,-0.9764,0.0,0.0,0.0,0.0,0.0,0.0,0.0,0.0,0.0,0.0,0.0,0.0,-0.8782,-1.0777,-1.1847,-1.2982,-1.4195,-1.4142,-1.4135,-1.4229,-1.4041,-1.3103,-1.1262,0.0,0.0,0.0,0.0,0.0,0.0,0.0,0.0,0.0,0.0,0.0,0.0,0.0,0.0,0.0,0.0,0.0,0.0,0.0,0.0,0.0,0.0,0.0,0.0,0.0,-0.9,0.0,0.0,0.0,0.0,0.0,0.0,0.0,0.0,0.0,0.0,0.0,-1.6739,-1.8566,-2.0314,-2.1827,-2.2929,-2.3995,-2.4689,0.0,0.0,0.0,0.0,0.0,0.0,0.0,0.0,0.0,0.0,0.0,0.0,0.0,0.0,-1.7476,-1.6083,-1.6123,-1.6395,-1.6533,0.0,0.0,0.0,0.0,0.0,0.0,0.0,0.0,0.0,0.0,0.0,0.0,0.0,0.0,-0.6692,0.0,-0.6563,0.0,0.0,0.0,0.0,0.0,0.0,0.0,0.0,-1.0965,-1.0907,-1.03,-1.0496,-0.9679,0.0,-0.8173,-0.7405,0.0,0.0,0.0,0.0,0.0,0.0,0.0,0.0,-0.9553,-1.1341,-1.2492,-1.3394,-1.4048,-1.4088,-1.3955,-1.361,-1.3117,-1.2093,-1.0465,-0.8771,-0.7602,0.0,0.0,0.0,0.0,0.0,0.0,0.0,0.0,0.0,0.0,0.0,0.0,0.0,0.0,0.0,0.0,0.0,0.0,0.0,0.0,0.0,0.0,0.0,-0.9207,0.0,0.0,0.0,0.0,0.0,0.0,0.0,0.0,0.0,-1.5133,-1.6766,-1.8506,-2.0118,-2.1703,-2.3022,-2.3806,0.0,0.0,0.0,0.0,0.0,0.0,0.0,-2.1691,-2.1272,-2.0084,-1.9027,-1.8566,-1.8829,-1.8994,-1.8643,0.0,0.0,-1.7466,-1.7362,-1.7458,-1.7498,-1.7598,-1.7864,-1.8407,-1.8508,-1.8739,0.0,0.0,0.0,0.0,0.0,0.0,0.0,0.0,-0.7347,-0.725,0.0,-0.7044,0.0,0.0,0.0,0.0,0.0,-1.0191,0.0,0.0,-1.1789,-1.1716,-1.1316,-1.0548,-0.9636,-0.8653,-0.8953,-0.8442,-0.7227,-0.7074,0.0,0.0,0.0,0.0,0.0,0.0,-1.0414,-1.2031,-1.3074,-1.374,-1.4075,-1.4088,-1.3688,-1.276,-1.1383,-1.0213,-0.9198,-0.8693,-0.781,-0.6506,-0.6213,0.0,0.0,0.0,0.0,0.0,0.0,0.0,0.0,0.0,0.0,0.0,0.0,0.0,0.0,0.0,0.0,0.0,0.0,0.0,0.0,-0.9484,0.0,0.0,0.0,0.0,0.0,0.0,0.0,0.0,0.0,0.0,-1.7179,-1.8636,-2.0198,-2.1736,0.0,0.0,0.0,0.0,-2.5052,-2.4861,-2.4566,-2.4337,-2.4302,-2.3529,-2.2582,-2.156,0.0,0.0,-1.9287,-1.9382,-1.9346,-1.8248,-1.841,-1.8765,-1.9231,-1.89,-1.8674,-1.8741,-1.8822,-1.925,-1.9965,-1.9967,-2.0252,-0.6155,0.0,0.0,0.0,0.0,-0.7656,-0.773,-0.7941,-0.7941,-0.7784,-0.748,-0.7432,0.0,0.0,0.0,0.0,0.0,0.0,-0.9354,-1.0369,-1.0603,-1.035,-0.9804,-0.957,-0.9087,-0.8301,-0.8311,-0.8102,-0.7789,-0.776,-0.7346,-0.6702,0.0,0.0,0.0,0.0,-1.1139,-1.1914,-1.3038,-1.3746,-1.4082,-1.4088,-1.3856,-1.3354,-1.1936,-1.079,-0.9972,-0.9306,-0.8329,-0.7056,-0.6448,0.0,0.0,0.0,0.0,0.0,0.0,0.0,0.0,0.0,0.0,0.0,0.0,0.0,0.0,0.0,0.0,0.0,0.0,0.0,-0.9477,-0.9937,-1.0457,0.0,0.0,0.0,0.0,0.0,0.0,0.0,0.0,0.0,-1.8116,-1.9279,-2.0492,0.0,0.0,-2.4209,-2.4506,-2.4943,-2.5218,-2.5135,0.0,0.0,0.0,-2.3307,-2.2185,-2.1512,-2.0767,-2.0081,-1.9652,-1.968,-1.9547,-1.8824,-1.8719,-1.8793,-1.8913,-1.8839,-1.874,-1.8798,-1.8908,-1.9186,-1.9693,-1.9836,-1.9995,-0.6746,-0.7479,-0.7518,-0.7681,-0.786,-0.7944,-0.8065,-0.8297,-0.8251,-0.8138,-0.7911,-0.782,-0.7382,-0.676,-0.6995,0.0,0.0,0.0,-0.9314,-1.0236,-0.9994,-0.9644,-0.9229,-0.8771,-0.8344,-0.7918,-0.7843,-0.784,-0.7914,-0.8052,-0.7837,-0.7368,0.0,0.0,-0.8262,-1.0127,-1.1343,-1.1828,-1.3117,-1.3741,-1.3561,-1.2833,-1.2271,-1.1939,-1.1021,-1.0108,-0.9223,-0.9077,-0.842,-0.7187,-0.6739,-0.6322,0.0,0.0,0.0,0.0,0.0,0.0,0.0,0.0,0.0,0.0,0.0,-0.8844,-0.8724,0.0,0.0,0.0,-0.9516,-0.9824,-1.0495,-1.0843,0.0,0.0,0.0,0.0,0.0,0.0,0.0,-1.6519,-1.7202,-1.791,-1.8539,-1.9601,-2.0646,-2.1635,-2.3181,-2.4296,-2.436,0.0,-2.4964,-2.4999,-2.4831,-2.4518,-2.3989,-2.2775,-2.1644,-2.0904,-2.0057,-1.9615,-1.976,-1.9487,-1.9132,-1.8924,-1.8675,-1.8513,-1.8659,-1.8853,-1.8942,-1.8822,-1.8855,-1.9097,-1.9584,-1.9723,-1.9815,-0.708,-0.7621,-0.8035,-0.8157,-0.8074,-0.8188,-0.8304,-0.8379,-0.8382,-0.8382,-0.8382,-0.8088,-0.7678,-0.717,-0.7518,0.0,-0.9312,-0.9797,-1.0225,-1.0635,-0.9744,-0.9359,-0.9364,-0.8132,-0.7548,-0.7549,-0.7685,-0.7784,-0.7869,-0.813,-0.8171,-0.7873,-0.7865,-0.8076,-0.8505,-1.0005,-1.1082,-1.1623,-1.3166,-1.3568,-1.2705,-1.0852,-0.9781,-0.9521,-0.9321,-0.8759,-0.7748,-0.8339,-0.8199,-0.7151,-0.7011,-0.6661,-0.6,0.0,0.0,0.0,0.0,0.0,0.0,0.0,0.0,0.0,0.0,0.0,0.0,0.0,0.0,0.0,-1.0711,0.0,-1.1793,-1.2025,0.0,0.0,0.0,-1.5112,-1.5689,-1.7316,-1.8122,-1.7402,0.0,0.0,-1.8559,-1.9626,-2.0639,-2.1303,-2.3144,-2.4403,-2.4436,-2.4424,-2.4436,-2.4458,-2.4073,-2.3613,-2.3039,-2.1993,-2.0923,-2.0061,-1.9348,-1.923,-1.9543,-1.8857,-1.8388,-1.8474,-1.8241,-1.802,-1.8345,-1.8833,-1.9218,-1.8845,-1.8841,-1.906,-1.9609,-1.9752,-1.9842,-0.6924,-0.7677,-0.834,-0.8643,-0.8623,-0.864,-0.8545,-0.8382,-0.8382,-0.8287,-0.8088,-0.8038,-0.7847,-0.7634,-0.7528,-0.7723,-0.8207,-0.8534,-0.874,-0.8814,-0.8814,-0.8769,-0.8695,-0.8257,-0.8071,-0.811,-0.7976,-0.8027,-0.8162,-0.8247,-0.8321,-0.842,-0.8416,-0.8295,-0.8186,-0.9962,-1.0637,-1.0221,-1.2066,-1.2918,-1.2662,-1.0852,-1.0041,-1.0293,-0.9787,-0.9359,-0.9049,-0.8867,-0.8439,-0.7788,-0.7137,-0.6611,-0.6302,-0.6214,0.0,0.0,0.0,0.0,0.0,0.0,0.0,0.0,0.0,-0.9764,-0.9251,0.0,-1.0073,0.0,-1.1506,-1.2094,-1.2304,-1.2507,0.0,0.0,-1.5495,-1.6334,-1.7715,-1.8266,-1.8484,-1.829,-1.8198,-1.8154,-1.8154,-1.8873,-1.9601,-2.0357,-2.2287,-2.3722,-2.3912,-2.3974,-2.3974,-2.3917,-2.383,-2.3469,-2.2481,-2.1145,-2.0093,-1.9817,-1.9375,-1.9047,-1.9182,-1.8288,-1.7497,-1.7223,-1.7286,-1.7416,-1.7536,-1.8166,-1.8739,-1.8817,-1.9155,-1.9591,-1.9934,-2.0011,-2.003,-0.6675,-0.7176,-0.8577,-0.9023,-0.8775,-0.8531,-0.8432,-0.8382,-0.8287,-0.8137,-0.7988,-0.7921,-0.7889,-0.7797,-0.7577,-0.7597,-0.7804,-0.8204,-0.8313,-0.8244,-0.8526,-0.8536,-0.8389,-0.8169,-0.8084,-0.8118,-0.806,-0.8069,-0.8166,-0.8247,-0.8345,-0.8486,-0.8571,-0.8465,-0.8196,-0.9615,-1.0134,-0.9714,-1.08,-1.1378,-1.1341,-1.0029,-0.9447,-0.9651,-0.9101,-0.8792,-0.8695,-0.826,-0.7815,-0.742,-0.6948,-0.6611,-0.6387,-0.631,-0.636,0.0,0.0,0.0,0.0,0.0,0.0,0.0,0.0,0.0,0.0,0.0,-1.0853,-1.1699,-1.2391,-1.2912,-1.3157,-1.3511,-1.4297,-1.5661,-1.6319,-1.7206,-1.845,-1.8596,-1.8598,-1.8588,-1.8071,-1.7725,-1.7725,-1.8048,-1.8568,-1.934,-2.0434,-2.1722,-2.3102,-2.3264,-2.3095,-2.3095,-2.2678,-2.2089,-2.1235,-2.0205,-1.9543,-1.9712,-1.9375,-1.9013,-1.8989,-1.8121,-1.7291,-1.7016,-1.7082,-1.7248,-1.7468,-1.8248,-1.8951,-1.9151,-1.943,-1.9643,-1.9672,-1.9899,-2.0103,-0.6323,-0.6523,-0.8673,-0.9278,-0.8775,-0.8233,-0.8187,-0.8333,-0.8088,-0.7982,-0.7951,-0.7851,-0.7784,-0.7773,-0.7655,-0.7665,-0.7832,-0.832,-0.8434,-0.8294,-0.8567,-0.8539,-0.8228,-0.8084,-0.8006,-0.7979,-0.8036,-0.8085,-0.8089,-0.8247,-0.8316,-0.8296,-0.8498,-0.8482,-0.8306,-0.9065,-0.9563,-0.9797,-0.9563,-0.9605,-0.9922,-0.903,-0.8522,-0.8512,-0.8061,-0.7802,-0.7722,-0.729,-0.7026,-0.6846,-0.6785,-0.6643,-0.6457,-0.6519,-0.6805,0.0,-0.7851,0.0,0.0,0.0,0.0,0.0,0.0,0.0,0.0,-1.1286,-1.1864,-1.2755,-1.3237,-1.3609,-1.3894,-1.4428,-1.5036,-1.5842,-1.6671,-1.7457,-1.8118,-1.8334,-1.8442,-1.8442,-1.7783,-1.7305,-1.7305,-1.7295,-1.7611,-1.8373,-1.8542,-1.9521,-2.1748,-2.2071,-2.187,-2.1938,-2.1151,-2.0514,-1.9997,-1.9435,-1.9182,-1.9516,-1.9107,-1.8806,-1.8722,-1.7869,-1.7122,-1.7086,-1.7106,-1.7316,-1.7646,-1.8542,-1.9282,-1.9381,-1.9467,-1.9466,-1.9387,-1.972,-2.0074,-0.5874,-0.6276,-0.8382,-0.908,-0.8775,-0.8432,-0.8233,-0.8088,-0.8038,-0.7921,-0.7845,-0.7702,-0.7641,-0.7638,-0.7611,-0.7614,-0.7641,-0.7968,-0.8092,-0.8059,-0.8477,-0.8602,-0.8464,-0.8559,-0.8557,-0.8476,-0.8479,-0.8506,-0.8463,-0.8543,-0.8438,-0.8292,-0.8329,-0.8251,-0.8069,0.0,0.0,0.0,-0.8931,-0.9214,-1.1243,-0.9135,-0.8171,-0.8627,-0.8226,0.0,-0.7694,-0.761,-0.7546,-0.7514,-0.7137,0.0,0.0,0.0,0.0,0.0,0.0,0.0,0.0,0.0,0.0,0.0,-1.1383,-1.1305,-1.1136,-1.1942,-1.2633,-1.2938,-1.3273,-1.3521,-1.3579,-1.3689,-1.3947,-1.4418,-1.5389,-1.6071,-1.6269,-1.7048,-1.7627,-1.7607,-1.7168,-1.6814,-1.6855,-1.6824,-1.709,-1.775,-1.7937,-1.8361,-1.9427,-1.998,-2.0358,-2.0739,-2.0265,-1.9913,-1.982,-1.9312,-1.8963,-1.9023,-1.8313,-1.7796,-1.7676,-1.6871,-1.614,-1.6126,-1.6692,-1.7199,-1.7323,-1.8051,-1.8734,-1.8911,-1.8984,-1.9142,-1.9632,-1.9927,-2.0103,-0.5723,0.0,-0.8425,-0.9179,0.0,-0.8627,-0.8382,-0.7988,-0.7988,-0.7944,-0.7913,-0.7767,-0.7702,-0.7702,-0.7722,-0.7735,-0.7785,-0.8153,-0.8299,-0.8225,-0.8586,-0.8679,-0.8564,-0.8654,-0.8694,-0.8616,-0.8616,-0.8616,-0.8616,-0.8616,-0.8563,-0.8473,-0.8337,-0.8199,-0.8008,-0.7756,-0.809,-0.905,-0.8229,-0.863,-1.0269,-0.9167,-0.8693,-0.9038,0.0,0.0,0.0,0.0,0.0,0.0,0.0,0.0,0.0,0.0,0.0,-0.6937,-0.7929,-0.876,-0.9286,-1.0532,-1.1371,-1.1696,-1.2013,-1.2045,-1.1713,-1.2438,-1.2911,-1.3009,-1.3162,-1.3389,-1.3697,-1.3594,-1.3623,-1.3984,-1.486,-1.5411,-1.5506,-1.6363,-1.7038,-1.7021,-1.667,-1.6406,-1.6406,-1.6161,-1.6205,-1.6548,-1.6618,-1.6847,-1.7499,-1.8339,-1.8901,-1.8965,-1.9013,-1.8963,-1.8944,-1.8806,-1.8602,-1.8494,-1.7941,-1.7339,-1.7063,-1.6559,-1.6116,-1.5921,-1.6392,-1.6913,-1.7199,-1.7733,-1.8268,-1.8567,-1.8741,-1.8889,-1.929,-1.9758,-2.0103,-0.5567,-0.5774,-0.8372,-0.9175,-0.8726,-0.8726,-0.8432,-0.7985,0.0,0.0,0.0,-0.7773,-0.7692,-0.7685,-0.7707,-0.7791,-0.7841,-0.8297,-0.841,-0.8328,-0.8595,-0.8609,-0.8524,-0.8568,-0.8616,-0.8616,-0.8616,-0.8616,-0.8616,-0.8616,-0.8575,-0.8463,-0.8316,-0.813,-0.7914,-0.7626,-0.7561,-0.768,-0.7752,-0.8256,-0.9335,-0.9161,-0.9199,-0.946,-0.8722,-0.8028,-0.7498,-0.6971,-0.6796,-0.6975,-0.702,-0.7037,-0.7037,-0.7008,-0.7233,-0.7801,-0.877,-0.9564,-1.009,-1.1139,-1.1773,-1.1846,-1.2445,-1.272,-1.2582,-1.2902,-1.3097,-1.3089,-1.3089,-1.3294,-1.3762,-1.3514,-1.3455,-1.38,-1.4423,-1.4848,-1.4958,-1.5836,-1.6453,-1.6424,-1.6162,-1.5977,-1.5968,-1.5664,-1.542,-1.541,-1.5449,-1.5437,-1.604,-1.7127,-1.7842,-1.7701,-1.8048,-1.8182,-1.8251,-1.8242,-1.8192,-1.8217,-1.7676,-1.7099,-1.6727,-1.6523,-1.6295,-1.5886,-1.621,-1.6671,-1.7115,-1.755,-1.7975,-1.8445,-1.8683,-1.8822,-1.8903,-1.9421,-1.9885,-0.5313,-0.5479,-0.7872,-0.873,-0.8428,-0.8478,-0.8287,-0.8018,-0.7773,-0.7662,-0.7641,-0.7314,-0.7186,-0.7189,-0.721,-0.7341,-0.7571,-0.766,-0.7779,0.0,-0.8191,-0.8264,-0.8248,-0.8476,-0.8616,-0.8616,-0.8616,-0.8616,-0.8616,-0.8616,-0.841,-0.813,-0.8065,-0.789,-0.7581,-0.7508,-0.7825,-0.8513,-0.7855,-0.8588,-1.0709,-0.9297,-0.8827,-0.936,-0.8503,-0.7536,-0.6635,-0.6679,-0.6808,-0.698,-0.7102,-0.7188,-0.7183,-0.7073,-0.7059,-0.7166,-0.7935,-0.876,-0.9635,-1.0649,-1.1593,-1.241,-1.2882,-1.3294,-1.3711,-1.3565,-1.3426,-1.3418,-1.3382,-1.3338,-1.317,-1.2862,-1.2769,-1.3101,-1.3493,-1.3817,-1.4132,-1.5001,-1.5576,-1.5625,-1.5557,-1.5508,-1.5527,-1.5469,-1.54,-1.5352,-1.5068,-1.4919,-1.5221,-1.6329,-1.7423,-1.787,-1.8038,-1.8321,-1.8463,-1.8452,-1.8169,-1.8193,-1.7327,-1.6679,-1.6571,-1.6235,-1.5936,-1.5838,-1.6154,-1.6629,-1.7102,-1.7537,-1.8002,-1.8533,-1.876,-1.8841,-1.8974,-1.9194,-1.929,-0.5287,-0.5553,-0.7806,-0.8627,-0.8382,-0.8233,-0.8088,-0.8011,-0.7818,-0.7739,-0.7682,-0.7397,-0.7265,-0.7258,-0.7317,-0.737,-0.7507,-0.7639,-0.7856,-0.8069,-0.8157,-0.8292,-0.8432,-0.8568,-0.8616,-0.8616,-0.8616,-0.8616,-0.8616,-0.8616,-0.8522,-0.8304,-0.8117,-0.7886,-0.7682,-0.7571,-0.7672,-0.8016,-0.7676,-0.8466,-1.0351,-0.9195,-0.867,-0.8857,-0.8323,-0.7619,-0.6747,-0.6692,-0.6804,-0.6984,-0.7069,-0.7078,-0.711,-0.7033,-0.6984,-0.7023,-0.808,-0.8932,-0.9357,-1.0815,-1.1919,-1.2504,-1.26,-1.2891,-1.3426,-1.3316,-1.3155,-1.2994,-1.2965,-1.2914,-1.2753,-1.2419,-1.2288,-1.2426,-1.2759,-1.3183,-1.3691,-1.4171,-1.4754,-1.5245,-1.5205,-1.5156,-1.5381,-1.542,-1.5303,-1.5098,-1.4707,-1.4443,-1.4434,-1.529,-1.6143,-1.6602,-1.7181,-1.7553,-1.7702,-1.774,-1.7627,-1.7387,-1.6691,-1.6212,-1.6163,-1.5934,-1.585,-1.5814,-1.6001,-1.6414,-1.7031,-1.7344,-1.7801,-1.8431,-1.8697,-1.8812,-1.8927,-1.9007,-1.9082,-0.5183,-0.5377,-0.7669,-0.8482,-0.8287,-0.8088,-0.8038,-0.8057,-0.7945,-0.7879,-0.7811,-0.7543,-0.7364,-0.7351,-0.7378,-0.7415,-0.7507,-0.7727,-0.794,-0.8113,-0.8201,-0.8296,-0.8524,-0.8568,-0.8616,-0.8616,-0.8616,-0.8616,-0.8616,-0.8616,-0.8544,-0.8514,-0.8138,-0.789,-0.7796,-0.7612,-0.7595,-0.7748,-0.7599,-0.8199,-0.9561,-0.9003,-0.86,-0.8424,-0.8303,-0.786,-0.6997,-0.6788,-0.6775,-0.6914,-0.6931,-0.6943,-0.6984,-0.6951,-0.6947,-0.7082,-0.8033,-0.8833,-0.9311,-1.0937,-1.2088,-1.2361,-1.2119,-1.2203,-1.2593,-1.2682,-1.2658,-1.2541,-1.2555,-1.2541,-1.247,-1.2207,-1.2025,-1.2109,-1.2265,-1.2684,-1.333,-1.3596,-1.4026,-1.4887,-1.4922,-1.4921,-1.505,-1.5215,-1.5039,-1.4541,-1.425,-1.4077,-1.405,-1.4465,-1.5032,-1.5494,-1.6326,-1.6979,-1.674,-1.6976,-1.7051,-1.6643,-1.6187,-1.5922,-1.5828,-1.5816,-1.5814,-1.5814,-1.5814,-1.6219,-1.6968,-1.7233,-1.7611,-1.8372,-1.8692,-1.8774,-1.8893,-1.8834,-1.897,-0.489,-0.5148,-0.7188,-0.8038,-0.8041,-0.8038,-0.8137,-0.8315,-0.7955,-0.7862,-0.7926,-0.7622,-0.7354,-0.716,-0.7146,-0.7279,-0.7462,-0.7507,-0.768,-0.794,-0.8113,-0.8204,-0.8292,-0.8476,-0.8616,-0.8616,-0.8616,-0.8616,-0.8616,-0.8616,-0.8531,-0.8335,-0.8,-0.7829,-0.7784,-0.762,-0.7863,-0.8551,-0.7863,-0.7902,-0.8742,-0.8742,-0.86,-0.8387,-0.8359,-0.7847,-0.6818,-0.6718,-0.6688,-0.6717,-0.6721,-0.679,-0.6943,-0.6802,-0.679,-0.6959,-0.6999,-0.7592,-0.9251,-1.0577,-1.1484,-1.1866,-1.1581,-1.1461,-1.164,-1.17,-1.198,-1.2314,-1.2482,-1.2497,-1.2504,-1.2186,-1.2098,-1.2277,-1.2134,-1.2357,-1.3122,-1.3318,-1.3568,-1.4121,-1.4541,-1.4658,-1.4406,-1.46,-1.4492,-1.3857,-1.387,-1.386,-1.3678,-1.424,-1.4784,-1.5114,-1.5884,-1.6658,-1.6977,-1.6896,-1.6715,-1.6559,-1.614,-1.5852,-1.5814,-1.5814,-1.5814,-1.5814,-1.5814,-1.6154,-1.6842,-1.724,-1.757,-1.8411,-1.8755,-1.8836,-1.8935,-1.8691,-1.8564,-0.4304,-0.5001,-0.6461,-0.7441,-0.7992,-0.8137,-0.8287,-0.8368,-0.8317,-0.8159,-0.7955,-0.7734,-0.7451,-0.7098,-0.7095,-0.7187,-0.7279,-0.7415,-0.7635,-0.79,-0.8116,-0.8292,-0.8432,-0.8524,-0.8616,-0.8616,-0.8616,-0.8616,-0.8616,-0.8616,-0.8571,-0.8482,-0.8237,-0.8065,-0.7906,-0.7775,-0.7788,-0.7983,-0.7672,-0.7672,-0.7944,-0.7978,-0.7939,-0.7844,-0.7677,-0.7447,-0.7012,-0.6704,-0.6574,-0.6664,-0.6591,-0.6566,-0.6631,-0.657,-0.6562,-0.6661,-0.7167,-0.8022,-0.9253,-1.0264,-1.0926,-1.1227,-1.0941,-1.0911,-1.1183,-1.0848,-1.0813,-1.131,-1.1865,-1.2135,-1.1992,-1.1967,-1.2021,-1.1936,-1.1691,-1.1889,-1.2936,-1.264,-1.2761,-1.3859,-1.4062,-1.4092,-1.4075,-1.4062,-1.3896,-1.349,-1.3506,-1.334,-1.3208,-1.3705,-1.4066,-1.4302,-1.5023,-1.5811,-1.6336,-1.6595,-1.6451,-1.6199,-1.597,-1.5814,-1.5814,-1.5814,-1.5814,-1.5814,-1.5814,-1.6154,-1.7031,-1.724,-1.7509,-1.8333,-1.876,-1.8855,-1.9003,-1.8585,-1.8401,-0.3731,-0.4559,-0.5864,-0.7036,-0.7988,-0.8233,-0.8333,-0.8372,-0.8412,-0.8254,-0.7966,-0.7752,-0.7455,-0.7156,-0.7095,-0.7095,-0.7143,-0.737,-0.7591,-0.7812,-0.8069,-0.8292,-0.8476,-0.8568,-0.8616,-0.8616,-0.8616,-0.8616,-0.8616,-0.8616,-0.8616,-0.8588,-0.8381,-0.8199,-0.8016,-0.7845,-0.771,-0.7539,-0.7518,-0.7518,-0.7518,-0.7518,-0.7518,-0.7498,-0.7273,-0.7143,-0.7171,-0.6798,-0.6599,-0.6668,-0.6513,-0.642,-0.642,-0.642,-0.642,-0.6478,-0.7274,-0.8101,-0.8874,-0.9628,-1.0194,-1.0516,-1.0315,-1.035,-1.0552,-1.0176,-0.996,-1.0262,-1.1018,-1.1392,-1.1401,-1.1502,-1.1524,-1.1335,-1.1034,-1.1272,-1.2134,-1.1831,-1.2079,-1.3285,-1.3513,-1.3603,-1.3828,-1.3633,-1.333,-1.3281,-1.3111,-1.2915,-1.2978,-1.3302,-1.3641,-1.3634,-1.4373,-1.5028,-1.5549,-1.6023,-1.6093,-1.6006,-1.5814,-1.5814,-1.5814,-1.5814,-1.5814,-1.5814,-1.5814,-1.6132,-1.6968,-1.724,-1.7529,-1.8268,-1.8697,-1.8855,-1.8979,-1.8516,-1.8238,-0.3282,-0.3586,-0.5532,-0.7036,-0.7988,-0.8038,-0.8187,-0.8382,-0.8173,-0.8011,-0.7954,-0.7728,-0.7424,-0.7156,-0.7146,-0.7095,-0.7139,-0.737,-0.7551,-0.7635,-0.8017,-0.8197,-0.8248,-0.8476,-0.8612,-0.8612,-0.8616,-0.8616,-0.8616,-0.8616,-0.8616,-0.8604,-0.8381,-0.8199,-0.8016,-0.7886,-0.7706,-0.7543,-0.7518,-0.7518,-0.7518,-0.7518,-0.7518,-0.7514,-0.7447,-0.7346,-0.7232,-0.7029,-0.6886,-0.6735,-0.6522,-0.642,-0.642,-0.642,-0.642,-0.6502,-0.6958,-0.7466,-0.8008,-0.8627,-0.9247,-0.9859,-0.9788,-0.9739,-0.9976,-0.9785,-0.9611,-0.9485,-1.0,-1.0382,-1.0594,-1.0755,-1.0763,-1.0697,-1.041,-1.0509,-1.098,-1.1219,-1.1504,-1.2248,-1.2995,-1.3412,-1.3506,-1.3164,-1.2998,-1.2983,-1.2935,-1.2915,-1.2954,-1.3296,-1.3501,-1.3634,-1.4001,-1.4513,-1.5028,-1.5529,-1.5765,-1.5804,-1.5814,-1.5814,-1.5814,-1.5814,-1.5814,-1.5814,-1.5814,-1.6154,-1.6884,-1.7427,-1.7794,-1.8293,-1.8664,-1.8855,-1.8759,-1.8356,-1.8007,-0.301,-0.4325,-0.5779,-0.7036,-0.7992,-0.8187,-0.8287,-0.8382,-0.8287,-0.822,-0.8082,-0.7736,-0.7528,-0.7458,-0.7412,-0.7367,-0.737,-0.7635,-0.7812,-0.7969,-0.8178,-0.8316,-0.8456,-0.845,-0.8506,-0.86,-0.8616,-0.8616,-0.8616,-0.8616,-0.8616,-0.8584,-0.8385,-0.8199,-0.8016,-0.7886,-0.771,-0.7539,-0.7518,-0.7518,-0.7518,-0.7518,-0.7518,-0.7506,-0.7294,-0.722,-0.7387,-0.6891,-0.6684,-0.6886,-0.6578,-0.642,-0.642,-0.642,-0.6482,-0.6741,-0.7131,-0.754,-0.7875,-0.8287,-0.8786,-0.9255,-0.9185,-0.9239,-0.9489,-0.953,-0.9465,-0.9468,-0.9623,-0.9836,-1.0002,-1.0324,-1.058,-1.0543,-1.0294,-1.03,-1.0704,-1.0783,-1.104,-1.1945,-1.2706,-1.3096,-1.3105,-1.3003,-1.2915,-1.2915,-1.2915,-1.2915,-1.2905,-1.3075,-1.3186,-1.3224,-1.3549,-1.4025,-1.449,-1.5006,-1.5413,-1.5681,-1.5814,-1.5814,-1.5814,-1.5814,-1.5814,-1.5814,-1.5814,-1.6175,-1.6926,-1.7754,-1.8115,-1.8411,-1.876,-1.8646,-1.8413,-1.8173,-1.7693,-0.2672,-0.4325,-0.5429,-0.6484,-0.7487,-0.8038,-0.8283,-0.8283,-0.8283,-0.8199,-0.8052,-0.7709,-0.7605,-0.7587,-0.7526,-0.7551,-0.7635,-0.7812,-0.7988,-0.8105,-0.8214,-0.8356,-0.8436,-0.8395,-0.8486,-0.8584,-0.8543,-0.8455,-0.8433,-0.8429,-0.839,-0.8416,-0.8256,-0.8113,-0.7939,-0.7857,-0.7706,-0.7555,-0.7518,-0.7518,-0.7518,-0.7518,-0.7518,-0.7477,-0.7196,-0.7212,-0.7494,-0.6903,-0.6692,-0.6902,-0.6611,-0.642,-0.642,-0.642,-0.6482,-0.6741,-0.6883,-0.7113,-0.7375,-0.7703,-0.8065,-0.8446,-0.8732,-0.8995,-0.9256,-0.9387,-0.9458,-0.9484,-0.9536,-0.9614,-0.9694,-1.0016,-1.0272,-1.025,-1.0075,-1.0077,-1.0428,-1.0426,-1.0947,-1.1843,-1.2391,-1.2695,-1.2847,-1.2915,-1.2915,-1.2915,-1.2915,-1.2915,-1.2915,-1.2915,-1.2915,-1.2929,-1.3162,-1.3658,-1.4165,-1.4674,-1.5232,-1.5558,-1.5792,-1.5814,-1.5814,-1.5814,-1.5814,-1.5814,-1.6022,-1.6402,-1.7039,-1.7915,-1.8372,-1.863,-1.8693,-1.8603,-1.8372,-1.8108,-1.7598,-0.222,-0.3373,-0.4375,-0.5527,-0.6637,-0.7637,-0.7988,-0.8038,-0.8038,-0.796,-0.7831,-0.7675,-0.7586,-0.7471,-0.7513,-0.7646,-0.7834,-0.787,-0.7914,-0.7998,-0.8091,-0.8166,-0.8237,-0.8439,-0.8539,-0.8563,-0.8361,-0.8195,-0.8069,-0.8057,-0.8044,-0.8036,-0.8036,-0.7943,-0.7808,-0.7788,-0.7694,-0.7521,-0.7518,-0.7518,-0.7518,-0.7518,-0.7518,-0.7464,-0.7309,-0.7297,-0.7494,-0.7139,-0.6926,-0.6922,-0.6607,-0.6428,-0.642,-0.642,-0.642,-0.6437,-0.6201,-0.6133,-0.6421,-0.6837,-0.7236,-0.7584,-0.8388,-0.8923,-0.9054,-0.9361,-0.9588,-0.9562,-0.9588,-0.9614,-0.9614,-0.9672,-0.9716,-0.9629,-0.968,-0.9706,-0.9755,-1.012,-1.0829,-1.1794,-1.2175,-1.2382,-1.2759,-1.2915,-1.2915,-1.2915,-1.2915,-1.2915,-1.2915,-1.2915,-1.2915,-1.2915,-1.3027,-1.3344,-1.3847,-1.4363,-1.4949,-1.5457,-1.5691,-1.5814,-1.5814,-1.5814,-1.5814,-1.5836,-1.6188,-1.6565,-1.6995,-1.7794,-1.8182,-1.8418,-1.8484,-1.8266,-1.7806,-1.7424,-1.7392,-0.222,-0.3274,-0.4323,-0.5427,-0.6484,-0.7537,-0.7988,-0.7988,-0.7988,-0.7958,-0.7897,-0.7811,-0.7709,-0.7702,-0.7682,-0.7716,-0.7872,-0.7771,-0.7853,-0.8072,-0.7833,-0.7836,-0.8048,-0.8149,-0.8256,-0.8304,-0.8106,-0.8,-0.7971,-0.7886,-0.789,-0.7975,-0.789,-0.7857,-0.7788,-0.7677,-0.7529,-0.7531,-0.7518,-0.7518,-0.7518,-0.7518,-0.7518,-0.7514,-0.7427,-0.7382,-0.7297,-0.6956,-0.6812,-0.6777,-0.655,-0.642,-0.642,-0.642,-0.6486,-0.6724,-0.6745,-0.68,-0.6947,-0.7109,-0.729,-0.7609,-0.8209,-0.8633,-0.889,-0.9302,-0.9536,-0.9484,-0.9536,-0.9614,-0.9614,-0.9614,-0.9614,-0.9614,-0.9614,-0.9614,-0.9692,-1.0362,-1.1032,-1.1485,-1.2175,-1.2686,-1.2856,-1.2915,-1.2915,-1.2915,-1.2915,-1.2915,-1.2915,-1.2915,-1.2915,-1.2915,-1.2978,-1.3138,-1.3752,-1.4281,-1.4766,-1.5345,-1.5647,-1.5792,-1.5814,-1.5814,-1.5814,-1.5886,-1.6256,-1.66,-1.707,-1.743,-1.7751,-1.7824,-1.7677,-1.7295,-1.6861,-1.6759,-1.6826,-0.1969,-0.2722,-0.3775,-0.4826,-0.5882,-0.6933,-0.764,-0.7939,-0.7988,-0.7988,-0.7958,-0.7879,-0.7777,-0.7761,-0.7699,-0.7683,-0.7738,-0.7529,-0.7673,-0.8002,-0.7755,-0.7671,-0.79,-0.8052,-0.8081,-0.8052,-0.791,-0.7743,-0.7653,-0.7586,-0.7614,-0.7683,-0.7675,-0.7698,-0.769,-0.7588,-0.7518,-0.7518,-0.7518,-0.7518,-0.7518,-0.7518,-0.7518,-0.7518,-0.7518,-0.7396,-0.7135,-0.6895,-0.6784,-0.6676,-0.6518,-0.6428,-0.6416,-0.6457,-0.6509,-0.6623,-0.6773,-0.6851,-0.6866,-0.6971,-0.7174,-0.7382,-0.783,-0.8203,-0.8461,-0.8961,-0.9309,-0.9283,-0.9484,-0.9614,-0.9614,-0.9614,-0.9614,-0.9614,-0.9614,-0.9614,-0.9692,-1.0174,-1.0795,-1.1175,-1.181,-1.2397,-1.2783,-1.2915,-1.2915,-1.2915,-1.2915,-1.2915,-1.2915,-1.2915,-1.2915,-1.2915,-1.2939,-1.3258,-1.3776,-1.4212,-1.4605,-1.5142,-1.5647,-1.5748,-1.5814,-1.5814,-1.5814,-1.5726,-1.5941,-1.5981,-1.638,-1.6698,-1.6992,-1.6892,-1.6913,-1.6804,-1.6594,-1.6533,-1.6541,-0.1617,-0.1717,-0.2772,-0.3874,-0.4972,-0.6019,-0.7059,-0.7869,-0.7968,-0.7951,-0.7914,-0.7813,-0.7706,-0.7622,-0.7548,-0.7541,-0.7543,-0.733,-0.7432,-0.7693,-0.7688,-0.7682,-0.7739,-0.7942,-0.7935,-0.7792,-0.7698,-0.7457,-0.7139,-0.7188,-0.7179,-0.7264,-0.7447,-0.7476,-0.7476,-0.7472,-0.7468,-0.7443,-0.7506,-0.7518,-0.7518,-0.7518,-0.7464,-0.7456,-0.7439,-0.7326,-0.7024,-0.6906,-0.6837,-0.6676,-0.6481,-0.6375,-0.6392,-0.6512,-0.6415,-0.6241,-0.6397,-0.6403,-0.6302,-0.6648,-0.6836,-0.6901,-0.7429,-0.7696,-0.7883,-0.8494,-0.9001,-0.9054,-0.9335,-0.9569,-0.9562,-0.9614,-0.9614,-0.9614,-0.9614,-0.9614,-0.9614,-0.9718,-1.0233,-1.0922,-1.1234,-1.1635,-1.2676,-1.2832,-1.2915,-1.2915,-1.2915,-1.2915,-1.2915,-1.2915,-1.2915,-1.2915,-1.2915,-1.3234,-1.3705,-1.4142,-1.4536,-1.5096,-1.558,-1.5724,-1.5718,-1.5682,-1.5612,-1.5544,-1.541,-1.5467,-1.5659,-1.5976,-1.619,-1.6231,-1.6285,-1.6414,-1.6336,-1.6142,-1.6107,-0.1566,-0.1717,-0.2772,-0.3823,-0.4864,-0.5847,-0.6841,-0.7771,-0.7823,-0.7818,-0.7746,-0.7739,-0.7701,-0.7555,-0.7501,-0.7472,-0.7442,-0.7364,-0.7395,-0.7573,-0.7555,-0.7544,-0.7516,-0.7502,-0.7476,-0.7354,-0.7167,-0.6968,-0.6992,-0.7045,-0.7098,-0.7191,-0.7387,-0.7415,-0.733,-0.7423,-0.7403,-0.7334,-0.7431,-0.7518,-0.7518,-0.7514,-0.7415,-0.7297,-0.7293,-0.7119,-0.679,-0.6627,-0.6546,-0.6489,-0.6351,-0.6253,-0.63,-0.6214,-0.6149,-0.6094,-0.6309,-0.6468,-0.6483,-0.6751,-0.6955,-0.7031,-0.7375,-0.7696,-0.7723,-0.8209,-0.8659,-0.8929,-0.9133,-0.9316,-0.9543,-0.9614,-0.9614,-0.9614,-0.9614,-0.9614,-0.9673,-0.9984,-1.0344,-1.0625,-1.1343,-1.1918,-1.2274,-1.2686,-1.2891,-1.2915,-1.2915,-1.2915,-1.2915,-1.2915,-1.2915,-1.2915,-1.2954,-1.3258,-1.3621,-1.4025,-1.449,-1.5062,-1.5457,-1.5734,-1.5564,-1.536,-1.5265,-1.5151,-1.4783,-1.4738,-1.4999,-1.5309,-1.5421,-1.5438,-1.5469,-1.5491,-1.5451,-1.5345,-1.5495,-0.1566,-0.1617,-0.227,-0.3158,-0.4223,-0.5107,-0.6128,-0.705,-0.7573,-0.7678,-0.7631,-0.7773,-0.7695,-0.7521,-0.7519,-0.7482,-0.7396,-0.7328,-0.7391,-0.7504,-0.7531,-0.7492,-0.7452,-0.7313,-0.7192,-0.7098,-0.6899,-0.6838,-0.6894,-0.6947,-0.7086,-0.7204,-0.7326,-0.7354,-0.7358,-0.7342,-0.737,-0.7358,-0.7439,-0.7518,-0.7518,-0.7411,-0.7334,-0.7183,-0.7159,-0.6968,-0.6708,-0.6522,-0.6424,-0.6485,-0.6491,-0.6483,-0.6476,-0.6493,-0.6387,-0.6222,-0.6544,-0.67,-0.6657,-0.6909,-0.709,-0.7139,-0.7354,-0.7434,-0.7509,-0.7857,-0.8282,-0.8666,-0.8877,-0.9185,-0.9517,-0.9614,-0.9614,-0.9614,-0.9614,-0.9614,-0.9614,-0.9855,-1.0172,-1.0523,-1.1133,-1.1843,-1.2051,-1.2578,-1.2832,-1.2915,-1.2915,-1.2915,-1.2915,-1.2915,-1.2915,-1.2915,-1.3113,-1.344,-1.3847,-1.4281,-1.4676,-1.5197,-1.5032,-1.5384,-1.5226,-1.4938,-1.4722,-1.4506,-1.4227,-1.4076,-1.4322,-1.4457,-1.4411,-1.4436,-1.45,-1.4775,-1.4934,-1.5073,-1.5163,-0.1566,-0.1566,-0.1613,-0.2242,-0.3284,-0.4093,-0.5136,-0.6208,-0.6979,-0.7393,-0.7522,-0.7755,-0.759,-0.745,-0.7502,-0.7499,-0.7363,-0.7305,-0.7362,-0.7421,-0.7461,-0.7416,-0.7388,-0.7232,-0.7054,-0.6899,-0.6926,-0.682,-0.6763,-0.6861,-0.7024,-0.7102,-0.7163,-0.7253,-0.7269,-0.7257,-0.7309,-0.7362,-0.7439,-0.7452,-0.7415,-0.7313,-0.7212,-0.709,-0.6936,-0.681,-0.6647,-0.6493,-0.6441,-0.6593,-0.6726,-0.6669,-0.6696,-0.6952,-0.6783,-0.6463,-0.6572,-0.6786,-0.6712,-0.6885,-0.7106,-0.7112,-0.7112,-0.7106,-0.7214,-0.7482,-0.7883,-0.8421,-0.8712,-0.9106,-0.9517,-0.9614,-0.9614,-0.9614,-0.9614,-0.9614,-0.9614,-0.9614,-0.9803,-1.03,-1.0804,-1.141,-1.1918,-1.248,-1.2915,-1.2915,-1.2915,-1.2915,-1.2915,-1.2915,-1.2915,-1.2915,-1.3234,-1.3644,-1.4106,-1.4617,-1.4982,-1.5323,-1.4734,-1.4662,-1.4574,-1.4321,-1.4108,-1.3871,-1.3649,-1.3509,-1.3496,-1.3533,-1.3574,-1.3838,-1.4192,-1.4608,-1.4966,-1.5102,-1.5223,-0.1566,-0.1565,-0.1591,-0.2216,-0.312,-0.3272,-0.4289,-0.5923,-0.6065,-0.6577,-0.7128,-0.7298,-0.7275,-0.7126,-0.736,-0.7394,-0.7309,-0.7354,-0.748,-0.7447,-0.7208,-0.7118,-0.711,-0.7029,-0.6838,-0.6631,-0.6542,-0.6522,-0.6538,-0.6676,-0.6761,-0.6838,-0.6968,-0.7008,-0.6936,-0.7143,-0.7159,-0.718,-0.7334,-0.7399,-0.7268,-0.7191,-0.7034,-0.6846,-0.6652,-0.6542,-0.6493,-0.644,-0.6493,-0.6523,-0.6444,-0.6345,-0.6224,-0.6129,-0.6034,-0.597,-0.6178,-0.6426,-0.6426,-0.681,-0.7106,-0.7106,-0.7106,-0.7106,-0.7106,-0.7187,-0.7622,-0.8182,-0.8507,-0.8837,-0.9432,-0.9588,-0.9614,-0.9614,-0.9614,-0.9614,-0.9614,-0.9614,-0.9692,-0.995,-1.0592,-1.1259,-1.1435,-1.2323,-1.271,-1.2856,-1.2915,-1.2915,-1.2876,-1.2846,-1.2817,-1.2768,-1.2906,-1.33,-1.3983,-1.4395,-1.4664,-1.4889,-1.4429,-1.3985,-1.3876,-1.3799,-1.3602,-1.3372,-1.315,-1.3047,-1.3065,-1.3159,-1.3306,-1.3619,-1.397,-1.4452,-1.4842,-1.5041,-1.5238,-0.1575,-0.1573,-0.1557,-0.1878,-0.2379,-0.2751,-0.3763,-0.5025,-0.5507,-0.6118,-0.6877,-0.7098,-0.7065,-0.6964,-0.7232,-0.7344,-0.725,-0.7407,-0.7518,-0.7427,-0.7208,-0.6937,-0.6603,-0.6565,-0.6402,-0.6382,-0.6428,-0.6453,-0.6546,-0.6623,-0.6771,-0.6833,-0.6869,-0.6915,-0.6915,-0.7054,-0.7147,-0.7261,-0.7285,-0.7313,-0.7195,-0.7041,-0.6863,-0.6615,-0.6469,-0.642,-0.6424,-0.6327,-0.6337,-0.6373,-0.6316,-0.625,-0.6236,-0.622,-0.6154,-0.6096,-0.6349,-0.6588,-0.6756,-0.6891,-0.7106,-0.7106,-0.7106,-0.7106,-0.7106,-0.7106,-0.7375,-0.7889,-0.815,-0.8382,-0.9197,-0.9536,-0.9595,-0.9614,-0.9614,-0.9614,-0.9614,-0.9614,-0.9614,-0.9744,-1.031,-1.0846,-1.1385,-1.2141,-1.2627,-1.2832,-1.2905,-1.2876,-1.252,-1.25,-1.251,-1.2488,-1.2566,-1.2936,-1.3703,-1.4092,-1.4201,-1.4217,-1.3924,-1.351,-1.3258,-1.3185,-1.3131,-1.2987,-1.289,-1.2812,-1.2841,-1.2948,-1.3178,-1.3635,-1.4049,-1.4404,-1.4733,-1.504,-1.5208,-0.1478,-0.1478,-0.1473,-0.1504,-0.1619,-0.234,-0.3255,-0.4349,-0.4806,-0.5483,-0.6551,-0.6791,-0.6593,-0.6692,-0.7156,-0.7266,-0.7177,-0.7211,-0.7242,-0.6923,-0.673,-0.6379,-0.6065,-0.5949,-0.603,-0.6263,-0.6218,-0.6326,-0.6541,-0.6643,-0.6694,-0.6837,-0.6725,-0.6745,-0.6972,-0.7077,-0.7102,-0.729,-0.7257,-0.7212,-0.7131,-0.6871,-0.6639,-0.6477,-0.6432,-0.642,-0.6384,-0.6306,-0.6215,-0.6199,-0.6232,-0.6311,-0.6471,-0.6663,-0.6783,-0.6537,-0.6647,-0.6783,-0.6864,-0.7025,-0.7106,-0.7106,-0.7106,-0.7106,-0.7106,-0.7139,-0.7327,-0.7589,-0.791,-0.8289,-0.8975,-0.929,-0.9491,-0.9595,-0.9614,-0.9614,-0.9614,-0.9614,-0.9614,-0.9718,-1.031,-1.093,-1.136,-1.1943,-1.2397,-1.2774,-1.2847,-1.2725,-1.2359,-1.2184,-1.2213,-1.2139,-1.2156,-1.2365,-1.3073,-1.3554,-1.3696,-1.3639,-1.3406,-1.318,-1.2836,-1.286,-1.289,-1.2818,-1.2716,-1.2692,-1.2692,-1.2785,-1.3121,-1.3665,-1.3917,-1.4081,-1.4497,-1.501,-1.5101,-0.1478,-0.1477,-0.1498,-0.1485,-0.1519,-0.1606,-0.2633,-0.3853,-0.3477,-0.4142,-0.5601,-0.5645,-0.5634,-0.5888,-0.6802,-0.6976,-0.6683,-0.6734,-0.6478,-0.6023,-0.5805,-0.5584,-0.5491,-0.5525,-0.5656,-0.573,-0.5716,-0.5911,-0.6365,-0.6436,-0.6522,-0.6518,-0.6501,-0.6562,-0.668,-0.6824,-0.7012,-0.7143,-0.7151,-0.7135,-0.6976,-0.6786,-0.6591,-0.6436,-0.642,-0.642,-0.6379,-0.6282,-0.6207,-0.6178,-0.616,-0.6167,-0.623,-0.6278,-0.6267,-0.622,-0.6381,-0.6674,-0.6837,-0.6999,-0.7079,-0.7106,-0.7106,-0.7106,-0.7106,-0.7139,-0.73,-0.7622,-0.8043,-0.8573,-0.938,-0.9309,-0.9316,-0.9491,-0.9614,-0.9614,-0.9614,-0.9614,-0.9614,-0.9666,-1.0387,-1.1057,-1.141,-1.1816,-1.2322,-1.2691,-1.2808,-1.251,-1.2028,-1.195,-1.1999,-1.1878,-1.1728,-1.1994,-1.2402,-1.282,-1.3081,-1.3084,-1.297,-1.2969,-1.274,-1.2716,-1.2692,-1.2692,-1.2692,-1.2692,-1.2692,-1.2692,-1.2908,-1.3314,-1.3501,-1.3685,-1.4144,-1.459,-1.4746,-0.1479,-0.1431,-0.1463,-0.1457,-0.1453,-0.1427,-0.2147,-0.324,-0.2849,-0.3378,-0.436,-0.457,-0.4555,-0.486,-0.5503,-0.5819,-0.5883,-0.6346,-0.5978,-0.5387,-0.5401,-0.5342,-0.5074,-0.5178,-0.5395,-0.5382,-0.5153,-0.5418,-0.6284,-0.6391,-0.6387,-0.6424,-0.642,-0.6461,-0.6587,-0.6857,-0.6963,-0.7012,-0.7061,-0.6997,-0.6857,-0.6647,-0.6501,-0.6453,-0.642,-0.642,-0.6367,-0.6329,-0.6265,-0.6276,-0.636,-0.6304,-0.6262,-0.6309,-0.6387,-0.6328,-0.649,-0.6701,-0.6864,-0.7025,-0.7106,-0.7106,-0.7106,-0.7106,-0.7106,-0.7139,-0.7246,-0.7521,-0.7904,-0.8461,-0.9164,-0.9133,-0.9342,-0.9647,-0.9699,-0.9614,-0.9614,-0.9614,-0.9614,-0.9673,-1.0241,-1.0804,-1.1284,-1.174,-1.2289,-1.259,-1.2773,-1.2334,-1.1736,-1.1677,-1.1706,-1.1479,-1.1307,-1.1437,-1.1758,-1.2119,-1.2408,-1.2437,-1.2634,-1.2621,-1.2674,-1.2656,-1.2674,-1.2692,-1.2692,-1.2692,-1.2692,-1.2692,-1.2855,-1.3,-1.3297,-1.3585,-1.3848,-1.4124,-1.4287,-0.1387,-0.1382,-0.1388,-0.1384,-0.1374,-0.1373,-0.1921,-0.2608,-0.242,-0.282,-0.362,-0.3594,-0.356,-0.3787,-0.4276,-0.4689,-0.4801,-0.5517,-0.5211,-0.4661,-0.4924,-0.5058,-0.4779,-0.4754,-0.4821,-0.4954,-0.4788,-0.4891,-0.5918,-0.6185,-0.6218,-0.6218,-0.6288,-0.6477,-0.6623,-0.68,-0.6906,-0.6935,-0.6926,-0.6841,-0.6643,-0.6472,-0.642,-0.642,-0.6449,-0.6502,-0.6444,-0.6436,-0.6401,-0.6411,-0.6516,-0.6576,-0.6404,-0.662,-0.6783,-0.681,-0.695,-0.6999,-0.7079,-0.7079,-0.7106,-0.7106,-0.7106,-0.7106,-0.7106,-0.7139,-0.7192,-0.7392,-0.7542,-0.8064,-0.8725,-0.8942,-0.9237,-0.9584,-0.9621,-0.9614,-0.9614,-0.9614,-0.9614,-0.9803,-1.0146,-1.0592,-1.1133,-1.1674,-1.225,-1.2348,-1.251,-1.2021,-1.1492,-1.1377,-1.131,-1.1029,-1.0894,-1.0925,-1.116,-1.1467,-1.168,-1.1763,-1.2148,-1.243,-1.252,-1.2621,-1.2656,-1.2709,-1.2692,-1.2692,-1.2692,-1.2709,-1.282,-1.2983,-1.3242,-1.3429,-1.3594,-1.3745,-1.3911,-0.142,-0.1398,-0.1425,-0.1362,-0.1323,-0.1321,-0.1802,-0.2414,-0.1807,-0.1938,-0.2685,-0.2672,-0.2781,-0.3119,-0.3901,-0.3987,-0.3916,-0.411,-0.4056,-0.3526,-0.3788,-0.3964,-0.3628,-0.3904,-0.4259,-0.4456,-0.4553,-0.505,-0.5517,-0.565,-0.5716,-0.5749,-0.6053,-0.637,-0.6256,-0.6591,-0.6708,-0.6725,-0.6717,-0.6631,-0.6493,-0.6399,-0.6424,-0.6486,-0.6609,-0.6726,-0.6585,-0.6625,-0.6637,-0.6534,-0.6638,-0.6685,-0.668,-0.6896,-0.7025,-0.6977,-0.6896,-0.6837,-0.7052,-0.7106,-0.7106,-0.7106,-0.7106,-0.7106,-0.7106,-0.7112,-0.7219,-0.7616,-0.7429,-0.767,-0.8335,-0.8468,-0.8738,-0.9106,-0.9439,-0.9536,-0.9588,-0.9614,-0.9614,-0.9699,-0.9984,-1.0517,-1.1065,-1.1639,-1.2143,-1.2201,-1.2116,-1.1638,-1.1248,-1.1113,-1.0968,-1.0715,-1.0607,-1.0636,-1.0771,-1.105,-1.1274,-1.1282,-1.1756,-1.2269,-1.2467,-1.2621,-1.2692,-1.2709,-1.2709,-1.2727,-1.2745,-1.2768,-1.2803,-1.2925,-1.3121,-1.3185,-1.3232,-1.3374,-1.3577,-0.1383,-0.1417,-0.1385,-0.1367,-0.1331,-0.1372,-0.1554,-0.1753,-0.1489,-0.1471,-0.177,-0.1806,-0.2,-0.2418,-0.3126,-0.3324,-0.3236,-0.3595,-0.3583,-0.3246,-0.3449,-0.3675,-0.3775,-0.3925,-0.4095,-0.4256,-0.4123,-0.4059,-0.4592,-0.5017,-0.5147,-0.5183,-0.5385,-0.5448,-0.569,-0.6207,-0.6252,-0.6259,-0.6325,-0.646,-0.644,-0.642,-0.642,-0.642,-0.6581,-0.6681,-0.6785,-0.6757,-0.6883,-0.6876,-0.6971,-0.6923,-0.695,-0.7031,-0.7106,-0.7079,-0.6999,-0.7004,-0.7085,-0.7112,-0.7106,-0.7106,-0.7106,-0.7106,-0.7106,-0.7112,-0.7192,-0.744,-0.7306,-0.7601,-0.8103,-0.8203,-0.8593,-0.8968,-0.9256,-0.9465,-0.9588,-0.9588,-0.964,-0.9725,-0.9847,-1.0307,-1.0739,-1.1226,-1.1603,-1.1738,-1.174,-1.1475,-1.1045,-1.0742,-1.0596,-1.043,-1.0371,-1.039,-1.0535,-1.0774,-1.1161,-1.13,-1.1708,-1.2168,-1.2484,-1.2639,-1.2644,-1.2733,-1.2791,-1.2803,-1.2803,-1.2803,-1.2838,-1.289,-1.2978,-1.3077,-1.3163,-1.3232,-1.3408,-0.1342,-0.1424,-0.1424,-0.1403,-0.1369,-0.1368,-0.1338,-0.1334,-0.1329,-0.1317,-0.1303,-0.1335,-0.1488,-0.1745,-0.2188,-0.2373,-0.2474,-0.3107,-0.3217,-0.3247,-0.3502,-0.3703,-0.3694,-0.3792,-0.3959,-0.442,-0.3656,-0.356,-0.3828,-0.4156,-0.4386,-0.4586,-0.4851,-0.4882,-0.5036,-0.5487,-0.5803,-0.5832,-0.621,-0.64,-0.6477,-0.6465,-0.6502,-0.6551,-0.6641,-0.6785,-0.6949,-0.686,-0.6966,-0.6836,-0.6602,-0.6458,-0.6485,-0.6453,-0.6615,-0.6696,-0.6729,-0.6891,-0.7031,-0.7106,-0.7106,-0.7106,-0.7106,-0.7106,-0.7106,-0.7106,-0.7139,-0.7252,-0.7252,-0.7521,-0.7863,-0.7877,-0.8302,-0.8732,-0.9133,-0.9361,-0.9569,-0.9647,-0.9725,-0.9803,-0.9858,-0.9826,-1.0284,-1.0718,-1.1037,-1.1236,-1.1233,-1.1198,-1.0869,-1.0488,-1.041,-1.0322,-1.0322,-1.0322,-1.04,-1.0621,-1.0973,-1.1244,-1.1634,-1.1938,-1.2156,-1.2419,-1.2538,-1.265,-1.2808,-1.2843,-1.2838,-1.2855,-1.2855,-1.2943,-1.3042,-1.3077,-1.3146,-1.3198,-1.334,-0.1241,-0.1393,-0.1393,-0.1361,-0.1311,-0.1309,-0.1332,-0.1305,-0.1302,-0.1301,-0.1297,-0.1294,-0.1277,-0.1331,-0.1416,-0.1491,-0.1376,-0.1988,-0.2385,-0.2646,-0.2893,-0.3259,-0.3326,-0.3393,-0.336,-0.3426,-0.3226,-0.3259,-0.3295,-0.3493,-0.3725,-0.4028,-0.4353,-0.4649,-0.4788,-0.494,-0.5437,-0.565,-0.6094,-0.629,-0.6369,-0.6468,-0.6563,-0.6863,-0.7181,-0.7438,-0.73,-0.6981,-0.6729,-0.6449,-0.5991,-0.5719,-0.5769,-0.585,-0.6046,-0.6317,-0.6534,-0.6756,-0.6999,-0.7106,-0.7106,-0.7106,-0.7139,-0.7166,-0.7139,-0.7112,-0.7112,-0.7166,-0.7219,-0.7225,-0.7408,-0.7536,-0.799,-0.8441,-0.8923,-0.9283,-0.9543,-0.9784,-0.9836,-0.9888,-0.9869,-0.9819,-0.9776,-1.0201,-1.0679,-1.0899,-1.1037,-1.1006,-1.0694,-1.0371,-1.0352,-1.0322,-1.0322,-1.0322,-1.0322,-1.0525,-1.0745,-1.0924,-1.1207,-1.1468,-1.1689,-1.1963,-1.2437,-1.2644,-1.2803,-1.2838,-1.2908,-1.2943,-1.2978,-1.3042,-1.3112,-1.3181,-1.325,-1.3306,-1.3497,-0.1117,-0.1149,-0.126,-0.1323,-0.1303,-0.1303,-0.1326,-0.13,-0.1297,-0.1297,-0.1294,-0.1238,-0.1223,-0.1204,-0.1217,-0.1436,-0.1718,-0.1805,-0.2254,-0.2632,-0.2922,-0.3025,-0.3092,-0.3192,-0.3226,-0.3192,-0.3192,-0.3192,-0.3228,-0.3192,-0.3293,-0.3591,-0.3818,-0.3859,-0.3992,-0.4489,-0.5042,-0.5491,-0.5694,-0.5737,-0.5538,-0.5964,-0.6226,-0.6349,-0.69,-0.7293,-0.7342,-0.6873,-0.6613,-0.6243,-0.5614,-0.5321,-0.525,-0.5469,-0.5769,-0.6095,-0.6317,-0.6701,-0.6972,-0.7085,-0.7139,-0.7252,-0.7279,-0.7306,-0.7225,-0.7273,-0.7279,-0.7306,-0.7273,-0.7279,-0.7413,-0.7515,-0.7783,-0.8242,-0.8685,-0.9099,-0.9465,-0.9732,-0.9862,-0.9855,-0.9776,-0.9676,-0.9633,-0.9652,-1.0143,-1.0554,-1.0708,-1.0781,-1.0498,-1.0322,-1.0322,-1.0312,-1.0332,-1.0351,-1.037,-1.0428,-1.0495,-1.0668,-1.0848,-1.1151,-1.1475,-1.2029,-1.2437,-1.2627,-1.2768,-1.2855,-1.2943,-1.3047,-1.3112,-1.3129,-1.3215,-1.3323,-1.3374,-1.3408,-1.3564,-0.0839,-0.0916,-0.1107,-0.1262,-0.1301,-0.1293,-0.1317,-0.13,-0.1297,-0.129,-0.1243,-0.1221,-0.1199,-0.1183,-0.1199,-0.1347,-0.1631,-0.1789,-0.2219,-0.2538,-0.2755,-0.2889,-0.3092,-0.3192,-0.3192,-0.3192,-0.3192,-0.3192,-0.3192,-0.3192,-0.3226,-0.322,-0.3168,-0.3328,-0.356,-0.4125,-0.477,-0.5163,-0.531,-0.5213,-0.5034,-0.5304,-0.5717,-0.5848,-0.6314,-0.6573,-0.6617,-0.6219,-0.5885,-0.5571,-0.5179,-0.4798,-0.4897,-0.5167,-0.5473,-0.5773,-0.6073,-0.6453,-0.6783,-0.7031,-0.7112,-0.7198,-0.7279,-0.7279,-0.7311,-0.7333,-0.7252,-0.7225,-0.7306,-0.7413,-0.744,-0.7467,-0.7708,-0.8141,-0.8501,-0.8916,-0.9328,-0.9621,-0.9725,-0.9769,-0.9692,-0.9647,-0.9801,-0.9787,-0.9863,-1.025,-1.0426,-1.0527,-1.044,-1.0322,-1.0312,-1.0332,-1.0341,-1.038,-1.0438,-1.0544,-1.064,-1.0678,-1.0859,-1.1057,-1.142,-1.1902,-1.2186,-1.224,-1.2437,-1.2773,-1.2878,-1.2861,-1.2995,-1.3181,-1.3271,-1.3391,-1.3429,-1.3463,-1.3514,-0.054,-0.0734,-0.0895,-0.1097,-0.1255,-0.1311,-0.1298,-0.1297,-0.1296,-0.1242,-0.1219,-0.1172,-0.1141,-0.114,-0.1127,-0.1246,-0.1361,-0.1556,-0.1921,-0.2357,-0.2654,-0.2889,-0.3092,-0.3192,-0.3192,-0.3192,-0.3192,-0.3192,-0.3192,-0.3192,-0.3192,-0.3185,-0.314,-0.3188,-0.3276,-0.3918,-0.4418,-0.4699,-0.488,-0.495,-0.4925,-0.4906,-0.5156,-0.5389,-0.5715,-0.5947,-0.5898,-0.5489,-0.5142,-0.486,-0.4296,-0.3968,-0.3968,-0.4049,-0.4322,-0.4736,-0.4787,-0.5308,-0.6154,-0.6756,-0.7058,-0.7166,-0.7252,-0.7225,-0.7166,-0.7166,-0.7219,-0.7273,-0.7246,-0.7279,-0.7311,-0.7392,-0.7741,-0.8008,-0.8342,-0.8685,-0.9099,-0.951,-0.9588,-0.9684,-0.9677,-0.9684,-0.9913,-1.0042,-0.9852,-0.9985,-1.0134,-1.0225,-1.0283,-1.0235,-1.0205,-1.037,-1.038,-1.0495,-1.0572,-1.0708,-1.0765,-1.0784,-1.0831,-1.0992,-1.1113,-1.1375,-1.1597,-1.1792,-1.2102,-1.2461,-1.2549,-1.2603,-1.2948,-1.3288,-1.3369,-1.3442,-1.351,-1.3564,-1.3648,-0.036,-0.0437,-0.0676,-0.0835,-0.1072,-0.1223,-0.1297,-0.1297,-0.1295,-0.1278,-0.1211,-0.1193,-0.1161,-0.1126,-0.1135,-0.1188,-0.1415,-0.1512,-0.1884,-0.2487,-0.2653,-0.2922,-0.3125,-0.3192,-0.3192,-0.3192,-0.3192,-0.3192,-0.3192,-0.3192,-0.3183,-0.3132,-0.3158,-0.3212,-0.3439,-0.3852,-0.4179,-0.4083,-0.4139,-0.4183,-0.4073,-0.4287,-0.4558,-0.4795,-0.5152,-0.536,-0.5391,-0.489,-0.4617,-0.4397,-0.386,-0.3613,-0.3669,-0.3805,-0.4218,-0.4543,-0.4708,-0.5359,-0.6122,-0.6723,-0.7112,-0.7198,-0.7252,-0.7279,-0.7252,-0.7434,-0.7434,-0.7408,-0.7408,-0.7526,-0.7714,-0.7687,-0.7901,-0.7928,-0.8215,-0.8507,-0.8877,-0.9256,-0.9507,-0.9567,-0.9582,-0.9199,-0.9197,-0.9632,-0.9615,-0.9603,-0.9771,-1.0118,-1.0254,-1.0089,-1.0021,-1.0322,-1.0457,-1.0602,-1.0697,-1.0784,-1.0833,-1.0803,-1.0803,-1.085,-1.0954,-1.1048,-1.1255,-1.1553,-1.1847,-1.2138,-1.2389,-1.2673,-1.3138,-1.3425,-1.3493,-1.3577,-1.3678,-1.3749,-1.3832,-0.0196,-0.0236,-0.0471,-0.0668,-0.0825,-0.1061,-0.1179,-0.1295,-0.1285,-0.1262,-0.1194,-0.1164,-0.1169,-0.1106,-0.112,-0.1143,-0.1412,-0.1445,-0.1816,-0.2453,-0.252,-0.2824,-0.3058,-0.3192,-0.3192,-0.3192,-0.3192,-0.3192,-0.3192,-0.3192,-0.3191,-0.3183,-0.3199,-0.3292,-0.3479,-0.3719,-0.3932,-0.3827,-0.3848,-0.3724,-0.3669,-0.377,-0.3902,-0.4166,-0.4458,-0.4691,-0.4715,-0.456,-0.4339,-0.4101,-0.386,-0.3613,-0.3749,-0.3916,-0.419,-0.4325,-0.4708,-0.5277,-0.5878,-0.6475,-0.6864,-0.7252,-0.7359,-0.7306,-0.7252,-0.7327,-0.7348,-0.7408,-0.7574,-0.766,-0.7714,-0.7714,-0.7768,-0.7794,-0.8088,-0.8407,-0.8738,-0.9145,-0.946,-0.951,-0.9375,-0.8934,-0.8633,-0.8939,-0.9266,-0.9312,-0.9379,-0.9775,-1.0137,-0.9942,-0.9903,-1.0225,-1.0428,-1.0515,-1.065,-1.0833,-1.0852,-1.0841,-1.0822,-1.0822,-1.086,-1.0975,-1.1134,-1.1266,-1.1471,-1.1767,-1.2354,-1.2779,-1.316,-1.3446,-1.3628,-1.3728,-1.3845,-1.3911,-1.3993,0.0,0.0,-0.0432,-0.0588,-0.0627,-0.0859,-0.1093,-0.1288,-0.1223,-0.1193,-0.12,-0.1136,-0.111,-0.1117,-0.1109,-0.1176,-0.1311,-0.1277,-0.1782,-0.2186,-0.2522,-0.2825,-0.306,-0.3192,-0.3192,-0.3192,-0.3192,-0.3192,-0.3192,-0.3208,-0.3215,-0.3239,-0.3292,-0.3348,-0.3457,-0.3615,-0.3761,-0.3719,-0.3583,-0.3569,-0.3629,-0.3429,-0.3527,-0.368,-0.3829,-0.3863,-0.3865,-0.3772,-0.3739,-0.3669,-0.3613,-0.3613,-0.3613,-0.3613,-0.361,-0.3774,-0.4242,-0.4869,-0.5414,-0.6014,-0.6615,-0.7036,-0.7112,-0.7085,-0.7139,-0.7219,-0.7279,-0.7273,-0.7354,-0.7392,-0.7398,-0.7451,-0.7473,-0.7714,-0.8008,-0.8348,-0.8705,-0.9063,-0.9387,-0.943,-0.9278,-0.8987,-0.8825,-0.8969,-0.8955,-0.9146,-0.9248,-0.9478,-0.9765,-0.9696,-0.9775,-1.0215,-1.0361,-1.039,-1.0545,-1.0813,-1.0871,-1.0871,-1.0841,-1.0822,-1.0871,-1.0919,-1.1042,-1.1118,-1.1052,-1.1418,-1.2204,-1.2743,-1.3113,-1.3395,-1.3644,-1.3845,-1.3947,-1.4013,-1.4095,0.0,0.0,-0.027,-0.0459,-0.0649,-0.0976,-0.1156,-0.1228,-0.1218,-0.1162,-0.1133,-0.109,-0.1102,-0.1111,-0.1109,-0.1412,-0.1681,-0.1951,-0.2354,-0.2624,-0.2723,-0.2991,-0.3125,-0.3192,-0.3192,-0.3192,-0.3192,-0.319,-0.3191,-0.3195,-0.3195,-0.3232,-0.3316,-0.3346,-0.3439,-0.354,-0.3631,-0.3642,-0.3525,-0.3571,-0.3617,-0.3434,-0.3416,-0.3444,-0.3499,-0.3499,-0.3502,-0.3557,-0.3585,-0.3613,-0.3613,-0.3613,-0.3613,-0.3613,-0.3613,-0.3666,-0.4135,-0.4656,-0.4983,-0.5477,-0.6105,-0.6647,-0.6783,-0.6923,-0.7031,-0.7166,-0.7257,-0.7306,-0.73,-0.7365,-0.7419,-0.7473,-0.7499,-0.7681,-0.8029,-0.8421,-0.8811,-0.924,-0.9515,-0.9339,-0.9184,-0.8777,-0.8659,-0.858,-0.8596,-0.8896,-0.9116,-0.9268,-0.9368,-0.9319,-0.9558,-1.002,-1.0059,-1.001,-1.0516,-1.0843,-1.0862,-1.0881,-1.0871,-1.0871,-1.0919,-1.0957,-1.0976,-1.108,-1.125,-1.1667,-1.224,-1.2691,-1.3057,-1.3395,-1.3674,-1.3881,-1.4049,-1.4127,-1.4225,0.0,0.0,-0.0225,-0.0445,-0.0734,-0.1048,-0.1179,-0.117,-0.1143,-0.1136,-0.1086,-0.1108,-0.1093,-0.1112,-0.1109,-0.1311,-0.1681,-0.1816,-0.2153,-0.2555,-0.2989,-0.3058,-0.3125,-0.3192,-0.3192,-0.3192,-0.3192,-0.3192,-0.321,-0.3149,-0.3134,-0.3244,-0.3289,-0.3352,-0.3451,-0.3574,-0.3596,-0.3602,-0.3563,-0.3557,-0.353,-0.3499,-0.3444,-0.3471,-0.3471,-0.3471,-0.3471,-0.3557,-0.3585,-0.3613,-0.3613,-0.3613,-0.3613,-0.3638,-0.3694,-0.3747,-0.3938,-0.4377,-0.4708,-0.5007,-0.5609,-0.61,-0.6421,-0.6615,-0.6891,-0.7085,-0.7306,-0.7434,-0.744,-0.744,-0.7526,-0.758,-0.7628,-0.7708,-0.8103,-0.8527,-0.8995,-0.9458,-0.9447,-0.927,-0.8929,-0.8465,-0.8255,-0.8196,-0.8188,-0.8345,-0.8529,-0.8683,-0.8846,-0.8906,-0.9239,-0.9696,-0.9637,-0.9558,-1.0176,-1.0739,-1.0728,-1.0756,-1.09,-1.09,-1.0968,-1.1082,-1.1147,-1.1351,-1.1582,-1.1986,-1.2347,-1.265,-1.297,-1.3306,-1.3527,-1.3665,-1.3917,-1.4273,-1.4385,0.0,0.0,-0.0218,-0.0501,-0.0875,-0.1013,-0.1068,-0.1114,-0.1107,-0.1082,-0.111,-0.1089,-0.1111,-0.1109,-0.1109,-0.1176,-0.1479,-0.1715,-0.2085,-0.2288,-0.2755,-0.2989,-0.3159,-0.3192,-0.3192,-0.3192,-0.3188,-0.3178,-0.3158,-0.3155,-0.3184,-0.3285,-0.3272,-0.333,-0.3557,-0.3585,-0.3613,-0.3585,-0.353,-0.3502,-0.3557,-0.353,-0.3471,-0.3557,-0.3585,-0.3585,-0.3585,-0.3613,-0.3613,-0.3613,-0.3613,-0.3613,-0.3638,-0.3719,-0.3771,-0.3827,-0.3879,-0.4128,-0.4429,-0.4649,-0.5062,-0.5578,-0.6064,-0.6312,-0.6588,-0.7031,-0.73,-0.7386,-0.7365,-0.7413,-0.7467,-0.7446,-0.7473,-0.7681,-0.8049,-0.8421,-0.8784,-0.9129,-0.9177,-0.9009,-0.8806,-0.8386,-0.8352,-0.8349,-0.8455,-0.8221,-0.8242,-0.8459,-0.8496,-0.8639,-0.9052,-0.9537,-0.9502,-0.9569,-1.0054,-1.0499,-1.0507,-1.0583,-1.0756,-1.0976,-1.1071,-1.1204,-1.1325,-1.1575,-1.1829,-1.2048,-1.2365,-1.2708,-1.297,-1.3099,-1.3288,-1.3408,-1.3732,-1.4176,-1.4465,0.0,0.0,-0.0214,-0.0522,-0.0784,-0.0851,-0.0949,-0.111,-0.1083,-0.1087,-0.1085,-0.1113,-0.1109,-0.1109,-0.1106,-0.1206,-0.1512,-0.1816,-0.2218,-0.2554,-0.2889,-0.3025,-0.3192,-0.3192,-0.3192,-0.3192,-0.3184,-0.3144,-0.3117,-0.3136,-0.323,-0.3307,-0.3329,-0.3502,-0.3585,-0.3613,-0.3613,-0.3613,-0.3557,-0.353,-0.3585,-0.3585,-0.3585,-0.3613,-0.3613,-0.3613,-0.3613,-0.3613,-0.3613,-0.3613,-0.3613,-0.3613,-0.3613,-0.3747,-0.3796,-0.3824,-0.3907,-0.4073,-0.4156,-0.4349,-0.4653,-0.4952,-0.5414,-0.5932,-0.6399,-0.6891,-0.7198,-0.7257,-0.7311,-0.7386,-0.7413,-0.7365,-0.7392,-0.7681,-0.7969,-0.8256,-0.854,-0.8729,-0.8885,-0.8781,-0.861,-0.8595,-0.8549,-0.8566,-0.8676,-0.8741,-0.8773,-0.8834,-0.8704,-0.8778,-0.9169,-0.9537,-0.9593,-0.9748,-1.0121,-1.0241,-1.0205,-1.039,-1.0602,-1.086,-1.1147,-1.1426,-1.1675,-1.1829,-1.2066,-1.2294,-1.2561,-1.2923,-1.3126,-1.3099,-1.3237,-1.3429,-1.3632,-1.4029,-1.4353,0.0,0.0,-0.0208,-0.0444,-0.0642,-0.0776,-0.0909,-0.1076,-0.1109,-0.1109,-0.1106,-0.1065,-0.1063,-0.1069,-0.1063,-0.1269,-0.1611,-0.2018,-0.2354,-0.2688,-0.2958,-0.3125,-0.3192,-0.3186,-0.3192,-0.319,-0.3138,-0.3103,-0.3018,-0.3077,-0.3163,-0.3199,-0.3383,-0.3502,-0.3557,-0.3585,-0.3557,-0.3613,-0.3585,-0.3585,-0.3585,-0.3613,-0.3613,-0.3613,-0.3613,-0.3613,-0.3613,-0.3613,-0.3613,-0.3613,-0.3613,-0.3694,-0.3749,-0.3858,-0.391,-0.3993,-0.4049,-0.4052,-0.4049,-0.4135,-0.4301,-0.457,-0.4897,-0.5469,-0.5773,-0.6295,-0.7085,-0.7198,-0.7386,-0.7467,-0.7413,-0.7386,-0.7467,-0.7676,-0.7836,-0.8023,-0.8495,-0.8899,-0.8928,-0.8852,-0.8882,-0.9097,-0.8996,-0.8783,-0.8906,-0.9025,-0.9101,-0.9097,-0.8985,-0.9031,-0.9389,-0.9585,-0.9658,-0.9682,-0.9888,-0.9946,-0.9902,-1.0128,-1.0537,-1.0824,-1.1168,-1.1667,-1.2029,-1.2138,-1.2294,-1.2484,-1.2803,-1.3199,-1.3176,-1.3077,-1.3271,-1.3514,-1.3715,-1.3931,-1.4276,0.0,0.0,-0.0202,-0.0371,-0.0506,-0.0674,-0.0876,-0.1043,-0.1109,-0.1109,-0.1072,-0.1014,-0.1052,-0.1059,-0.1054,-0.1261,-0.1537,-0.1848,-0.2252,-0.2589,-0.2857,-0.3039,-0.3096,-0.3135,-0.3115,-0.3038,-0.2917,-0.2882,-0.286,-0.2828,-0.2807,-0.2977,-0.3132,-0.3302,-0.3388,-0.3416,-0.333,-0.3471,-0.353,-0.3557,-0.3585,-0.3613,-0.3613,-0.3613,-0.3613,-0.3613,-0.3613,-0.3613,-0.3613,-0.3613,-0.3638,-0.3747,-0.3858,-0.3965,-0.4052,-0.4135,-0.4218,-0.4162,-0.4107,-0.4107,-0.4162,-0.4301,-0.4625,-0.4952,-0.5285,-0.5828,-0.6615,-0.7106,-0.7273,-0.7461,-0.744,-0.7467,-0.7568,-0.7595,-0.7729,-0.7809,-0.8326,-0.8813,-0.8806,-0.8809,-0.9074,-0.9346,-0.9317,-0.9102,-0.9221,-0.9326,-0.9351,-0.9324,-0.935,-0.9529,-0.9787,-0.9796,-0.9761,-0.9789,-0.9919,-0.993,-0.9988,-1.0359,-1.0781,-1.0952,-1.1219,-1.173,-1.2136,-1.2377,-1.255,-1.2956,-1.3179,-1.3535,-1.3398,-1.3376,-1.3615,-1.3917,-1.3732,-1.398,-1.4308,0.0,0.0,0.0,-0.0169,-0.0337,-0.0506,-0.0674,-0.0876,-0.1041,-0.1109,-0.1065,-0.1049,-0.1049,-0.1108,-0.1105,-0.1207,-0.1374,-0.1681,-0.1985,-0.2287,-0.2589,-0.2817,-0.291,-0.2864,-0.2883,-0.273,-0.2516,-0.2418,-0.2358,-0.2256,-0.2199,-0.2238,-0.2378,-0.2464,-0.2464,-0.2575,-0.2826,-0.3135,-0.3388,-0.3416,-0.353,-0.3557,-0.3585,-0.3613,-0.3613,-0.3613,-0.3613,-0.3613,-0.3613,-0.3638,-0.3719,-0.3799,-0.391,-0.4049,-0.4162,-0.4273,-0.4356,-0.4356,-0.4301,-0.4325,-0.438,-0.4218,-0.4515,-0.4653,-0.4956,-0.525,-0.6014,-0.6701,-0.6972,-0.7354,-0.744,-0.7542,-0.7622,-0.7568,-0.7628,-0.7649,-0.7915,-0.8155,-0.8281,-0.8548,-0.8891,-0.9134,-0.9346,-0.9428,-0.9845,-0.9918,-0.995,-0.9923,-0.9949,-1.0077,-1.0135,-1.0012,-0.9885,-1.0322,-1.0625,-1.0395,-1.0431,-1.0779,-1.1095,-1.1399,-1.1641,-1.1827,-1.2199,-1.2713,-1.3241,-1.3698,-1.3895,-1.4061,-1.4207,-1.4246,-1.4317,-1.4376,-1.4168,-1.4296,-1.4853]}]]